<?xml version='1.0' encoding='UTF-8'?><gpx version="1.1" creator="JPX - https://github.com/jenetics/jpx" xmlns="http://www.topografix.com/GPX/1/1"><trk><trkseg><trkpt lat="37.2129611" lon="13.665288"><ele>74.8</ele><time>2026-04-29T13:56:36.112Z</time></trkpt><trkpt lat="37.213016" lon="13.6652269"><ele>73.6</ele><time>2026-04-29T13:56:38.112Z</time></trkpt><trkpt lat="37.2131153" lon="13.6652251"><ele>72.4</ele><time>2026-04-29T13:56:40.113Z</time></trkpt><trkpt lat="37.2132221" lon="13.6652058"><ele>71.2</ele><time>2026-04-29T13:56:42.112Z</time></trkpt><trkpt lat="37.2133251" lon="13.6651984"><ele>70.0</ele><time>2026-04-29T13:56:44.112Z</time></trkpt><trkpt lat="37.2134245" lon="13.6651838"><ele>70.0</ele><time>2026-04-29T13:56:46.112Z</time></trkpt><trkpt lat="37.2135251" lon="13.6651719"><ele>70.0</ele><time>2026-04-29T13:56:48.112Z</time></trkpt><trkpt lat="37.2136273" lon="13.6651487"><ele>70.0</ele><time>2026-04-29T13:56:50.111Z</time></trkpt><trkpt lat="37.2137198" lon="13.6651374"><ele>70.0</ele><time>2026-04-29T13:56:52.111Z</time></trkpt><trkpt lat="37.2137988" lon="13.6651158"><ele>70.0</ele><time>2026-04-29T13:56:54.112Z</time></trkpt><trkpt lat="37.2138773" lon="13.6651062"><ele>70.0</ele><time>2026-04-29T13:56:56.112Z</time></trkpt><trkpt lat="37.2139578" lon="13.6650929"><ele>70.0</ele><time>2026-04-29T13:56:58.112Z</time></trkpt><trkpt lat="37.2140395" lon="13.6650724"><ele>70.0</ele><time>2026-04-29T13:57:00.113Z</time></trkpt><trkpt lat="37.2141255" lon="13.6650567"><ele>70.0</ele><time>2026-04-29T13:57:02.112Z</time></trkpt><trkpt lat="37.2142121" lon="13.6650462"><ele>70.0</ele><time>2026-04-29T13:57:04.113Z</time></trkpt><trkpt lat="37.2142955" lon="13.6650369"><ele>70.0</ele><time>2026-04-29T13:57:06.112Z</time></trkpt><trkpt lat="37.2143799" lon="13.6650314"><ele>69.2</ele><time>2026-04-29T13:57:08.113Z</time></trkpt><trkpt lat="37.2144659" lon="13.6650237"><ele>68.4</ele><time>2026-04-29T13:57:10.112Z</time></trkpt><trkpt lat="37.2145539" lon="13.6650239"><ele>67.6</ele><time>2026-04-29T13:57:12.112Z</time></trkpt><trkpt lat="37.2146417" lon="13.6650368"><ele>66.8</ele><time>2026-04-29T13:57:14.113Z</time></trkpt><trkpt lat="37.214735" lon="13.6650565"><ele>66.0</ele><time>2026-04-29T13:57:16.111Z</time></trkpt><trkpt lat="37.2148315" lon="13.665062"><ele>65.2</ele><time>2026-04-29T13:57:18.112Z</time></trkpt><trkpt lat="37.2149317" lon="13.6650757"><ele>64.39999999999999</ele><time>2026-04-29T13:57:20.111Z</time></trkpt><trkpt lat="37.2150352" lon="13.6650889"><ele>63.6</ele><time>2026-04-29T13:57:22.112Z</time></trkpt><trkpt lat="37.2151412" lon="13.6651101"><ele>62.8</ele><time>2026-04-29T13:57:24.112Z</time></trkpt><trkpt lat="37.2152398" lon="13.6651247"><ele>62.0</ele><time>2026-04-29T13:57:26.112Z</time></trkpt><trkpt lat="37.2153336" lon="13.6651468"><ele>62.00000000000001</ele><time>2026-04-29T13:57:28.112Z</time></trkpt><trkpt lat="37.2154182" lon="13.6651862"><ele>62.0</ele><time>2026-04-29T13:57:30.113Z</time></trkpt><trkpt lat="37.2154917" lon="13.6652306"><ele>62.0</ele><time>2026-04-29T13:57:32.111Z</time></trkpt><trkpt lat="37.2155693" lon="13.6652732"><ele>62.0</ele><time>2026-04-29T13:57:34.113Z</time></trkpt><trkpt lat="37.2156551" lon="13.6653087"><ele>62.00000000000001</ele><time>2026-04-29T13:57:36.112Z</time></trkpt><trkpt lat="37.2157287" lon="13.6653526"><ele>62.0</ele><time>2026-04-29T13:57:38.112Z</time></trkpt><trkpt lat="37.2157994" lon="13.6653955"><ele>61.00000000000001</ele><time>2026-04-29T13:57:40.113Z</time></trkpt><trkpt lat="37.2158756" lon="13.6654344"><ele>60.0</ele><time>2026-04-29T13:57:42.112Z</time></trkpt><trkpt lat="37.2159491" lon="13.665463"><ele>59.0</ele><time>2026-04-29T13:57:44.111Z</time></trkpt><trkpt lat="37.2160258" lon="13.6654918"><ele>58.0</ele><time>2026-04-29T13:57:46.113Z</time></trkpt><trkpt lat="37.2161042" lon="13.6655273"><ele>57.00000000000001</ele><time>2026-04-29T13:57:48.112Z</time></trkpt><trkpt lat="37.2161776" lon="13.6655708"><ele>56.0</ele><time>2026-04-29T13:57:50.112Z</time></trkpt><trkpt lat="37.2162521" lon="13.6656134"><ele>56.00000000000001</ele><time>2026-04-29T13:57:52.113Z</time></trkpt><trkpt lat="37.2163241" lon="13.6656591"><ele>56.0</ele><time>2026-04-29T13:57:54.112Z</time></trkpt><trkpt lat="37.2163932" lon="13.6657142"><ele>56.0</ele><time>2026-04-29T13:57:56.112Z</time></trkpt><trkpt lat="37.2164689" lon="13.6657754"><ele>56.0</ele><time>2026-04-29T13:57:58.111Z</time></trkpt><trkpt lat="37.2165456" lon="13.6658269"><ele>56.00000000000001</ele><time>2026-04-29T13:58:00.111Z</time></trkpt><trkpt lat="37.2166253" lon="13.6658681"><ele>56.0</ele><time>2026-04-29T13:58:02.111Z</time></trkpt><trkpt lat="37.2167008" lon="13.6659243"><ele>55.333333333333336</ele><time>2026-04-29T13:58:04.112Z</time></trkpt><trkpt lat="37.2167739" lon="13.665962"><ele>54.66666666666667</ele><time>2026-04-29T13:58:06.111Z</time></trkpt><trkpt lat="37.2168531" lon="13.665991"><ele>54.0</ele><time>2026-04-29T13:58:08.112Z</time></trkpt><trkpt lat="37.2169323" lon="13.6660131"><ele>53.33333333333333</ele><time>2026-04-29T13:58:10.112Z</time></trkpt><trkpt lat="37.2170165" lon="13.6660228"><ele>52.666666666666664</ele><time>2026-04-29T13:58:12.111Z</time></trkpt><trkpt lat="37.2171002" lon="13.6660386"><ele>52.0</ele><time>2026-04-29T13:58:14.112Z</time></trkpt><trkpt lat="37.2171843" lon="13.6660517"><ele>52.0</ele><time>2026-04-29T13:58:16.112Z</time></trkpt><trkpt lat="37.2172635" lon="13.666063"><ele>52.0</ele><time>2026-04-29T13:58:18.112Z</time></trkpt><trkpt lat="37.2173457" lon="13.6660736"><ele>52.0</ele><time>2026-04-29T13:58:20.112Z</time></trkpt><trkpt lat="37.2174229" lon="13.6660835"><ele>52.0</ele><time>2026-04-29T13:58:22.113Z</time></trkpt><trkpt lat="37.2173519" lon="13.6660386"><ele>52.0</ele><time>2026-04-29T13:58:28.113Z</time></trkpt><trkpt lat="37.2172217" lon="13.666025"><ele>51.99999999999999</ele><time>2026-04-29T13:58:30.113Z</time></trkpt><trkpt lat="37.2171426" lon="13.6660258"><ele>52.0</ele><time>2026-04-29T13:58:31.112Z</time></trkpt><trkpt lat="37.2170582" lon="13.6660188"><ele>52.0</ele><time>2026-04-29T13:58:32.112Z</time></trkpt><trkpt lat="37.2169826" lon="13.6660148"><ele>52.0</ele><time>2026-04-29T13:58:33.112Z</time></trkpt><trkpt lat="37.2169069" lon="13.6660014"><ele>51.99999999999999</ele><time>2026-04-29T13:58:34.112Z</time></trkpt><trkpt lat="37.2168321" lon="13.6659819"><ele>52.0</ele><time>2026-04-29T13:58:35.112Z</time></trkpt><trkpt lat="37.2167308" lon="13.6659353"><ele>51.99999999999999</ele><time>2026-04-29T13:58:37.112Z</time></trkpt><trkpt lat="37.2167281" lon="13.6658547"><ele>52.0</ele><time>2026-04-29T13:58:39.111Z</time></trkpt><trkpt lat="37.2167709" lon="13.6657334"><ele>52.0</ele><time>2026-04-29T13:58:41.111Z</time></trkpt><trkpt lat="37.2168061" lon="13.6656633"><ele>52.0</ele><time>2026-04-29T13:58:42.111Z</time></trkpt><trkpt lat="37.2168432" lon="13.6655873"><ele>51.99999999999999</ele><time>2026-04-29T13:58:43.113Z</time></trkpt><trkpt lat="37.2168736" lon="13.6654985"><ele>52.0</ele><time>2026-04-29T13:58:44.112Z</time></trkpt><trkpt lat="37.2169064" lon="13.6654055"><ele>51.99999999999999</ele><time>2026-04-29T13:58:45.112Z</time></trkpt><trkpt lat="37.2169403" lon="13.665321"><ele>52.0</ele><time>2026-04-29T13:58:46.112Z</time></trkpt><trkpt lat="37.216972" lon="13.6652336"><ele>52.0</ele><time>2026-04-29T13:58:47.111Z</time></trkpt><trkpt lat="37.217008" lon="13.6651352"><ele>52.0</ele><time>2026-04-29T13:58:48.113Z</time></trkpt><trkpt lat="37.2170486" lon="13.6650198"><ele>51.99999999999999</ele><time>2026-04-29T13:58:49.113Z</time></trkpt><trkpt lat="37.2170895" lon="13.6649122"><ele>52.0</ele><time>2026-04-29T13:58:50.112Z</time></trkpt><trkpt lat="37.2171268" lon="13.6647872"><ele>53.25</ele><time>2026-04-29T13:58:51.113Z</time></trkpt><trkpt lat="37.2171663" lon="13.6646652"><ele>54.5</ele><time>2026-04-29T13:58:52.112Z</time></trkpt><trkpt lat="37.2172139" lon="13.6645357"><ele>55.75</ele><time>2026-04-29T13:58:53.111Z</time></trkpt><trkpt lat="37.2172604" lon="13.6643987"><ele>57.0</ele><time>2026-04-29T13:58:54.113Z</time></trkpt><trkpt lat="37.217306" lon="13.6642654"><ele>56.8</ele><time>2026-04-29T13:58:55.112Z</time></trkpt><trkpt lat="37.2173478" lon="13.664143"><ele>56.6</ele><time>2026-04-29T13:58:56.113Z</time></trkpt><trkpt lat="37.2173862" lon="13.6640261"><ele>56.39999999999999</ele><time>2026-04-29T13:58:57.111Z</time></trkpt><trkpt lat="37.2174228" lon="13.6639218"><ele>56.199999999999996</ele><time>2026-04-29T13:58:58.112Z</time></trkpt><trkpt lat="37.2174508" lon="13.6638139"><ele>56.0</ele><time>2026-04-29T13:58:59.112Z</time></trkpt><trkpt lat="37.2174777" lon="13.663708"><ele>56.16666666666667</ele><time>2026-04-29T13:59:00.112Z</time></trkpt><trkpt lat="37.2175045" lon="13.6636039"><ele>56.333333333333336</ele><time>2026-04-29T13:59:01.111Z</time></trkpt><trkpt lat="37.2175332" lon="13.663503"><ele>56.5</ele><time>2026-04-29T13:59:02.111Z</time></trkpt><trkpt lat="37.2175624" lon="13.6633998"><ele>56.66666666666667</ele><time>2026-04-29T13:59:03.111Z</time></trkpt><trkpt lat="37.2175922" lon="13.6632977"><ele>56.833333333333336</ele><time>2026-04-29T13:59:04.111Z</time></trkpt><trkpt lat="37.2176225" lon="13.6631878"><ele>57.0</ele><time>2026-04-29T13:59:05.111Z</time></trkpt><trkpt lat="37.2176554" lon="13.6630738"><ele>57.0</ele><time>2026-04-29T13:59:06.113Z</time></trkpt><trkpt lat="37.2176873" lon="13.6629602"><ele>57.0</ele><time>2026-04-29T13:59:07.111Z</time></trkpt><trkpt lat="37.2177155" lon="13.6628531"><ele>57.0</ele><time>2026-04-29T13:59:08.111Z</time></trkpt><trkpt lat="37.2177417" lon="13.6627454"><ele>57.0</ele><time>2026-04-29T13:59:09.112Z</time></trkpt><trkpt lat="37.2177658" lon="13.6626406"><ele>57.0</ele><time>2026-04-29T13:59:10.112Z</time></trkpt><trkpt lat="37.2177995" lon="13.6625382"><ele>57.0</ele><time>2026-04-29T13:59:11.111Z</time></trkpt><trkpt lat="37.2178265" lon="13.662439"><ele>57.0</ele><time>2026-04-29T13:59:12.112Z</time></trkpt><trkpt lat="37.2178554" lon="13.6623394"><ele>57.0</ele><time>2026-04-29T13:59:13.112Z</time></trkpt><trkpt lat="37.2178713" lon="13.6622461"><ele>57.0</ele><time>2026-04-29T13:59:14.111Z</time></trkpt><trkpt lat="37.2178963" lon="13.6621596"><ele>57.0</ele><time>2026-04-29T13:59:15.112Z</time></trkpt><trkpt lat="37.2179235" lon="13.662075"><ele>57.0</ele><time>2026-04-29T13:59:16.112Z</time></trkpt><trkpt lat="37.2179457" lon="13.6619959"><ele>57.0</ele><time>2026-04-29T13:59:17.111Z</time></trkpt><trkpt lat="37.2179722" lon="13.6619225"><ele>57.0</ele><time>2026-04-29T13:59:18.111Z</time></trkpt><trkpt lat="37.2180221" lon="13.6617907"><ele>57.0</ele><time>2026-04-29T13:59:20.111Z</time></trkpt><trkpt lat="37.2180688" lon="13.6616689"><ele>57.0</ele><time>2026-04-29T13:59:22.113Z</time></trkpt><trkpt lat="37.2181153" lon="13.6615523"><ele>57.0</ele><time>2026-04-29T13:59:24.112Z</time></trkpt><trkpt lat="37.2181861" lon="13.6614364"><ele>56.71428571428571</ele><time>2026-04-29T13:59:26.112Z</time></trkpt><trkpt lat="37.2182369" lon="13.6613706"><ele>56.42857142857142</ele><time>2026-04-29T13:59:27.112Z</time></trkpt><trkpt lat="37.2182805" lon="13.6613"><ele>56.14285714285714</ele><time>2026-04-29T13:59:28.112Z</time></trkpt><trkpt lat="37.2183273" lon="13.6612258"><ele>55.857142857142854</ele><time>2026-04-29T13:59:29.111Z</time></trkpt><trkpt lat="37.2183684" lon="13.6611616"><ele>55.57142857142857</ele><time>2026-04-29T13:59:30.111Z</time></trkpt><trkpt lat="37.2184071" lon="13.6610941"><ele>55.28571428571428</ele><time>2026-04-29T13:59:31.111Z</time></trkpt><trkpt lat="37.2184454" lon="13.661025"><ele>55.0</ele><time>2026-04-29T13:59:32.111Z</time></trkpt><trkpt lat="37.2184796" lon="13.6609552"><ele>54.8</ele><time>2026-04-29T13:59:33.111Z</time></trkpt><trkpt lat="37.2185372" lon="13.6608337"><ele>54.6</ele><time>2026-04-29T13:59:35.114Z</time></trkpt><trkpt lat="37.2185863" lon="13.6607206"><ele>54.400000000000006</ele><time>2026-04-29T13:59:37.112Z</time></trkpt><trkpt lat="37.2186411" lon="13.6606031"><ele>54.2</ele><time>2026-04-29T13:59:39.111Z</time></trkpt><trkpt lat="37.2187032" lon="13.6604809"><ele>54.0</ele><time>2026-04-29T13:59:41.111Z</time></trkpt><trkpt lat="37.2187534" lon="13.6603709"><ele>53.400000000000006</ele><time>2026-04-29T13:59:43.111Z</time></trkpt><trkpt lat="37.2188109" lon="13.6602677"><ele>52.800000000000004</ele><time>2026-04-29T13:59:45.111Z</time></trkpt><trkpt lat="37.2188691" lon="13.6601486"><ele>52.2</ele><time>2026-04-29T13:59:47.112Z</time></trkpt><trkpt lat="37.218926" lon="13.6600376"><ele>51.599999999999994</ele><time>2026-04-29T13:59:49.113Z</time></trkpt><trkpt lat="37.2189645" lon="13.6599473"><ele>51.0</ele><time>2026-04-29T13:59:51.111Z</time></trkpt><trkpt lat="37.2189997" lon="13.6598758"><ele>50.8</ele><time>2026-04-29T13:59:54.113Z</time></trkpt><trkpt lat="37.2189516" lon="13.6599637"><ele>50.599999999999994</ele><time>2026-04-29T14:00:06.113Z</time></trkpt><trkpt lat="37.2188874" lon="13.6600917"><ele>50.4</ele><time>2026-04-29T14:00:08.111Z</time></trkpt><trkpt lat="37.2188506" lon="13.6601736"><ele>50.2</ele><time>2026-04-29T14:00:09.112Z</time></trkpt><trkpt lat="37.2188106" lon="13.6602632"><ele>50.0</ele><time>2026-04-29T14:00:10.111Z</time></trkpt><trkpt lat="37.2187606" lon="13.6603563"><ele>50.8</ele><time>2026-04-29T14:00:11.111Z</time></trkpt><trkpt lat="37.2187119" lon="13.6604568"><ele>51.6</ele><time>2026-04-29T14:00:12.111Z</time></trkpt><trkpt lat="37.2186576" lon="13.6605595"><ele>52.400000000000006</ele><time>2026-04-29T14:00:13.112Z</time></trkpt><trkpt lat="37.2186055" lon="13.6606683"><ele>53.2</ele><time>2026-04-29T14:00:14.111Z</time></trkpt><trkpt lat="37.2185559" lon="13.6607717"><ele>54.0</ele><time>2026-04-29T14:00:15.112Z</time></trkpt><trkpt lat="37.2185125" lon="13.6608658"><ele>54.0</ele><time>2026-04-29T14:00:16.111Z</time></trkpt><trkpt lat="37.218468" lon="13.6609602"><ele>54.0</ele><time>2026-04-29T14:00:17.112Z</time></trkpt><trkpt lat="37.2184191" lon="13.6610604"><ele>54.0</ele><time>2026-04-29T14:00:18.113Z</time></trkpt><trkpt lat="37.2183707" lon="13.6611522"><ele>54.0</ele><time>2026-04-29T14:00:19.112Z</time></trkpt><trkpt lat="37.2183147" lon="13.6612377"><ele>54.0</ele><time>2026-04-29T14:00:20.113Z</time></trkpt><trkpt lat="37.2182631" lon="13.6613186"><ele>54.0</ele><time>2026-04-29T14:00:21.112Z</time></trkpt><trkpt lat="37.2182119" lon="13.6613945"><ele>54.166666666666664</ele><time>2026-04-29T14:00:22.112Z</time></trkpt><trkpt lat="37.2181617" lon="13.6614826"><ele>54.33333333333333</ele><time>2026-04-29T14:00:23.111Z</time></trkpt><trkpt lat="37.2181164" lon="13.6615685"><ele>54.5</ele><time>2026-04-29T14:00:24.112Z</time></trkpt><trkpt lat="37.2180814" lon="13.6616735"><ele>54.666666666666664</ele><time>2026-04-29T14:00:25.112Z</time></trkpt><trkpt lat="37.2180487" lon="13.6617785"><ele>54.83333333333333</ele><time>2026-04-29T14:00:26.112Z</time></trkpt><trkpt lat="37.21801" lon="13.6618734"><ele>55.0</ele><time>2026-04-29T14:00:27.113Z</time></trkpt><trkpt lat="37.2179734" lon="13.6619741"><ele>55.33333333333333</ele><time>2026-04-29T14:00:28.112Z</time></trkpt><trkpt lat="37.2179453" lon="13.6620724"><ele>55.666666666666664</ele><time>2026-04-29T14:00:29.112Z</time></trkpt><trkpt lat="37.2179186" lon="13.6621608"><ele>56.0</ele><time>2026-04-29T14:00:30.113Z</time></trkpt><trkpt lat="37.2178844" lon="13.6622461"><ele>56.33333333333333</ele><time>2026-04-29T14:00:31.111Z</time></trkpt><trkpt lat="37.2178559" lon="13.6623373"><ele>56.666666666666664</ele><time>2026-04-29T14:00:32.113Z</time></trkpt><trkpt lat="37.2178303" lon="13.6624293"><ele>57.0</ele><time>2026-04-29T14:00:33.111Z</time></trkpt><trkpt lat="37.2178041" lon="13.6625243"><ele>57.0</ele><time>2026-04-29T14:00:34.113Z</time></trkpt><trkpt lat="37.2177802" lon="13.6626119"><ele>57.0</ele><time>2026-04-29T14:00:35.111Z</time></trkpt><trkpt lat="37.2177532" lon="13.6627006"><ele>57.0</ele><time>2026-04-29T14:00:36.112Z</time></trkpt><trkpt lat="37.2177295" lon="13.6627904"><ele>57.0</ele><time>2026-04-29T14:00:37.112Z</time></trkpt><trkpt lat="37.2177099" lon="13.6628843"><ele>57.0</ele><time>2026-04-29T14:00:38.112Z</time></trkpt><trkpt lat="37.2176891" lon="13.6629815"><ele>57.0</ele><time>2026-04-29T14:00:39.111Z</time></trkpt><trkpt lat="37.2176603" lon="13.6630678"><ele>57.0</ele><time>2026-04-29T14:00:40.112Z</time></trkpt><trkpt lat="37.2176278" lon="13.6631646"><ele>57.0</ele><time>2026-04-29T14:00:41.111Z</time></trkpt><trkpt lat="37.217598" lon="13.663257"><ele>57.0</ele><time>2026-04-29T14:00:42.111Z</time></trkpt><trkpt lat="37.2175773" lon="13.6633512"><ele>57.0</ele><time>2026-04-29T14:00:43.111Z</time></trkpt><trkpt lat="37.2175529" lon="13.6634368"><ele>57.0</ele><time>2026-04-29T14:00:44.112Z</time></trkpt><trkpt lat="37.2175346" lon="13.6635249"><ele>57.0</ele><time>2026-04-29T14:00:45.111Z</time></trkpt><trkpt lat="37.2175115" lon="13.6636055"><ele>56.857142857142854</ele><time>2026-04-29T14:00:46.112Z</time></trkpt><trkpt lat="37.2174915" lon="13.6636844"><ele>56.71428571428571</ele><time>2026-04-29T14:00:47.112Z</time></trkpt><trkpt lat="37.2174728" lon="13.6637723"><ele>56.57142857142857</ele><time>2026-04-29T14:00:48.113Z</time></trkpt><trkpt lat="37.2174466" lon="13.6638597"><ele>56.42857142857143</ele><time>2026-04-29T14:00:49.111Z</time></trkpt><trkpt lat="37.2174185" lon="13.6639525"><ele>56.285714285714285</ele><time>2026-04-29T14:00:50.112Z</time></trkpt><trkpt lat="37.2173917" lon="13.6640392"><ele>56.14285714285714</ele><time>2026-04-29T14:00:51.112Z</time></trkpt><trkpt lat="37.2173588" lon="13.6641256"><ele>56.0</ele><time>2026-04-29T14:00:52.112Z</time></trkpt><trkpt lat="37.2173336" lon="13.6642095"><ele>56.14285714285714</ele><time>2026-04-29T14:00:53.112Z</time></trkpt><trkpt lat="37.2173021" lon="13.6642997"><ele>56.285714285714285</ele><time>2026-04-29T14:00:54.112Z</time></trkpt><trkpt lat="37.217276" lon="13.6643792"><ele>56.42857142857143</ele><time>2026-04-29T14:00:55.111Z</time></trkpt><trkpt lat="37.2172545" lon="13.6644599"><ele>56.57142857142857</ele><time>2026-04-29T14:00:56.112Z</time></trkpt><trkpt lat="37.2172276" lon="13.6645436"><ele>56.71428571428571</ele><time>2026-04-29T14:00:57.111Z</time></trkpt><trkpt lat="37.2171921" lon="13.6646205"><ele>56.857142857142854</ele><time>2026-04-29T14:00:58.112Z</time></trkpt><trkpt lat="37.2171672" lon="13.6646951"><ele>57.0</ele><time>2026-04-29T14:00:59.113Z</time></trkpt><trkpt lat="37.2171394" lon="13.6647662"><ele>57.0</ele><time>2026-04-29T14:01:00.11Z</time></trkpt><trkpt lat="37.2170889" lon="13.6649039"><ele>57.0</ele><time>2026-04-29T14:01:02.113Z</time></trkpt><trkpt lat="37.21706" lon="13.6649855"><ele>57.0</ele><time>2026-04-29T14:01:03.111Z</time></trkpt><trkpt lat="37.2170366" lon="13.6650634"><ele>57.0</ele><time>2026-04-29T14:01:04.112Z</time></trkpt><trkpt lat="37.2170119" lon="13.6651386"><ele>57.0</ele><time>2026-04-29T14:01:05.112Z</time></trkpt><trkpt lat="37.2169541" lon="13.665273"><ele>57.0</ele><time>2026-04-29T14:01:07.112Z</time></trkpt><trkpt lat="37.2169297" lon="13.6653494"><ele>56.0</ele><time>2026-04-29T14:01:08.111Z</time></trkpt><trkpt lat="37.2169053" lon="13.6654281"><ele>55.0</ele><time>2026-04-29T14:01:09.111Z</time></trkpt><trkpt lat="37.2168596" lon="13.6655648"><ele>54.0</ele><time>2026-04-29T14:01:11.111Z</time></trkpt><trkpt lat="37.2168065" lon="13.6656759"><ele>53.0</ele><time>2026-04-29T14:01:13.111Z</time></trkpt><trkpt lat="37.2167552" lon="13.6657854"><ele>52.0</ele><time>2026-04-29T14:01:15.113Z</time></trkpt><trkpt lat="37.2167191" lon="13.6658677"><ele>51.99999999999999</ele><time>2026-04-29T14:01:19.112Z</time></trkpt><trkpt lat="37.2167436" lon="13.665945"><ele>52.0</ele><time>2026-04-29T14:01:26.112Z</time></trkpt><trkpt lat="37.2168039" lon="13.6659751"><ele>52.0</ele><time>2026-04-29T14:01:28.112Z</time></trkpt><trkpt lat="37.216872" lon="13.6660037"><ele>52.0</ele><time>2026-04-29T14:01:30.111Z</time></trkpt><trkpt lat="37.2169373" lon="13.6660188"><ele>51.99999999999999</ele><time>2026-04-29T14:01:32.112Z</time></trkpt><trkpt lat="37.2170113" lon="13.6660471"><ele>52.0</ele><time>2026-04-29T14:01:34.111Z</time></trkpt><trkpt lat="37.2171242" lon="13.6660621"><ele>52.0</ele><time>2026-04-29T14:01:36.112Z</time></trkpt><trkpt lat="37.2171891" lon="13.6660736"><ele>52.0</ele><time>2026-04-29T14:01:37.112Z</time></trkpt><trkpt lat="37.2172541" lon="13.666077"><ele>52.0</ele><time>2026-04-29T14:01:38.111Z</time></trkpt><trkpt lat="37.2173263" lon="13.6660796"><ele>52.0</ele><time>2026-04-29T14:01:39.111Z</time></trkpt><trkpt lat="37.2173946" lon="13.666082"><ele>52.0</ele><time>2026-04-29T14:01:40.111Z</time></trkpt><trkpt lat="37.2174638" lon="13.6660713"><ele>52.0</ele><time>2026-04-29T14:01:41.111Z</time></trkpt><trkpt lat="37.2175388" lon="13.666056"><ele>52.0</ele><time>2026-04-29T14:01:42.112Z</time></trkpt><trkpt lat="37.2176402" lon="13.666037"><ele>51.400000000000006</ele><time>2026-04-29T14:01:43.111Z</time></trkpt><trkpt lat="37.2177209" lon="13.6660184"><ele>50.800000000000004</ele><time>2026-04-29T14:01:44.112Z</time></trkpt><trkpt lat="37.2177828" lon="13.6660025"><ele>50.2</ele><time>2026-04-29T14:01:45.112Z</time></trkpt><trkpt lat="37.2179038" lon="13.6659841"><ele>49.6</ele><time>2026-04-29T14:01:47.112Z</time></trkpt><trkpt lat="37.2180061" lon="13.6659987"><ele>49.0</ele><time>2026-04-29T14:01:49.113Z</time></trkpt><trkpt lat="37.2180979" lon="13.6660707"><ele>48.33333333333333</ele><time>2026-04-29T14:01:51.112Z</time></trkpt><trkpt lat="37.2181875" lon="13.6662157"><ele>47.666666666666664</ele><time>2026-04-29T14:01:53.112Z</time></trkpt><trkpt lat="37.2182323" lon="13.6662947"><ele>47.0</ele><time>2026-04-29T14:01:54.112Z</time></trkpt><trkpt lat="37.2182788" lon="13.6663683"><ele>46.33333333333333</ele><time>2026-04-29T14:01:55.111Z</time></trkpt><trkpt lat="37.2183196" lon="13.6664328"><ele>45.666666666666664</ele><time>2026-04-29T14:01:56.112Z</time></trkpt><trkpt lat="37.2183714" lon="13.6664787"><ele>45.0</ele><time>2026-04-29T14:01:57.112Z</time></trkpt><trkpt lat="37.2184332" lon="13.6665106"><ele>45.0</ele><time>2026-04-29T14:01:58.111Z</time></trkpt><trkpt lat="37.2185556" lon="13.6665144"><ele>45.0</ele><time>2026-04-29T14:02:00.111Z</time></trkpt><trkpt lat="37.2186229" lon="13.6665036"><ele>45.0</ele><time>2026-04-29T14:02:01.111Z</time></trkpt><trkpt lat="37.2186828" lon="13.6664641"><ele>45.0</ele><time>2026-04-29T14:02:02.111Z</time></trkpt><trkpt lat="37.2187497" lon="13.666404"><ele>45.0</ele><time>2026-04-29T14:02:03.111Z</time></trkpt><trkpt lat="37.2188125" lon="13.6663536"><ele>45.0</ele><time>2026-04-29T14:02:04.112Z</time></trkpt><trkpt lat="37.218879" lon="13.6663079"><ele>45.0</ele><time>2026-04-29T14:02:05.112Z</time></trkpt><trkpt lat="37.2189421" lon="13.6662596"><ele>45.0</ele><time>2026-04-29T14:02:06.112Z</time></trkpt><trkpt lat="37.2190089" lon="13.6662016"><ele>45.0</ele><time>2026-04-29T14:02:07.112Z</time></trkpt><trkpt lat="37.2190687" lon="13.6661591"><ele>45.0</ele><time>2026-04-29T14:02:08.112Z</time></trkpt><trkpt lat="37.2191302" lon="13.6661303"><ele>45.0</ele><time>2026-04-29T14:02:09.112Z</time></trkpt><trkpt lat="37.2192031" lon="13.6661075"><ele>45.0</ele><time>2026-04-29T14:02:10.112Z</time></trkpt><trkpt lat="37.2192767" lon="13.666102"><ele>45.0</ele><time>2026-04-29T14:02:11.112Z</time></trkpt><trkpt lat="37.2193507" lon="13.6661189"><ele>45.333333333333336</ele><time>2026-04-29T14:02:12.11Z</time></trkpt><trkpt lat="37.2194286" lon="13.666146"><ele>45.666666666666664</ele><time>2026-04-29T14:02:13.111Z</time></trkpt><trkpt lat="37.219499" lon="13.6661705"><ele>46.0</ele><time>2026-04-29T14:02:14.111Z</time></trkpt><trkpt lat="37.2195681" lon="13.6661939"><ele>46.33333333333333</ele><time>2026-04-29T14:02:15.112Z</time></trkpt><trkpt lat="37.2196403" lon="13.6662169"><ele>46.666666666666664</ele><time>2026-04-29T14:02:16.111Z</time></trkpt><trkpt lat="37.2197118" lon="13.6662375"><ele>47.0</ele><time>2026-04-29T14:02:17.112Z</time></trkpt><trkpt lat="37.2197887" lon="13.6662563"><ele>47.166666666666664</ele><time>2026-04-29T14:02:18.111Z</time></trkpt><trkpt lat="37.2198652" lon="13.6662769"><ele>47.33333333333333</ele><time>2026-04-29T14:02:19.11Z</time></trkpt><trkpt lat="37.2199419" lon="13.6663063"><ele>47.5</ele><time>2026-04-29T14:02:20.111Z</time></trkpt><trkpt lat="37.2200226" lon="13.666327"><ele>47.666666666666664</ele><time>2026-04-29T14:02:21.111Z</time></trkpt><trkpt lat="37.2200979" lon="13.6663423"><ele>47.833333333333336</ele><time>2026-04-29T14:02:22.11Z</time></trkpt><trkpt lat="37.2201685" lon="13.6663555"><ele>48.0</ele><time>2026-04-29T14:02:23.112Z</time></trkpt><trkpt lat="37.2202387" lon="13.666367"><ele>47.99999999999999</ele><time>2026-04-29T14:02:24.11Z</time></trkpt><trkpt lat="37.2203032" lon="13.6663775"><ele>48.0</ele><time>2026-04-29T14:02:25.111Z</time></trkpt><trkpt lat="37.2203671" lon="13.6664046"><ele>48.0</ele><time>2026-04-29T14:02:26.111Z</time></trkpt><trkpt lat="37.2204353" lon="13.6664241"><ele>48.0</ele><time>2026-04-29T14:02:27.112Z</time></trkpt><trkpt lat="37.2205038" lon="13.6664397"><ele>48.0</ele><time>2026-04-29T14:02:28.112Z</time></trkpt><trkpt lat="37.2205712" lon="13.6664603"><ele>47.99999999999999</ele><time>2026-04-29T14:02:29.112Z</time></trkpt><trkpt lat="37.2206331" lon="13.6664761"><ele>48.0</ele><time>2026-04-29T14:02:30.113Z</time></trkpt><trkpt lat="37.2207422" lon="13.6665225"><ele>47.599999999999994</ele><time>2026-04-29T14:02:32.112Z</time></trkpt><trkpt lat="37.2208514" lon="13.6665888"><ele>47.199999999999996</ele><time>2026-04-29T14:02:34.113Z</time></trkpt><trkpt lat="37.2209076" lon="13.6666248"><ele>46.8</ele><time>2026-04-29T14:02:35.112Z</time></trkpt><trkpt lat="37.2210229" lon="13.6666984"><ele>46.4</ele><time>2026-04-29T14:02:37.111Z</time></trkpt><trkpt lat="37.2210805" lon="13.666732"><ele>46.0</ele><time>2026-04-29T14:02:38.111Z</time></trkpt><trkpt lat="37.2211936" lon="13.6667937"><ele>46.0</ele><time>2026-04-29T14:02:40.111Z</time></trkpt><trkpt lat="37.2212841" lon="13.6668711"><ele>46.0</ele><time>2026-04-29T14:02:42.112Z</time></trkpt><trkpt lat="37.2213508" lon="13.6669663"><ele>46.0</ele><time>2026-04-29T14:02:44.112Z</time></trkpt><trkpt lat="37.2213909" lon="13.6670783"><ele>46.0</ele><time>2026-04-29T14:02:46.112Z</time></trkpt><trkpt lat="37.2213912" lon="13.6671782"><ele>46.0</ele><time>2026-04-29T14:02:48.113Z</time></trkpt><trkpt lat="37.2214001" lon="13.6672906"><ele>46.4</ele><time>2026-04-29T14:02:50.112Z</time></trkpt><trkpt lat="37.2213968" lon="13.6674262"><ele>46.8</ele><time>2026-04-29T14:02:52.111Z</time></trkpt><trkpt lat="37.2213924" lon="13.667567"><ele>47.199999999999996</ele><time>2026-04-29T14:02:54.111Z</time></trkpt><trkpt lat="37.2214024" lon="13.6676966"><ele>47.599999999999994</ele><time>2026-04-29T14:02:56.11Z</time></trkpt><trkpt lat="37.2214261" lon="13.6678084"><ele>48.0</ele><time>2026-04-29T14:02:58.11Z</time></trkpt><trkpt lat="37.2214268" lon="13.667922"><ele>48.0</ele><time>2026-04-29T14:03:00.111Z</time></trkpt><trkpt lat="37.2214544" lon="13.6680347"><ele>48.0</ele><time>2026-04-29T14:03:02.112Z</time></trkpt><trkpt lat="37.2214978" lon="13.6681249"><ele>48.0</ele><time>2026-04-29T14:03:04.111Z</time></trkpt><trkpt lat="37.2215584" lon="13.6681599"><ele>48.0</ele><time>2026-04-29T14:03:06.112Z</time></trkpt><trkpt lat="37.2216552" lon="13.6681421"><ele>48.0</ele><time>2026-04-29T14:03:08.111Z</time></trkpt><trkpt lat="37.2217492" lon="13.6680754"><ele>47.0</ele><time>2026-04-29T14:03:10.111Z</time></trkpt><trkpt lat="37.2218242" lon="13.6679734"><ele>46.0</ele><time>2026-04-29T14:03:12.112Z</time></trkpt><trkpt lat="37.2219012" lon="13.667881"><ele>45.0</ele><time>2026-04-29T14:03:14.111Z</time></trkpt><trkpt lat="37.2219975" lon="13.6678015"><ele>44.0</ele><time>2026-04-29T14:03:16.111Z</time></trkpt><trkpt lat="37.2220621" lon="13.6677819"><ele>43.0</ele><time>2026-04-29T14:03:17.112Z</time></trkpt><trkpt lat="37.2221267" lon="13.6677801"><ele>43.0</ele><time>2026-04-29T14:03:18.111Z</time></trkpt><trkpt lat="37.2222031" lon="13.6677949"><ele>43.0</ele><time>2026-04-29T14:03:19.111Z</time></trkpt><trkpt lat="37.2222784" lon="13.6678208"><ele>43.0</ele><time>2026-04-29T14:03:20.11Z</time></trkpt><trkpt lat="37.222365" lon="13.6678514"><ele>43.0</ele><time>2026-04-29T14:03:21.111Z</time></trkpt><trkpt lat="37.2224554" lon="13.6678824"><ele>43.0</ele><time>2026-04-29T14:03:22.11Z</time></trkpt><trkpt lat="37.2225462" lon="13.6679001"><ele>43.0</ele><time>2026-04-29T14:03:23.111Z</time></trkpt><trkpt lat="37.2226342" lon="13.6679164"><ele>43.4</ele><time>2026-04-29T14:03:24.111Z</time></trkpt><trkpt lat="37.2227415" lon="13.6679209"><ele>43.8</ele><time>2026-04-29T14:03:25.111Z</time></trkpt><trkpt lat="37.2228471" lon="13.6679176"><ele>44.2</ele><time>2026-04-29T14:03:26.11Z</time></trkpt><trkpt lat="37.2229381" lon="13.6679107"><ele>44.6</ele><time>2026-04-29T14:03:27.112Z</time></trkpt><trkpt lat="37.2230298" lon="13.6679085"><ele>45.0</ele><time>2026-04-29T14:03:28.111Z</time></trkpt><trkpt lat="37.2231182" lon="13.6679107"><ele>46.0</ele><time>2026-04-29T14:03:29.112Z</time></trkpt><trkpt lat="37.2232049" lon="13.6679133"><ele>47.0</ele><time>2026-04-29T14:03:30.111Z</time></trkpt><trkpt lat="37.2232818" lon="13.6679139"><ele>48.0</ele><time>2026-04-29T14:03:31.11Z</time></trkpt><trkpt lat="37.2233441" lon="13.6679264"><ele>49.0</ele><time>2026-04-29T14:03:32.112Z</time></trkpt><trkpt lat="37.2234062" lon="13.6679556"><ele>50.0</ele><time>2026-04-29T14:03:33.111Z</time></trkpt><trkpt lat="37.2234651" lon="13.6679858"><ele>51.0</ele><time>2026-04-29T14:03:34.111Z</time></trkpt><trkpt lat="37.2235696" lon="13.6680532"><ele>51.0</ele><time>2026-04-29T14:03:36.112Z</time></trkpt><trkpt lat="37.2236296" lon="13.6680883"><ele>51.0</ele><time>2026-04-29T14:03:37.112Z</time></trkpt><trkpt lat="37.2236928" lon="13.6681228"><ele>51.0</ele><time>2026-04-29T14:03:38.111Z</time></trkpt><trkpt lat="37.2237586" lon="13.6681588"><ele>51.0</ele><time>2026-04-29T14:03:39.112Z</time></trkpt><trkpt lat="37.2238266" lon="13.6681748"><ele>51.0</ele><time>2026-04-29T14:03:40.11Z</time></trkpt><trkpt lat="37.2238975" lon="13.6681768"><ele>51.0</ele><time>2026-04-29T14:03:41.112Z</time></trkpt><trkpt lat="37.2239766" lon="13.668161"><ele>51.0</ele><time>2026-04-29T14:03:42.111Z</time></trkpt><trkpt lat="37.224055" lon="13.6681193"><ele>51.5</ele><time>2026-04-29T14:03:43.112Z</time></trkpt><trkpt lat="37.2241191" lon="13.6680835"><ele>52.0</ele><time>2026-04-29T14:03:44.112Z</time></trkpt><trkpt lat="37.2241929" lon="13.6680592"><ele>52.5</ele><time>2026-04-29T14:03:45.111Z</time></trkpt><trkpt lat="37.2242698" lon="13.6680593"><ele>53.0</ele><time>2026-04-29T14:03:46.111Z</time></trkpt><trkpt lat="37.2243503" lon="13.6680593"><ele>53.5</ele><time>2026-04-29T14:03:47.111Z</time></trkpt><trkpt lat="37.2244449" lon="13.6680706"><ele>54.0</ele><time>2026-04-29T14:03:48.11Z</time></trkpt><trkpt lat="37.2245314" lon="13.6680784"><ele>54.0</ele><time>2026-04-29T14:03:49.112Z</time></trkpt><trkpt lat="37.2246314" lon="13.6680931"><ele>54.00000000000001</ele><time>2026-04-29T14:03:50.111Z</time></trkpt><trkpt lat="37.2247317" lon="13.668109"><ele>54.00000000000001</ele><time>2026-04-29T14:03:51.111Z</time></trkpt><trkpt lat="37.224822" lon="13.6681202"><ele>54.0</ele><time>2026-04-29T14:03:52.112Z</time></trkpt><trkpt lat="37.224904" lon="13.6681232"><ele>54.0</ele><time>2026-04-29T14:03:53.112Z</time></trkpt><trkpt lat="37.2249793" lon="13.6681057"><ele>54.42857142857143</ele><time>2026-04-29T14:03:54.11Z</time></trkpt><trkpt lat="37.2250487" lon="13.6680742"><ele>54.857142857142854</ele><time>2026-04-29T14:03:55.112Z</time></trkpt><trkpt lat="37.2251182" lon="13.6680382"><ele>55.285714285714285</ele><time>2026-04-29T14:03:56.112Z</time></trkpt><trkpt lat="37.2251711" lon="13.6679733"><ele>55.71428571428571</ele><time>2026-04-29T14:03:57.112Z</time></trkpt><trkpt lat="37.2252193" lon="13.6679111"><ele>56.14285714285714</ele><time>2026-04-29T14:03:58.112Z</time></trkpt><trkpt lat="37.2252665" lon="13.6678488"><ele>56.57142857142857</ele><time>2026-04-29T14:03:59.112Z</time></trkpt><trkpt lat="37.225312" lon="13.6677774"><ele>57.0</ele><time>2026-04-29T14:04:00.11Z</time></trkpt><trkpt lat="37.2253605" lon="13.6677182"><ele>57.0</ele><time>2026-04-29T14:04:01.111Z</time></trkpt><trkpt lat="37.2254377" lon="13.667643"><ele>57.0</ele><time>2026-04-29T14:04:03.112Z</time></trkpt><trkpt lat="37.2255001" lon="13.6675764"><ele>57.0</ele><time>2026-04-29T14:04:06.112Z</time></trkpt><trkpt lat="37.2255497" lon="13.6674899"><ele>57.0</ele><time>2026-04-29T14:04:08.111Z</time></trkpt><trkpt lat="37.2255786" lon="13.6674004"><ele>57.0</ele><time>2026-04-29T14:04:09.111Z</time></trkpt><trkpt lat="37.2256139" lon="13.6672961"><ele>57.0</ele><time>2026-04-29T14:04:10.113Z</time></trkpt><trkpt lat="37.2256555" lon="13.6671685"><ele>58.25</ele><time>2026-04-29T14:04:11.111Z</time></trkpt><trkpt lat="37.2257031" lon="13.6670102"><ele>59.5</ele><time>2026-04-29T14:04:12.111Z</time></trkpt><trkpt lat="37.2257522" lon="13.6668464"><ele>60.75</ele><time>2026-04-29T14:04:13.112Z</time></trkpt><trkpt lat="37.2258012" lon="13.6666692"><ele>62.0</ele><time>2026-04-29T14:04:14.113Z</time></trkpt><trkpt lat="37.2258561" lon="13.6664768"><ele>62.0</ele><time>2026-04-29T14:04:15.11Z</time></trkpt><trkpt lat="37.2259098" lon="13.6662728"><ele>62.0</ele><time>2026-04-29T14:04:16.111Z</time></trkpt><trkpt lat="37.2259659" lon="13.6660641"><ele>62.0</ele><time>2026-04-29T14:04:17.112Z</time></trkpt><trkpt lat="37.2260149" lon="13.6658689"><ele>62.25</ele><time>2026-04-29T14:04:18.111Z</time></trkpt><trkpt lat="37.2260646" lon="13.6657083"><ele>62.5</ele><time>2026-04-29T14:04:19.111Z</time></trkpt><trkpt lat="37.2261083" lon="13.6655439"><ele>62.75</ele><time>2026-04-29T14:04:20.111Z</time></trkpt><trkpt lat="37.2261467" lon="13.6653827"><ele>63.0</ele><time>2026-04-29T14:04:21.111Z</time></trkpt><trkpt lat="37.2261931" lon="13.6652431"><ele>63.333333333333336</ele><time>2026-04-29T14:04:22.11Z</time></trkpt><trkpt lat="37.2262391" lon="13.6651299"><ele>63.66666666666667</ele><time>2026-04-29T14:04:23.11Z</time></trkpt><trkpt lat="37.2262866" lon="13.6650487"><ele>64.0</ele><time>2026-04-29T14:04:24.11Z</time></trkpt><trkpt lat="37.22636" lon="13.6650323"><ele>64.33333333333334</ele><time>2026-04-29T14:04:25.11Z</time></trkpt><trkpt lat="37.2264416" lon="13.6650148"><ele>64.66666666666667</ele><time>2026-04-29T14:04:26.111Z</time></trkpt><trkpt lat="37.2265267" lon="13.6650186"><ele>65.0</ele><time>2026-04-29T14:04:27.111Z</time></trkpt><trkpt lat="37.2266204" lon="13.6650459"><ele>65.6</ele><time>2026-04-29T14:04:28.111Z</time></trkpt><trkpt lat="37.2267107" lon="13.6650943"><ele>66.2</ele><time>2026-04-29T14:04:29.111Z</time></trkpt><trkpt lat="37.2268065" lon="13.665168"><ele>66.8</ele><time>2026-04-29T14:04:30.112Z</time></trkpt><trkpt lat="37.2268948" lon="13.6652454"><ele>67.4</ele><time>2026-04-29T14:04:31.111Z</time></trkpt><trkpt lat="37.2269854" lon="13.6653299"><ele>68.0</ele><time>2026-04-29T14:04:32.111Z</time></trkpt><trkpt lat="37.2270815" lon="13.6654135"><ele>68.0</ele><time>2026-04-29T14:04:33.112Z</time></trkpt><trkpt lat="37.2271712" lon="13.6655078"><ele>68.0</ele><time>2026-04-29T14:04:34.112Z</time></trkpt><trkpt lat="37.2272752" lon="13.6655946"><ele>68.0</ele><time>2026-04-29T14:04:35.111Z</time></trkpt><trkpt lat="37.2273594" lon="13.6656877"><ele>68.0</ele><time>2026-04-29T14:04:36.111Z</time></trkpt><trkpt lat="37.2274573" lon="13.6657776"><ele>69.75</ele><time>2026-04-29T14:04:37.111Z</time></trkpt><trkpt lat="37.2275521" lon="13.6658653"><ele>71.5</ele><time>2026-04-29T14:04:38.111Z</time></trkpt><trkpt lat="37.2276498" lon="13.6659534"><ele>73.25</ele><time>2026-04-29T14:04:39.111Z</time></trkpt><trkpt lat="37.2277376" lon="13.6660359"><ele>75.0</ele><time>2026-04-29T14:04:40.111Z</time></trkpt><trkpt lat="37.2278311" lon="13.6661092"><ele>74.8</ele><time>2026-04-29T14:04:41.11Z</time></trkpt><trkpt lat="37.2279264" lon="13.6661545"><ele>74.6</ele><time>2026-04-29T14:04:42.11Z</time></trkpt><trkpt lat="37.2280268" lon="13.6661924"><ele>74.4</ele><time>2026-04-29T14:04:43.112Z</time></trkpt><trkpt lat="37.2281253" lon="13.6662285"><ele>74.2</ele><time>2026-04-29T14:04:44.111Z</time></trkpt><trkpt lat="37.2282173" lon="13.6662661"><ele>74.0</ele><time>2026-04-29T14:04:45.111Z</time></trkpt><trkpt lat="37.2283159" lon="13.6663132"><ele>75.0</ele><time>2026-04-29T14:04:46.111Z</time></trkpt><trkpt lat="37.2284147" lon="13.6663505"><ele>76.0</ele><time>2026-04-29T14:04:47.111Z</time></trkpt><trkpt lat="37.2285136" lon="13.6663833"><ele>77.0</ele><time>2026-04-29T14:04:48.112Z</time></trkpt><trkpt lat="37.2286113" lon="13.6664157"><ele>78.0</ele><time>2026-04-29T14:04:49.111Z</time></trkpt><trkpt lat="37.228711" lon="13.6664523"><ele>79.0</ele><time>2026-04-29T14:04:50.11Z</time></trkpt><trkpt lat="37.2288134" lon="13.6664951"><ele>79.0</ele><time>2026-04-29T14:04:51.112Z</time></trkpt><trkpt lat="37.2289194" lon="13.6665372"><ele>79.0</ele><time>2026-04-29T14:04:52.112Z</time></trkpt><trkpt lat="37.2290219" lon="13.6665769"><ele>79.0</ele><time>2026-04-29T14:04:53.11Z</time></trkpt><trkpt lat="37.2291242" lon="13.6666146"><ele>79.0</ele><time>2026-04-29T14:04:54.111Z</time></trkpt><trkpt lat="37.2292225" lon="13.6666591"><ele>79.0</ele><time>2026-04-29T14:04:55.112Z</time></trkpt><trkpt lat="37.2293278" lon="13.6666991"><ele>79.2</ele><time>2026-04-29T14:04:56.112Z</time></trkpt><trkpt lat="37.2294214" lon="13.6667413"><ele>79.4</ele><time>2026-04-29T14:04:57.111Z</time></trkpt><trkpt lat="37.2295211" lon="13.6667861"><ele>79.6</ele><time>2026-04-29T14:04:58.111Z</time></trkpt><trkpt lat="37.2296145" lon="13.6668239"><ele>79.8</ele><time>2026-04-29T14:04:59.111Z</time></trkpt><trkpt lat="37.229709" lon="13.666866"><ele>80.0</ele><time>2026-04-29T14:05:00.111Z</time></trkpt><trkpt lat="37.229807" lon="13.6669077"><ele>80.5</ele><time>2026-04-29T14:05:01.11Z</time></trkpt><trkpt lat="37.2299001" lon="13.6669491"><ele>81.0</ele><time>2026-04-29T14:05:02.11Z</time></trkpt><trkpt lat="37.2299892" lon="13.6669801"><ele>81.5</ele><time>2026-04-29T14:05:03.11Z</time></trkpt><trkpt lat="37.2300694" lon="13.6670106"><ele>82.0</ele><time>2026-04-29T14:05:04.111Z</time></trkpt><trkpt lat="37.230141" lon="13.6670408"><ele>82.5</ele><time>2026-04-29T14:05:05.111Z</time></trkpt><trkpt lat="37.230207" lon="13.6670696"><ele>83.0</ele><time>2026-04-29T14:05:06.112Z</time></trkpt><trkpt lat="37.2302718" lon="13.6670966"><ele>83.0</ele><time>2026-04-29T14:05:07.112Z</time></trkpt><trkpt lat="37.2303376" lon="13.6671216"><ele>83.0</ele><time>2026-04-29T14:05:08.11Z</time></trkpt><trkpt lat="37.2304459" lon="13.6671694"><ele>83.0</ele><time>2026-04-29T14:05:10.11Z</time></trkpt><trkpt lat="37.2305642" lon="13.6672079"><ele>83.0</ele><time>2026-04-29T14:05:12.112Z</time></trkpt><trkpt lat="37.230629" lon="13.6672302"><ele>83.0</ele><time>2026-04-29T14:05:13.113Z</time></trkpt><trkpt lat="37.2307433" lon="13.6672692"><ele>82.4</ele><time>2026-04-29T14:05:15.111Z</time></trkpt><trkpt lat="37.2308427" lon="13.667305"><ele>81.80000000000001</ele><time>2026-04-29T14:05:17.11Z</time></trkpt><trkpt lat="37.2309477" lon="13.667346"><ele>81.2</ele><time>2026-04-29T14:05:19.11Z</time></trkpt><trkpt lat="37.2310576" lon="13.6674179"><ele>80.6</ele><time>2026-04-29T14:05:21.111Z</time></trkpt><trkpt lat="37.2311196" lon="13.6674654"><ele>80.0</ele><time>2026-04-29T14:05:22.112Z</time></trkpt><trkpt lat="37.2311893" lon="13.6675184"><ele>80.0</ele><time>2026-04-29T14:05:23.111Z</time></trkpt><trkpt lat="37.2312613" lon="13.6675702"><ele>80.0</ele><time>2026-04-29T14:05:24.11Z</time></trkpt><trkpt lat="37.2313291" lon="13.6676167"><ele>80.0</ele><time>2026-04-29T14:05:25.11Z</time></trkpt><trkpt lat="37.2314091" lon="13.6676635"><ele>80.0</ele><time>2026-04-29T14:05:26.112Z</time></trkpt><trkpt lat="37.2314838" lon="13.6677077"><ele>80.0</ele><time>2026-04-29T14:05:27.111Z</time></trkpt><trkpt lat="37.2315541" lon="13.667753"><ele>80.0</ele><time>2026-04-29T14:05:28.112Z</time></trkpt><trkpt lat="37.2316251" lon="13.6677968"><ele>79.71428571428571</ele><time>2026-04-29T14:05:29.112Z</time></trkpt><trkpt lat="37.2316972" lon="13.6678431"><ele>79.42857142857143</ele><time>2026-04-29T14:05:30.111Z</time></trkpt><trkpt lat="37.2317671" lon="13.6678877"><ele>79.14285714285714</ele><time>2026-04-29T14:05:31.111Z</time></trkpt><trkpt lat="37.231834" lon="13.6679332"><ele>78.85714285714286</ele><time>2026-04-29T14:05:32.111Z</time></trkpt><trkpt lat="37.2318919" lon="13.6679746"><ele>78.57142857142857</ele><time>2026-04-29T14:05:33.112Z</time></trkpt><trkpt lat="37.231948" lon="13.6680176"><ele>78.28571428571429</ele><time>2026-04-29T14:05:34.11Z</time></trkpt><trkpt lat="37.2320069" lon="13.6680571"><ele>78.0</ele><time>2026-04-29T14:05:35.111Z</time></trkpt><trkpt lat="37.2321097" lon="13.668117"><ele>78.0</ele><time>2026-04-29T14:05:37.111Z</time></trkpt><trkpt lat="37.2321669" lon="13.6681548"><ele>78.0</ele><time>2026-04-29T14:05:38.112Z</time></trkpt><trkpt lat="37.2322352" lon="13.6682012"><ele>78.0</ele><time>2026-04-29T14:05:39.111Z</time></trkpt><trkpt lat="37.2323125" lon="13.6682496"><ele>78.0</ele><time>2026-04-29T14:05:40.111Z</time></trkpt><trkpt lat="37.2323829" lon="13.6683"><ele>78.0</ele><time>2026-04-29T14:05:41.11Z</time></trkpt><trkpt lat="37.2324522" lon="13.6683472"><ele>78.0</ele><time>2026-04-29T14:05:42.11Z</time></trkpt><trkpt lat="37.2325211" lon="13.6683915"><ele>77.66666666666667</ele><time>2026-04-29T14:05:43.11Z</time></trkpt><trkpt lat="37.2325899" lon="13.6684303"><ele>77.33333333333333</ele><time>2026-04-29T14:05:44.11Z</time></trkpt><trkpt lat="37.2326624" lon="13.6684662"><ele>77.0</ele><time>2026-04-29T14:05:45.112Z</time></trkpt><trkpt lat="37.2327365" lon="13.668504"><ele>76.66666666666666</ele><time>2026-04-29T14:05:46.11Z</time></trkpt><trkpt lat="37.2328088" lon="13.6685217"><ele>76.33333333333333</ele><time>2026-04-29T14:05:47.11Z</time></trkpt><trkpt lat="37.2328853" lon="13.6685404"><ele>76.0</ele><time>2026-04-29T14:05:48.111Z</time></trkpt><trkpt lat="37.2329612" lon="13.6685561"><ele>76.0</ele><time>2026-04-29T14:05:49.112Z</time></trkpt><trkpt lat="37.2330371" lon="13.6685862"><ele>76.0</ele><time>2026-04-29T14:05:50.112Z</time></trkpt><trkpt lat="37.2331113" lon="13.6686053"><ele>76.0</ele><time>2026-04-29T14:05:51.11Z</time></trkpt><trkpt lat="37.2331861" lon="13.6686262"><ele>76.0</ele><time>2026-04-29T14:05:52.111Z</time></trkpt><trkpt lat="37.2332684" lon="13.668644"><ele>76.0</ele><time>2026-04-29T14:05:53.111Z</time></trkpt><trkpt lat="37.2333364" lon="13.6686582"><ele>76.0</ele><time>2026-04-29T14:05:54.112Z</time></trkpt><trkpt lat="37.233407" lon="13.6686744"><ele>76.28571428571428</ele><time>2026-04-29T14:05:55.112Z</time></trkpt><trkpt lat="37.2334797" lon="13.6687014"><ele>76.57142857142858</ele><time>2026-04-29T14:05:56.111Z</time></trkpt><trkpt lat="37.2335496" lon="13.6687265"><ele>76.85714285714286</ele><time>2026-04-29T14:05:57.112Z</time></trkpt><trkpt lat="37.2336181" lon="13.6687461"><ele>77.14285714285714</ele><time>2026-04-29T14:05:58.112Z</time></trkpt><trkpt lat="37.2336862" lon="13.668773"><ele>77.42857142857142</ele><time>2026-04-29T14:05:59.111Z</time></trkpt><trkpt lat="37.2337522" lon="13.6688077"><ele>77.71428571428572</ele><time>2026-04-29T14:06:00.11Z</time></trkpt><trkpt lat="37.2338177" lon="13.6688435"><ele>78.0</ele><time>2026-04-29T14:06:01.111Z</time></trkpt><trkpt lat="37.2338746" lon="13.6688827"><ele>78.0</ele><time>2026-04-29T14:06:02.111Z</time></trkpt><trkpt lat="37.2339423" lon="13.6689144"><ele>78.0</ele><time>2026-04-29T14:06:03.11Z</time></trkpt><trkpt lat="37.2340055" lon="13.668941"><ele>78.0</ele><time>2026-04-29T14:06:04.11Z</time></trkpt><trkpt lat="37.2340804" lon="13.6689704"><ele>78.0</ele><time>2026-04-29T14:06:05.113Z</time></trkpt><trkpt lat="37.2341493" lon="13.668999"><ele>78.0</ele><time>2026-04-29T14:06:06.111Z</time></trkpt><trkpt lat="37.2342181" lon="13.6690348"><ele>78.0</ele><time>2026-04-29T14:06:07.112Z</time></trkpt><trkpt lat="37.2342855" lon="13.6690708"><ele>78.0</ele><time>2026-04-29T14:06:08.112Z</time></trkpt><trkpt lat="37.2343505" lon="13.6691061"><ele>77.83333333333333</ele><time>2026-04-29T14:06:09.112Z</time></trkpt><trkpt lat="37.2344586" lon="13.6691619"><ele>77.66666666666667</ele><time>2026-04-29T14:06:11.111Z</time></trkpt><trkpt lat="37.2345147" lon="13.6691981"><ele>77.5</ele><time>2026-04-29T14:06:12.112Z</time></trkpt><trkpt lat="37.2345836" lon="13.6692355"><ele>77.33333333333334</ele><time>2026-04-29T14:06:13.111Z</time></trkpt><trkpt lat="37.2346568" lon="13.6692772"><ele>77.16666666666667</ele><time>2026-04-29T14:06:14.11Z</time></trkpt><trkpt lat="37.2347327" lon="13.6693193"><ele>77.0</ele><time>2026-04-29T14:06:15.111Z</time></trkpt><trkpt lat="37.2348024" lon="13.6693636"><ele>77.0</ele><time>2026-04-29T14:06:16.112Z</time></trkpt><trkpt lat="37.2348744" lon="13.6693951"><ele>77.0</ele><time>2026-04-29T14:06:17.111Z</time></trkpt><trkpt lat="37.2349444" lon="13.6694333"><ele>77.0</ele><time>2026-04-29T14:06:18.111Z</time></trkpt><trkpt lat="37.235067" lon="13.6694944"><ele>77.0</ele><time>2026-04-29T14:06:20.111Z</time></trkpt><trkpt lat="37.2351376" lon="13.6695255"><ele>77.0</ele><time>2026-04-29T14:06:21.11Z</time></trkpt><trkpt lat="37.2352008" lon="13.6695616"><ele>77.0</ele><time>2026-04-29T14:06:22.112Z</time></trkpt><trkpt lat="37.2352679" lon="13.6696028"><ele>77.5</ele><time>2026-04-29T14:06:23.11Z</time></trkpt><trkpt lat="37.2353365" lon="13.6696396"><ele>78.0</ele><time>2026-04-29T14:06:24.112Z</time></trkpt><trkpt lat="37.235411" lon="13.6696721"><ele>78.5</ele><time>2026-04-29T14:06:25.11Z</time></trkpt><trkpt lat="37.2354778" lon="13.6697112"><ele>79.0</ele><time>2026-04-29T14:06:26.112Z</time></trkpt><trkpt lat="37.2355565" lon="13.6697492"><ele>79.5</ele><time>2026-04-29T14:06:27.111Z</time></trkpt><trkpt lat="37.2356339" lon="13.6697942"><ele>80.0</ele><time>2026-04-29T14:06:28.11Z</time></trkpt><trkpt lat="37.2357211" lon="13.66984"><ele>80.2</ele><time>2026-04-29T14:06:29.11Z</time></trkpt><trkpt lat="37.2358159" lon="13.6698803"><ele>80.4</ele><time>2026-04-29T14:06:30.111Z</time></trkpt><trkpt lat="37.2359121" lon="13.6699338"><ele>80.6</ele><time>2026-04-29T14:06:31.11Z</time></trkpt><trkpt lat="37.2360029" lon="13.6699889"><ele>80.8</ele><time>2026-04-29T14:06:32.111Z</time></trkpt><trkpt lat="37.2361142" lon="13.6700515"><ele>81.0</ele><time>2026-04-29T14:06:33.111Z</time></trkpt><trkpt lat="37.2362264" lon="13.6701076"><ele>81.0</ele><time>2026-04-29T14:06:34.11Z</time></trkpt><trkpt lat="37.2363353" lon="13.6701672"><ele>81.0</ele><time>2026-04-29T14:06:35.11Z</time></trkpt><trkpt lat="37.2364363" lon="13.6702272"><ele>81.0</ele><time>2026-04-29T14:06:36.111Z</time></trkpt><trkpt lat="37.2365188" lon="13.6702807"><ele>81.0</ele><time>2026-04-29T14:06:37.112Z</time></trkpt><trkpt lat="37.2365944" lon="13.670334"><ele>81.0</ele><time>2026-04-29T14:06:38.111Z</time></trkpt><trkpt lat="37.2366743" lon="13.6703778"><ele>81.14285714285714</ele><time>2026-04-29T14:06:39.11Z</time></trkpt><trkpt lat="37.2367462" lon="13.6704226"><ele>81.28571428571428</ele><time>2026-04-29T14:06:40.112Z</time></trkpt><trkpt lat="37.2368098" lon="13.6704677"><ele>81.42857142857142</ele><time>2026-04-29T14:06:41.11Z</time></trkpt><trkpt lat="37.2368808" lon="13.6704986"><ele>81.57142857142857</ele><time>2026-04-29T14:06:42.111Z</time></trkpt><trkpt lat="37.2369419" lon="13.6705266"><ele>81.71428571428571</ele><time>2026-04-29T14:06:43.11Z</time></trkpt><trkpt lat="37.2370203" lon="13.6705552"><ele>81.85714285714285</ele><time>2026-04-29T14:06:44.111Z</time></trkpt><trkpt lat="37.237084" lon="13.6705903"><ele>82.0</ele><time>2026-04-29T14:06:45.111Z</time></trkpt><trkpt lat="37.2371488" lon="13.6706437"><ele>82.0</ele><time>2026-04-29T14:06:46.111Z</time></trkpt><trkpt lat="37.237211" lon="13.6706951"><ele>82.0</ele><time>2026-04-29T14:06:47.11Z</time></trkpt><trkpt lat="37.2372854" lon="13.6707302"><ele>82.0</ele><time>2026-04-29T14:06:48.11Z</time></trkpt><trkpt lat="37.23736" lon="13.6707695"><ele>82.0</ele><time>2026-04-29T14:06:49.111Z</time></trkpt><trkpt lat="37.2374365" lon="13.6708205"><ele>82.0</ele><time>2026-04-29T14:06:50.11Z</time></trkpt><trkpt lat="37.2374994" lon="13.6708665"><ele>82.0</ele><time>2026-04-29T14:06:51.111Z</time></trkpt><trkpt lat="37.2375677" lon="13.6709064"><ele>81.5</ele><time>2026-04-29T14:06:52.112Z</time></trkpt><trkpt lat="37.2376321" lon="13.6709479"><ele>81.0</ele><time>2026-04-29T14:06:53.112Z</time></trkpt><trkpt lat="37.2377409" lon="13.6710285"><ele>80.5</ele><time>2026-04-29T14:06:55.111Z</time></trkpt><trkpt lat="37.237798" lon="13.6710663"><ele>80.0</ele><time>2026-04-29T14:06:56.111Z</time></trkpt><trkpt lat="37.2378543" lon="13.6711063"><ele>79.5</ele><time>2026-04-29T14:06:57.11Z</time></trkpt><trkpt lat="37.2379162" lon="13.6711333"><ele>79.0</ele><time>2026-04-29T14:06:58.11Z</time></trkpt><trkpt lat="37.238023" lon="13.6712002"><ele>79.2</ele><time>2026-04-29T14:07:00.112Z</time></trkpt><trkpt lat="37.2381365" lon="13.6712509"><ele>79.4</ele><time>2026-04-29T14:07:02.111Z</time></trkpt><trkpt lat="37.2382414" lon="13.6713122"><ele>79.6</ele><time>2026-04-29T14:07:04.111Z</time></trkpt><trkpt lat="37.238311" lon="13.6713706"><ele>79.8</ele><time>2026-04-29T14:07:06.111Z</time></trkpt><trkpt lat="37.2383818" lon="13.6714165"><ele>80.0</ele><time>2026-04-29T14:07:08.112Z</time></trkpt><trkpt lat="37.238452" lon="13.6714744"><ele>80.0</ele><time>2026-04-29T14:07:10.111Z</time></trkpt><trkpt lat="37.2385242" lon="13.6715305"><ele>80.0</ele><time>2026-04-29T14:07:12.112Z</time></trkpt><trkpt lat="37.2386038" lon="13.6715814"><ele>80.0</ele><time>2026-04-29T14:07:14.112Z</time></trkpt><trkpt lat="37.2386822" lon="13.6716315"><ele>80.0</ele><time>2026-04-29T14:07:16.111Z</time></trkpt><trkpt lat="37.2387728" lon="13.671682"><ele>80.0</ele><time>2026-04-29T14:07:18.11Z</time></trkpt><trkpt lat="37.238896" lon="13.6717354"><ele>80.0</ele><time>2026-04-29T14:07:20.111Z</time></trkpt><trkpt lat="37.2389564" lon="13.6717685"><ele>80.0</ele><time>2026-04-29T14:07:21.11Z</time></trkpt><trkpt lat="37.2390534" lon="13.6718095"><ele>80.0</ele><time>2026-04-29T14:07:23.111Z</time></trkpt><trkpt lat="37.2391312" lon="13.671851"><ele>80.0</ele><time>2026-04-29T14:07:25.11Z</time></trkpt><trkpt lat="37.2391964" lon="13.6718967"><ele>80.0</ele><time>2026-04-29T14:07:27.111Z</time></trkpt><trkpt lat="37.2392795" lon="13.6719324"><ele>80.0</ele><time>2026-04-29T14:07:29.111Z</time></trkpt><trkpt lat="37.2393946" lon="13.671962"><ele>79.71428571428571</ele><time>2026-04-29T14:07:31.11Z</time></trkpt><trkpt lat="37.2394666" lon="13.6719897"><ele>79.42857142857143</ele><time>2026-04-29T14:07:32.111Z</time></trkpt><trkpt lat="37.2395283" lon="13.6720084"><ele>79.14285714285714</ele><time>2026-04-29T14:07:33.11Z</time></trkpt><trkpt lat="37.2395915" lon="13.672037"><ele>78.85714285714286</ele><time>2026-04-29T14:07:34.111Z</time></trkpt><trkpt lat="37.2396519" lon="13.6720632"><ele>78.57142857142857</ele><time>2026-04-29T14:07:35.111Z</time></trkpt><trkpt lat="37.2397076" lon="13.6721017"><ele>78.28571428571429</ele><time>2026-04-29T14:07:36.111Z</time></trkpt><trkpt lat="37.2397732" lon="13.6721415"><ele>78.0</ele><time>2026-04-29T14:07:37.111Z</time></trkpt><trkpt lat="37.2398348" lon="13.6721747"><ele>77.4</ele><time>2026-04-29T14:07:38.111Z</time></trkpt><trkpt lat="37.2398947" lon="13.6722138"><ele>76.8</ele><time>2026-04-29T14:07:39.112Z</time></trkpt><trkpt lat="37.2400111" lon="13.6722811"><ele>76.2</ele><time>2026-04-29T14:07:41.11Z</time></trkpt><trkpt lat="37.240097" lon="13.6723302"><ele>75.6</ele><time>2026-04-29T14:07:43.11Z</time></trkpt><trkpt lat="37.2402089" lon="13.6723813"><ele>75.0</ele><time>2026-04-29T14:07:45.11Z</time></trkpt><trkpt lat="37.2403176" lon="13.6724275"><ele>75.0</ele><time>2026-04-29T14:07:47.111Z</time></trkpt><trkpt lat="37.2404283" lon="13.6724738"><ele>75.0</ele><time>2026-04-29T14:07:49.11Z</time></trkpt><trkpt lat="37.2405252" lon="13.6725255"><ele>75.0</ele><time>2026-04-29T14:07:51.111Z</time></trkpt><trkpt lat="37.2405963" lon="13.6725561"><ele>75.0</ele><time>2026-04-29T14:07:53.111Z</time></trkpt><trkpt lat="37.2406723" lon="13.6725959"><ele>75.0</ele><time>2026-04-29T14:07:55.111Z</time></trkpt><trkpt lat="37.2407483" lon="13.6726484"><ele>74.4</ele><time>2026-04-29T14:07:57.11Z</time></trkpt><trkpt lat="37.2408287" lon="13.6726949"><ele>73.8</ele><time>2026-04-29T14:07:59.109Z</time></trkpt><trkpt lat="37.2409238" lon="13.672725"><ele>73.2</ele><time>2026-04-29T14:08:01.111Z</time></trkpt><trkpt lat="37.24101" lon="13.672772"><ele>72.6</ele><time>2026-04-29T14:08:03.111Z</time></trkpt><trkpt lat="37.2410976" lon="13.6728238"><ele>72.0</ele><time>2026-04-29T14:08:05.11Z</time></trkpt><trkpt lat="37.2412039" lon="13.6728853"><ele>72.0</ele><time>2026-04-29T14:08:07.111Z</time></trkpt><trkpt lat="37.2413209" lon="13.6729461"><ele>72.0</ele><time>2026-04-29T14:08:09.11Z</time></trkpt><trkpt lat="37.2413909" lon="13.6729816"><ele>72.0</ele><time>2026-04-29T14:08:10.11Z</time></trkpt><trkpt lat="37.2414539" lon="13.673023"><ele>72.0</ele><time>2026-04-29T14:08:11.111Z</time></trkpt><trkpt lat="37.2415118" lon="13.6730615"><ele>72.0</ele><time>2026-04-29T14:08:12.111Z</time></trkpt><trkpt lat="37.2416146" lon="13.6731282"><ele>70.66666666666667</ele><time>2026-04-29T14:08:14.111Z</time></trkpt><trkpt lat="37.2416711" lon="13.6731999"><ele>69.33333333333333</ele><time>2026-04-29T14:08:16.111Z</time></trkpt><trkpt lat="37.2417315" lon="13.6732421"><ele>68.0</ele><time>2026-04-29T14:08:19.11Z</time></trkpt><trkpt lat="37.2417947" lon="13.6732727"><ele>66.66666666666666</ele><time>2026-04-29T14:08:30.111Z</time></trkpt><trkpt lat="37.2418826" lon="13.6732661"><ele>65.33333333333333</ele><time>2026-04-29T14:08:32.111Z</time></trkpt><trkpt lat="37.2419508" lon="13.673236"><ele>64.0</ele><time>2026-04-29T14:08:33.11Z</time></trkpt><trkpt lat="37.2420351" lon="13.6731872"><ele>64.0</ele><time>2026-04-29T14:08:34.112Z</time></trkpt><trkpt lat="37.2421355" lon="13.6731195"><ele>64.0</ele><time>2026-04-29T14:08:35.11Z</time></trkpt><trkpt lat="37.2422413" lon="13.6730462"><ele>64.0</ele><time>2026-04-29T14:08:36.11Z</time></trkpt><trkpt lat="37.2423667" lon="13.672952"><ele>64.0</ele><time>2026-04-29T14:08:37.111Z</time></trkpt><trkpt lat="37.2425033" lon="13.6728529"><ele>62.5</ele><time>2026-04-29T14:08:38.111Z</time></trkpt><trkpt lat="37.2426252" lon="13.6727592"><ele>61.0</ele><time>2026-04-29T14:08:39.112Z</time></trkpt><trkpt lat="37.2427417" lon="13.6726698"><ele>59.5</ele><time>2026-04-29T14:08:40.111Z</time></trkpt><trkpt lat="37.2428503" lon="13.6725915"><ele>58.0</ele><time>2026-04-29T14:08:41.111Z</time></trkpt><trkpt lat="37.2429404" lon="13.6725347"><ele>57.99999999999999</ele><time>2026-04-29T14:08:42.11Z</time></trkpt><trkpt lat="37.2430247" lon="13.6724962"><ele>58.0</ele><time>2026-04-29T14:08:43.11Z</time></trkpt><trkpt lat="37.2430976" lon="13.6724792"><ele>58.0</ele><time>2026-04-29T14:08:44.111Z</time></trkpt><trkpt lat="37.2431709" lon="13.672517"><ele>58.0</ele><time>2026-04-29T14:08:45.11Z</time></trkpt><trkpt lat="37.2432492" lon="13.6725804"><ele>57.99999999999999</ele><time>2026-04-29T14:08:46.111Z</time></trkpt><trkpt lat="37.2433186" lon="13.6726738"><ele>58.0</ele><time>2026-04-29T14:08:47.111Z</time></trkpt><trkpt lat="37.2433995" lon="13.672778"><ele>58.666666666666664</ele><time>2026-04-29T14:08:48.111Z</time></trkpt><trkpt lat="37.2434981" lon="13.6729099"><ele>59.33333333333333</ele><time>2026-04-29T14:08:49.111Z</time></trkpt><trkpt lat="37.2436094" lon="13.6730546"><ele>60.0</ele><time>2026-04-29T14:08:50.111Z</time></trkpt><trkpt lat="37.2437197" lon="13.6732087"><ele>60.0</ele><time>2026-04-29T14:08:51.111Z</time></trkpt><trkpt lat="37.243833" lon="13.6733761"><ele>60.0</ele><time>2026-04-29T14:08:52.111Z</time></trkpt><trkpt lat="37.2439518" lon="13.6735507"><ele>60.0</ele><time>2026-04-29T14:08:53.11Z</time></trkpt><trkpt lat="37.2440737" lon="13.6737316"><ele>62.0</ele><time>2026-04-29T14:08:54.111Z</time></trkpt><trkpt lat="37.2442004" lon="13.6739091"><ele>64.0</ele><time>2026-04-29T14:08:55.111Z</time></trkpt><trkpt lat="37.2443292" lon="13.6740903"><ele>66.0</ele><time>2026-04-29T14:08:56.111Z</time></trkpt><trkpt lat="37.2444585" lon="13.6742736"><ele>67.0</ele><time>2026-04-29T14:08:57.11Z</time></trkpt><trkpt lat="37.2445814" lon="13.6744594"><ele>68.0</ele><time>2026-04-29T14:08:58.109Z</time></trkpt><trkpt lat="37.2447102" lon="13.6746506"><ele>69.0</ele><time>2026-04-29T14:08:59.111Z</time></trkpt><trkpt lat="37.2448405" lon="13.6748503"><ele>69.0</ele><time>2026-04-29T14:09:00.111Z</time></trkpt><trkpt lat="37.2449734" lon="13.6750467"><ele>69.0</ele><time>2026-04-29T14:09:01.11Z</time></trkpt><trkpt lat="37.2451094" lon="13.675244"><ele>69.0</ele><time>2026-04-29T14:09:02.11Z</time></trkpt><trkpt lat="37.2452353" lon="13.6754253"><ele>69.66666666666667</ele><time>2026-04-29T14:09:03.11Z</time></trkpt><trkpt lat="37.2453572" lon="13.6755976"><ele>70.33333333333334</ele><time>2026-04-29T14:09:04.11Z</time></trkpt><trkpt lat="37.2454707" lon="13.6757667"><ele>71.0</ele><time>2026-04-29T14:09:05.11Z</time></trkpt><trkpt lat="37.2455856" lon="13.6759348"><ele>71.0</ele><time>2026-04-29T14:09:06.11Z</time></trkpt><trkpt lat="37.2457027" lon="13.6761026"><ele>71.0</ele><time>2026-04-29T14:09:07.11Z</time></trkpt><trkpt lat="37.2458204" lon="13.6762673"><ele>71.0</ele><time>2026-04-29T14:09:08.111Z</time></trkpt><trkpt lat="37.2459425" lon="13.6764485"><ele>71.0</ele><time>2026-04-29T14:09:09.111Z</time></trkpt><trkpt lat="37.2460756" lon="13.6766305"><ele>71.0</ele><time>2026-04-29T14:09:10.11Z</time></trkpt><trkpt lat="37.2462139" lon="13.676822"><ele>71.0</ele><time>2026-04-29T14:09:11.112Z</time></trkpt><trkpt lat="37.2463518" lon="13.6770188"><ele>71.33333333333334</ele><time>2026-04-29T14:09:12.111Z</time></trkpt><trkpt lat="37.2464916" lon="13.6772201"><ele>71.66666666666667</ele><time>2026-04-29T14:09:13.11Z</time></trkpt><trkpt lat="37.2466248" lon="13.6774117"><ele>72.0</ele><time>2026-04-29T14:09:14.111Z</time></trkpt><trkpt lat="37.2467553" lon="13.6775967"><ele>72.66666666666667</ele><time>2026-04-29T14:09:15.111Z</time></trkpt><trkpt lat="37.2468832" lon="13.6777824"><ele>73.33333333333334</ele><time>2026-04-29T14:09:16.112Z</time></trkpt><trkpt lat="37.2470109" lon="13.6779665"><ele>74.0</ele><time>2026-04-29T14:09:17.11Z</time></trkpt><trkpt lat="37.2471345" lon="13.678145"><ele>74.0</ele><time>2026-04-29T14:09:18.112Z</time></trkpt><trkpt lat="37.2472563" lon="13.6783243"><ele>74.0</ele><time>2026-04-29T14:09:19.111Z</time></trkpt><trkpt lat="37.2473806" lon="13.6785025"><ele>74.0</ele><time>2026-04-29T14:09:20.111Z</time></trkpt><trkpt lat="37.2475068" lon="13.6786846"><ele>75.0</ele><time>2026-04-29T14:09:21.11Z</time></trkpt><trkpt lat="37.2476328" lon="13.6788685"><ele>76.0</ele><time>2026-04-29T14:09:22.109Z</time></trkpt><trkpt lat="37.2477612" lon="13.6790564"><ele>77.0</ele><time>2026-04-29T14:09:23.11Z</time></trkpt><trkpt lat="37.2478798" lon="13.679228"><ele>77.0</ele><time>2026-04-29T14:09:24.111Z</time></trkpt><trkpt lat="37.2479943" lon="13.6793868"><ele>77.0</ele><time>2026-04-29T14:09:25.11Z</time></trkpt><trkpt lat="37.248105" lon="13.6795407"><ele>77.0</ele><time>2026-04-29T14:09:26.111Z</time></trkpt><trkpt lat="37.2482066" lon="13.679689"><ele>77.5</ele><time>2026-04-29T14:09:27.109Z</time></trkpt><trkpt lat="37.2482951" lon="13.6798277"><ele>78.0</ele><time>2026-04-29T14:09:28.11Z</time></trkpt><trkpt lat="37.2483852" lon="13.6799669"><ele>78.5</ele><time>2026-04-29T14:09:29.11Z</time></trkpt><trkpt lat="37.2484673" lon="13.6801155"><ele>79.0</ele><time>2026-04-29T14:09:30.11Z</time></trkpt><trkpt lat="37.2485387" lon="13.6802748"><ele>79.66666666666666</ele><time>2026-04-29T14:09:31.111Z</time></trkpt><trkpt lat="37.248601" lon="13.6804489"><ele>80.33333333333333</ele><time>2026-04-29T14:09:32.109Z</time></trkpt><trkpt lat="37.2486505" lon="13.6806394"><ele>81.0</ele><time>2026-04-29T14:09:33.11Z</time></trkpt><trkpt lat="37.2486938" lon="13.6808451"><ele>81.0</ele><time>2026-04-29T14:09:34.111Z</time></trkpt><trkpt lat="37.2487268" lon="13.6810596"><ele>81.0</ele><time>2026-04-29T14:09:35.11Z</time></trkpt><trkpt lat="37.2487454" lon="13.6812915"><ele>81.0</ele><time>2026-04-29T14:09:36.111Z</time></trkpt><trkpt lat="37.2487452" lon="13.6815241"><ele>82.0</ele><time>2026-04-29T14:09:37.111Z</time></trkpt><trkpt lat="37.2487264" lon="13.6817571"><ele>83.0</ele><time>2026-04-29T14:09:38.11Z</time></trkpt><trkpt lat="37.248695" lon="13.6819957"><ele>84.0</ele><time>2026-04-29T14:09:39.11Z</time></trkpt><trkpt lat="37.2486395" lon="13.6822288"><ele>85.33333333333333</ele><time>2026-04-29T14:09:40.111Z</time></trkpt><trkpt lat="37.2485695" lon="13.6824336"><ele>86.66666666666666</ele><time>2026-04-29T14:09:41.11Z</time></trkpt><trkpt lat="37.2484914" lon="13.6826287"><ele>88.0</ele><time>2026-04-29T14:09:42.111Z</time></trkpt><trkpt lat="37.248414" lon="13.6828197"><ele>88.33333333333333</ele><time>2026-04-29T14:09:43.11Z</time></trkpt><trkpt lat="37.2483417" lon="13.6830059"><ele>88.66666666666667</ele><time>2026-04-29T14:09:44.111Z</time></trkpt><trkpt lat="37.2482846" lon="13.6832066"><ele>89.0</ele><time>2026-04-29T14:09:45.11Z</time></trkpt><trkpt lat="37.2482257" lon="13.6834139"><ele>89.66666666666667</ele><time>2026-04-29T14:09:46.11Z</time></trkpt><trkpt lat="37.2481673" lon="13.6836192"><ele>90.33333333333333</ele><time>2026-04-29T14:09:47.11Z</time></trkpt><trkpt lat="37.2481168" lon="13.6838169"><ele>91.0</ele><time>2026-04-29T14:09:48.11Z</time></trkpt><trkpt lat="37.2480809" lon="13.6840193"><ele>89.33333333333333</ele><time>2026-04-29T14:09:49.11Z</time></trkpt><trkpt lat="37.2480447" lon="13.684225"><ele>87.66666666666667</ele><time>2026-04-29T14:09:50.109Z</time></trkpt><trkpt lat="37.2480047" lon="13.6844331"><ele>86.0</ele><time>2026-04-29T14:09:51.111Z</time></trkpt><trkpt lat="37.2479694" lon="13.6846525"><ele>86.0</ele><time>2026-04-29T14:09:52.112Z</time></trkpt><trkpt lat="37.2479467" lon="13.6848777"><ele>86.0</ele><time>2026-04-29T14:09:53.112Z</time></trkpt><trkpt lat="37.2479308" lon="13.6850991"><ele>86.0</ele><time>2026-04-29T14:09:54.11Z</time></trkpt><trkpt lat="37.2479176" lon="13.6853191"><ele>86.66666666666667</ele><time>2026-04-29T14:09:55.11Z</time></trkpt><trkpt lat="37.2479099" lon="13.6855405"><ele>87.33333333333333</ele><time>2026-04-29T14:09:56.112Z</time></trkpt><trkpt lat="37.2479181" lon="13.6857655"><ele>88.0</ele><time>2026-04-29T14:09:57.11Z</time></trkpt><trkpt lat="37.2479432" lon="13.6859893"><ele>88.0</ele><time>2026-04-29T14:09:58.11Z</time></trkpt><trkpt lat="37.247967" lon="13.6862211"><ele>88.0</ele><time>2026-04-29T14:09:59.11Z</time></trkpt><trkpt lat="37.2479973" lon="13.6864483"><ele>88.0</ele><time>2026-04-29T14:10:00.111Z</time></trkpt><trkpt lat="37.2480384" lon="13.6866785"><ele>88.0</ele><time>2026-04-29T14:10:01.111Z</time></trkpt><trkpt lat="37.248084" lon="13.6869005"><ele>88.0</ele><time>2026-04-29T14:10:02.111Z</time></trkpt><trkpt lat="37.248138" lon="13.6871094"><ele>88.0</ele><time>2026-04-29T14:10:03.111Z</time></trkpt><trkpt lat="37.2482022" lon="13.6873191"><ele>90.0</ele><time>2026-04-29T14:10:04.11Z</time></trkpt><trkpt lat="37.2482724" lon="13.6875298"><ele>92.0</ele><time>2026-04-29T14:10:05.11Z</time></trkpt><trkpt lat="37.2483407" lon="13.6877474"><ele>94.0</ele><time>2026-04-29T14:10:06.109Z</time></trkpt><trkpt lat="37.2484081" lon="13.6879757"><ele>94.66666666666666</ele><time>2026-04-29T14:10:07.11Z</time></trkpt><trkpt lat="37.2484829" lon="13.6882114"><ele>95.33333333333333</ele><time>2026-04-29T14:10:08.11Z</time></trkpt><trkpt lat="37.2485574" lon="13.6884559"><ele>96.0</ele><time>2026-04-29T14:10:09.112Z</time></trkpt><trkpt lat="37.2486348" lon="13.6887017"><ele>96.0</ele><time>2026-04-29T14:10:10.111Z</time></trkpt><trkpt lat="37.2487153" lon="13.688951"><ele>96.0</ele><time>2026-04-29T14:10:11.11Z</time></trkpt><trkpt lat="37.2487958" lon="13.689202"><ele>96.0</ele><time>2026-04-29T14:10:12.111Z</time></trkpt><trkpt lat="37.2488737" lon="13.6894509"><ele>96.0</ele><time>2026-04-29T14:10:13.109Z</time></trkpt><trkpt lat="37.2489406" lon="13.6896829"><ele>96.0</ele><time>2026-04-29T14:10:14.11Z</time></trkpt><trkpt lat="37.2490121" lon="13.689912"><ele>96.0</ele><time>2026-04-29T14:10:15.112Z</time></trkpt><trkpt lat="37.2490809" lon="13.6901325"><ele>98.66666666666666</ele><time>2026-04-29T14:10:16.112Z</time></trkpt><trkpt lat="37.2491462" lon="13.6903499"><ele>101.33333333333333</ele><time>2026-04-29T14:10:17.111Z</time></trkpt><trkpt lat="37.2492128" lon="13.6905672"><ele>104.0</ele><time>2026-04-29T14:10:18.11Z</time></trkpt><trkpt lat="37.2492764" lon="13.6907929"><ele>104.0</ele><time>2026-04-29T14:10:19.111Z</time></trkpt><trkpt lat="37.2493444" lon="13.6910205"><ele>104.0</ele><time>2026-04-29T14:10:20.111Z</time></trkpt><trkpt lat="37.2494116" lon="13.6912471"><ele>104.0</ele><time>2026-04-29T14:10:21.111Z</time></trkpt><trkpt lat="37.2494831" lon="13.6914798"><ele>104.0</ele><time>2026-04-29T14:10:22.111Z</time></trkpt><trkpt lat="37.2495528" lon="13.6917042"><ele>104.0</ele><time>2026-04-29T14:10:23.109Z</time></trkpt><trkpt lat="37.2496193" lon="13.6919102"><ele>104.0</ele><time>2026-04-29T14:10:24.11Z</time></trkpt><trkpt lat="37.2496864" lon="13.6921056"><ele>104.0</ele><time>2026-04-29T14:10:25.109Z</time></trkpt><trkpt lat="37.2497512" lon="13.6923025"><ele>104.0</ele><time>2026-04-29T14:10:26.111Z</time></trkpt><trkpt lat="37.2498015" lon="13.6924958"><ele>104.0</ele><time>2026-04-29T14:10:27.109Z</time></trkpt><trkpt lat="37.2498549" lon="13.6926899"><ele>106.0</ele><time>2026-04-29T14:10:28.109Z</time></trkpt><trkpt lat="37.2499198" lon="13.6928876"><ele>108.0</ele><time>2026-04-29T14:10:29.109Z</time></trkpt><trkpt lat="37.2499941" lon="13.6930739"><ele>110.0</ele><time>2026-04-29T14:10:30.11Z</time></trkpt><trkpt lat="37.2500941" lon="13.6932615"><ele>110.0</ele><time>2026-04-29T14:10:31.109Z</time></trkpt><trkpt lat="37.2501952" lon="13.6934421"><ele>110.0</ele><time>2026-04-29T14:10:32.11Z</time></trkpt><trkpt lat="37.2503046" lon="13.693621"><ele>110.0</ele><time>2026-04-29T14:10:33.11Z</time></trkpt><trkpt lat="37.2504124" lon="13.6938116"><ele>109.66666666666666</ele><time>2026-04-29T14:10:34.111Z</time></trkpt><trkpt lat="37.2505153" lon="13.693998"><ele>109.33333333333334</ele><time>2026-04-29T14:10:35.11Z</time></trkpt><trkpt lat="37.2506275" lon="13.6941913"><ele>109.0</ele><time>2026-04-29T14:10:36.11Z</time></trkpt><trkpt lat="37.2507406" lon="13.6943821"><ele>112.0</ele><time>2026-04-29T14:10:37.11Z</time></trkpt><trkpt lat="37.2508539" lon="13.6945729"><ele>115.0</ele><time>2026-04-29T14:10:38.109Z</time></trkpt><trkpt lat="37.2509644" lon="13.6947623"><ele>118.0</ele><time>2026-04-29T14:10:39.111Z</time></trkpt><trkpt lat="37.2510682" lon="13.6949414"><ele>118.0</ele><time>2026-04-29T14:10:40.11Z</time></trkpt><trkpt lat="37.2511675" lon="13.6951152"><ele>118.0</ele><time>2026-04-29T14:10:41.111Z</time></trkpt><trkpt lat="37.2512587" lon="13.6952747"><ele>118.0</ele><time>2026-04-29T14:10:42.109Z</time></trkpt><trkpt lat="37.2513321" lon="13.6954406"><ele>118.25</ele><time>2026-04-29T14:10:43.11Z</time></trkpt><trkpt lat="37.2513878" lon="13.6956008"><ele>118.5</ele><time>2026-04-29T14:10:44.11Z</time></trkpt><trkpt lat="37.2514301" lon="13.6957589"><ele>118.75</ele><time>2026-04-29T14:10:45.111Z</time></trkpt><trkpt lat="37.2514674" lon="13.6959101"><ele>119.0</ele><time>2026-04-29T14:10:46.111Z</time></trkpt><trkpt lat="37.2514953" lon="13.6960582"><ele>121.80000000000001</ele><time>2026-04-29T14:10:47.11Z</time></trkpt><trkpt lat="37.2515122" lon="13.6961999"><ele>124.60000000000001</ele><time>2026-04-29T14:10:48.109Z</time></trkpt><trkpt lat="37.2515192" lon="13.6963124"><ele>127.4</ele><time>2026-04-29T14:10:49.111Z</time></trkpt><trkpt lat="37.2515266" lon="13.6964074"><ele>130.20000000000002</ele><time>2026-04-29T14:10:50.11Z</time></trkpt><trkpt lat="37.2515329" lon="13.6964917"><ele>133.0</ele><time>2026-04-29T14:10:51.111Z</time></trkpt><trkpt lat="37.251554" lon="13.696627"><ele>133.0</ele><time>2026-04-29T14:10:53.111Z</time></trkpt><trkpt lat="37.2515591" lon="13.6967114"><ele>133.0</ele><time>2026-04-29T14:10:55.11Z</time></trkpt><trkpt lat="37.2516068" lon="13.6966393"><ele>133.0</ele><time>2026-04-29T14:11:00.111Z</time></trkpt><trkpt lat="37.2515966" lon="13.6965384"><ele>133.0</ele><time>2026-04-29T14:11:01.11Z</time></trkpt><trkpt lat="37.2515741" lon="13.6964067"><ele>133.0</ele><time>2026-04-29T14:11:02.111Z</time></trkpt><trkpt lat="37.2515601" lon="13.6962742"><ele>133.0</ele><time>2026-04-29T14:11:03.11Z</time></trkpt><trkpt lat="37.2515455" lon="13.6961478"><ele>133.0</ele><time>2026-04-29T14:11:04.111Z</time></trkpt><trkpt lat="37.2515386" lon="13.6960337"><ele>133.0</ele><time>2026-04-29T14:11:05.11Z</time></trkpt><trkpt lat="37.2515297" lon="13.6959453"><ele>133.0</ele><time>2026-04-29T14:11:06.111Z</time></trkpt><trkpt lat="37.2515373" lon="13.6958599"><ele>133.0</ele><time>2026-04-29T14:11:08.11Z</time></trkpt><trkpt lat="37.2515807" lon="13.695943"><ele>133.0</ele><time>2026-04-29T14:11:12.112Z</time></trkpt><trkpt lat="37.251508" lon="13.6959531"><ele>133.0</ele><time>2026-04-29T14:11:45.11Z</time></trkpt><trkpt lat="37.2514964" lon="13.696103"><ele>133.0</ele><time>2026-04-29T14:11:47.11Z</time></trkpt><trkpt lat="37.2515042" lon="13.6962089"><ele>133.0</ele><time>2026-04-29T14:11:48.111Z</time></trkpt><trkpt lat="37.2515209" lon="13.6963448"><ele>133.0</ele><time>2026-04-29T14:11:49.109Z</time></trkpt><trkpt lat="37.251532" lon="13.6964912"><ele>133.0</ele><time>2026-04-29T14:11:50.11Z</time></trkpt><trkpt lat="37.2515478" lon="13.6966616"><ele>133.0</ele><time>2026-04-29T14:11:51.109Z</time></trkpt><trkpt lat="37.2515617" lon="13.6968307"><ele>133.0</ele><time>2026-04-29T14:11:52.11Z</time></trkpt><trkpt lat="37.2515867" lon="13.6970062"><ele>133.0</ele><time>2026-04-29T14:11:53.109Z</time></trkpt><trkpt lat="37.2516189" lon="13.6971845"><ele>133.0</ele><time>2026-04-29T14:11:54.111Z</time></trkpt><trkpt lat="37.251663" lon="13.6973538"><ele>133.0</ele><time>2026-04-29T14:11:55.11Z</time></trkpt><trkpt lat="37.2517184" lon="13.6975224"><ele>133.0</ele><time>2026-04-29T14:11:56.112Z</time></trkpt><trkpt lat="37.2517831" lon="13.6976827"><ele>133.0</ele><time>2026-04-29T14:11:57.111Z</time></trkpt><trkpt lat="37.2518648" lon="13.6978308"><ele>133.0</ele><time>2026-04-29T14:11:58.109Z</time></trkpt><trkpt lat="37.2519583" lon="13.6979843"><ele>133.0</ele><time>2026-04-29T14:11:59.111Z</time></trkpt><trkpt lat="37.2520623" lon="13.6981325"><ele>135.0</ele><time>2026-04-29T14:12:00.11Z</time></trkpt><trkpt lat="37.252188" lon="13.698287"><ele>137.0</ele><time>2026-04-29T14:12:01.11Z</time></trkpt><trkpt lat="37.2523109" lon="13.6984305"><ele>139.0</ele><time>2026-04-29T14:12:02.109Z</time></trkpt><trkpt lat="37.2524278" lon="13.6985711"><ele>136.0</ele><time>2026-04-29T14:12:03.109Z</time></trkpt><trkpt lat="37.2525325" lon="13.6987096"><ele>133.0</ele><time>2026-04-29T14:12:04.109Z</time></trkpt><trkpt lat="37.2526358" lon="13.6988375"><ele>130.0</ele><time>2026-04-29T14:12:05.111Z</time></trkpt><trkpt lat="37.2527422" lon="13.6989615"><ele>127.0</ele><time>2026-04-29T14:12:06.109Z</time></trkpt><trkpt lat="37.2528496" lon="13.6990853"><ele>127.0</ele><time>2026-04-29T14:12:07.109Z</time></trkpt><trkpt lat="37.2529531" lon="13.69921"><ele>127.0</ele><time>2026-04-29T14:12:08.11Z</time></trkpt><trkpt lat="37.2530486" lon="13.6993267"><ele>127.0</ele><time>2026-04-29T14:12:09.109Z</time></trkpt><trkpt lat="37.253136" lon="13.699449"><ele>127.0</ele><time>2026-04-29T14:12:10.11Z</time></trkpt><trkpt lat="37.2532093" lon="13.6995864"><ele>128.25</ele><time>2026-04-29T14:12:11.111Z</time></trkpt><trkpt lat="37.2532658" lon="13.6997367"><ele>129.5</ele><time>2026-04-29T14:12:12.109Z</time></trkpt><trkpt lat="37.2533149" lon="13.699902"><ele>130.75</ele><time>2026-04-29T14:12:13.11Z</time></trkpt><trkpt lat="37.2533537" lon="13.7000718"><ele>132.0</ele><time>2026-04-29T14:12:14.111Z</time></trkpt><trkpt lat="37.2533815" lon="13.7002593"><ele>132.0</ele><time>2026-04-29T14:12:15.11Z</time></trkpt><trkpt lat="37.2533938" lon="13.7004518"><ele>132.0</ele><time>2026-04-29T14:12:16.111Z</time></trkpt><trkpt lat="37.253393" lon="13.7006499"><ele>132.0</ele><time>2026-04-29T14:12:17.11Z</time></trkpt><trkpt lat="37.2533798" lon="13.7008454"><ele>132.0</ele><time>2026-04-29T14:12:18.11Z</time></trkpt><trkpt lat="37.253364" lon="13.7010376"><ele>132.0</ele><time>2026-04-29T14:12:19.11Z</time></trkpt><trkpt lat="37.2533409" lon="13.7012303"><ele>132.0</ele><time>2026-04-29T14:12:20.11Z</time></trkpt><trkpt lat="37.2533245" lon="13.7014281"><ele>132.0</ele><time>2026-04-29T14:12:21.11Z</time></trkpt><trkpt lat="37.2533064" lon="13.7016198"><ele>132.0</ele><time>2026-04-29T14:12:22.11Z</time></trkpt><trkpt lat="37.2532928" lon="13.7018171"><ele>132.0</ele><time>2026-04-29T14:12:23.11Z</time></trkpt><trkpt lat="37.2532809" lon="13.7020145"><ele>131.0</ele><time>2026-04-29T14:12:24.109Z</time></trkpt><trkpt lat="37.253262" lon="13.7022338"><ele>130.0</ele><time>2026-04-29T14:12:25.11Z</time></trkpt><trkpt lat="37.2532416" lon="13.7024562"><ele>129.0</ele><time>2026-04-29T14:12:26.11Z</time></trkpt><trkpt lat="37.2531898" lon="13.7027022"><ele>128.33333333333334</ele><time>2026-04-29T14:12:27.11Z</time></trkpt><trkpt lat="37.2531469" lon="13.7029312"><ele>127.66666666666667</ele><time>2026-04-29T14:12:28.11Z</time></trkpt><trkpt lat="37.2531012" lon="13.7031612"><ele>127.0</ele><time>2026-04-29T14:12:29.11Z</time></trkpt><trkpt lat="37.2530576" lon="13.7033777"><ele>128.66666666666669</ele><time>2026-04-29T14:12:30.11Z</time></trkpt><trkpt lat="37.2530108" lon="13.7035981"><ele>130.33333333333334</ele><time>2026-04-29T14:12:31.11Z</time></trkpt><trkpt lat="37.2529669" lon="13.7038274"><ele>132.0</ele><time>2026-04-29T14:12:32.109Z</time></trkpt><trkpt lat="37.2529229" lon="13.7040516"><ele>132.0</ele><time>2026-04-29T14:12:33.11Z</time></trkpt><trkpt lat="37.2528762" lon="13.7042652"><ele>132.0</ele><time>2026-04-29T14:12:34.11Z</time></trkpt><trkpt lat="37.2528289" lon="13.7044695"><ele>132.0</ele><time>2026-04-29T14:12:35.111Z</time></trkpt><trkpt lat="37.2527866" lon="13.7046831"><ele>131.75</ele><time>2026-04-29T14:12:36.111Z</time></trkpt><trkpt lat="37.2527488" lon="13.7048838"><ele>131.5</ele><time>2026-04-29T14:12:37.109Z</time></trkpt><trkpt lat="37.2527185" lon="13.7050681"><ele>131.25</ele><time>2026-04-29T14:12:38.109Z</time></trkpt><trkpt lat="37.2526873" lon="13.7052316"><ele>131.0</ele><time>2026-04-29T14:12:39.109Z</time></trkpt><trkpt lat="37.2526659" lon="13.7053717"><ele>131.0</ele><time>2026-04-29T14:12:40.11Z</time></trkpt><trkpt lat="37.2526537" lon="13.705499"><ele>131.0</ele><time>2026-04-29T14:12:41.11Z</time></trkpt><trkpt lat="37.2526425" lon="13.7056111"><ele>131.0</ele><time>2026-04-29T14:12:42.11Z</time></trkpt><trkpt lat="37.2526394" lon="13.7057141"><ele>131.0</ele><time>2026-04-29T14:12:43.111Z</time></trkpt><trkpt lat="37.2526386" lon="13.7058025"><ele>131.0</ele><time>2026-04-29T14:12:44.11Z</time></trkpt><trkpt lat="37.2526428" lon="13.7059495"><ele>131.0</ele><time>2026-04-29T14:12:46.11Z</time></trkpt><trkpt lat="37.2526413" lon="13.706031"><ele>131.0</ele><time>2026-04-29T14:12:47.109Z</time></trkpt><trkpt lat="37.2526173" lon="13.70618"><ele>131.0</ele><time>2026-04-29T14:12:49.109Z</time></trkpt><trkpt lat="37.2526089" lon="13.7062678"><ele>131.0</ele><time>2026-04-29T14:12:50.11Z</time></trkpt><trkpt lat="37.2525967" lon="13.706382"><ele>131.0</ele><time>2026-04-29T14:12:51.11Z</time></trkpt><trkpt lat="37.2525848" lon="13.7065168"><ele>131.0</ele><time>2026-04-29T14:12:52.11Z</time></trkpt><trkpt lat="37.2525657" lon="13.7066718"><ele>131.0</ele><time>2026-04-29T14:12:53.111Z</time></trkpt><trkpt lat="37.2525487" lon="13.7068374"><ele>131.0</ele><time>2026-04-29T14:12:54.111Z</time></trkpt><trkpt lat="37.2525257" lon="13.7069947"><ele>131.0</ele><time>2026-04-29T14:12:55.109Z</time></trkpt><trkpt lat="37.2524924" lon="13.7071368"><ele>131.0</ele><time>2026-04-29T14:12:56.109Z</time></trkpt><trkpt lat="37.2524614" lon="13.7072692"><ele>131.0</ele><time>2026-04-29T14:12:57.109Z</time></trkpt><trkpt lat="37.2524329" lon="13.707402"><ele>131.0</ele><time>2026-04-29T14:12:58.111Z</time></trkpt><trkpt lat="37.2524068" lon="13.7075428"><ele>131.0</ele><time>2026-04-29T14:12:59.11Z</time></trkpt><trkpt lat="37.2523792" lon="13.7076888"><ele>131.0</ele><time>2026-04-29T14:13:00.11Z</time></trkpt><trkpt lat="37.252358" lon="13.7078417"><ele>131.0</ele><time>2026-04-29T14:13:01.111Z</time></trkpt><trkpt lat="37.2523366" lon="13.7079975"><ele>131.0</ele><time>2026-04-29T14:13:02.11Z</time></trkpt><trkpt lat="37.252319" lon="13.7081608"><ele>131.0</ele><time>2026-04-29T14:13:03.109Z</time></trkpt><trkpt lat="37.2522981" lon="13.7083289"><ele>130.5</ele><time>2026-04-29T14:13:04.11Z</time></trkpt><trkpt lat="37.2522759" lon="13.708501"><ele>130.0</ele><time>2026-04-29T14:13:05.109Z</time></trkpt><trkpt lat="37.2522509" lon="13.7086805"><ele>129.5</ele><time>2026-04-29T14:13:06.11Z</time></trkpt><trkpt lat="37.2522215" lon="13.7088757"><ele>129.0</ele><time>2026-04-29T14:13:07.11Z</time></trkpt><trkpt lat="37.2521849" lon="13.7090703"><ele>129.0</ele><time>2026-04-29T14:13:08.11Z</time></trkpt><trkpt lat="37.2521445" lon="13.709245"><ele>129.0</ele><time>2026-04-29T14:13:09.11Z</time></trkpt><trkpt lat="37.2521078" lon="13.7094177"><ele>129.0</ele><time>2026-04-29T14:13:10.111Z</time></trkpt><trkpt lat="37.2520756" lon="13.7095881"><ele>129.0</ele><time>2026-04-29T14:13:11.11Z</time></trkpt><trkpt lat="37.2520398" lon="13.7097581"><ele>129.0</ele><time>2026-04-29T14:13:12.11Z</time></trkpt><trkpt lat="37.251999" lon="13.709926"><ele>129.0</ele><time>2026-04-29T14:13:13.109Z</time></trkpt><trkpt lat="37.2519468" lon="13.7100898"><ele>129.0</ele><time>2026-04-29T14:13:14.109Z</time></trkpt><trkpt lat="37.2518751" lon="13.7102463"><ele>129.0</ele><time>2026-04-29T14:13:15.11Z</time></trkpt><trkpt lat="37.2517954" lon="13.7104005"><ele>129.33333333333334</ele><time>2026-04-29T14:13:16.11Z</time></trkpt><trkpt lat="37.2517141" lon="13.7105573"><ele>129.66666666666669</ele><time>2026-04-29T14:13:17.111Z</time></trkpt><trkpt lat="37.2516269" lon="13.7107196"><ele>130.0</ele><time>2026-04-29T14:13:18.111Z</time></trkpt><trkpt lat="37.2515439" lon="13.7108842"><ele>130.0</ele><time>2026-04-29T14:13:19.11Z</time></trkpt><trkpt lat="37.2514708" lon="13.7110626"><ele>130.0</ele><time>2026-04-29T14:13:20.109Z</time></trkpt><trkpt lat="37.2514004" lon="13.7112321"><ele>130.0</ele><time>2026-04-29T14:13:21.111Z</time></trkpt><trkpt lat="37.2513398" lon="13.7114001"><ele>129.25</ele><time>2026-04-29T14:13:22.11Z</time></trkpt><trkpt lat="37.2512787" lon="13.7115618"><ele>128.5</ele><time>2026-04-29T14:13:23.11Z</time></trkpt><trkpt lat="37.2512163" lon="13.711717"><ele>127.75</ele><time>2026-04-29T14:13:24.109Z</time></trkpt><trkpt lat="37.2511649" lon="13.7118818"><ele>127.0</ele><time>2026-04-29T14:13:25.11Z</time></trkpt><trkpt lat="37.2511118" lon="13.7120489"><ele>127.0</ele><time>2026-04-29T14:13:26.109Z</time></trkpt><trkpt lat="37.2510517" lon="13.7122202"><ele>127.0</ele><time>2026-04-29T14:13:27.11Z</time></trkpt><trkpt lat="37.2509953" lon="13.7123797"><ele>127.0</ele><time>2026-04-29T14:13:28.112Z</time></trkpt><trkpt lat="37.250939" lon="13.7125375"><ele>127.0</ele><time>2026-04-29T14:13:29.11Z</time></trkpt><trkpt lat="37.2508868" lon="13.7126945"><ele>127.5</ele><time>2026-04-29T14:13:30.109Z</time></trkpt><trkpt lat="37.2508346" lon="13.7128535"><ele>128.0</ele><time>2026-04-29T14:13:31.11Z</time></trkpt><trkpt lat="37.2507879" lon="13.7130093"><ele>128.5</ele><time>2026-04-29T14:13:32.11Z</time></trkpt><trkpt lat="37.2507608" lon="13.7131556"><ele>129.0</ele><time>2026-04-29T14:13:33.11Z</time></trkpt><trkpt lat="37.250749" lon="13.7132886"><ele>129.0</ele><time>2026-04-29T14:13:34.111Z</time></trkpt><trkpt lat="37.2507496" lon="13.7134155"><ele>129.0</ele><time>2026-04-29T14:13:35.109Z</time></trkpt><trkpt lat="37.2507756" lon="13.7135375"><ele>129.0</ele><time>2026-04-29T14:13:36.11Z</time></trkpt><trkpt lat="37.2508177" lon="13.7136542"><ele>129.0</ele><time>2026-04-29T14:13:37.111Z</time></trkpt><trkpt lat="37.2508702" lon="13.7137693"><ele>129.0</ele><time>2026-04-29T14:13:38.11Z</time></trkpt><trkpt lat="37.2509294" lon="13.7138964"><ele>128.0</ele><time>2026-04-29T14:13:39.109Z</time></trkpt><trkpt lat="37.2509897" lon="13.7140282"><ele>127.0</ele><time>2026-04-29T14:13:40.109Z</time></trkpt><trkpt lat="37.2510479" lon="13.7141578"><ele>126.0</ele><time>2026-04-29T14:13:41.109Z</time></trkpt><trkpt lat="37.2511171" lon="13.7142919"><ele>125.0</ele><time>2026-04-29T14:13:42.11Z</time></trkpt><trkpt lat="37.2511749" lon="13.7144171"><ele>124.5</ele><time>2026-04-29T14:13:43.112Z</time></trkpt><trkpt lat="37.2512335" lon="13.7145492"><ele>124.0</ele><time>2026-04-29T14:13:44.111Z</time></trkpt><trkpt lat="37.2512933" lon="13.7146749"><ele>123.5</ele><time>2026-04-29T14:13:45.109Z</time></trkpt><trkpt lat="37.2513597" lon="13.7147886"><ele>123.0</ele><time>2026-04-29T14:13:46.112Z</time></trkpt><trkpt lat="37.2514207" lon="13.7148954"><ele>123.66666666666667</ele><time>2026-04-29T14:13:47.111Z</time></trkpt><trkpt lat="37.2514818" lon="13.7149943"><ele>124.33333333333334</ele><time>2026-04-29T14:13:48.111Z</time></trkpt><trkpt lat="37.2515369" lon="13.7150733"><ele>125.0</ele><time>2026-04-29T14:13:49.109Z</time></trkpt><trkpt lat="37.2515918" lon="13.7151515"><ele>125.66666666666667</ele><time>2026-04-29T14:13:50.109Z</time></trkpt><trkpt lat="37.2516354" lon="13.7152319"><ele>126.33333333333334</ele><time>2026-04-29T14:13:51.109Z</time></trkpt><trkpt lat="37.2516682" lon="13.7153149"><ele>127.0</ele><time>2026-04-29T14:13:52.11Z</time></trkpt><trkpt lat="37.2516877" lon="13.7153995"><ele>127.00000000000001</ele><time>2026-04-29T14:13:53.109Z</time></trkpt><trkpt lat="37.2516852" lon="13.7154929"><ele>127.0</ele><time>2026-04-29T14:13:54.111Z</time></trkpt><trkpt lat="37.2516629" lon="13.7155922"><ele>127.0</ele><time>2026-04-29T14:13:55.109Z</time></trkpt><trkpt lat="37.2516204" lon="13.7156936"><ele>127.0</ele><time>2026-04-29T14:13:56.109Z</time></trkpt><trkpt lat="37.2515646" lon="13.7157843"><ele>127.00000000000001</ele><time>2026-04-29T14:13:57.111Z</time></trkpt><trkpt lat="37.2514786" lon="13.715861"><ele>127.0</ele><time>2026-04-29T14:13:58.111Z</time></trkpt><trkpt lat="37.2513934" lon="13.715932"><ele>126.6</ele><time>2026-04-29T14:13:59.11Z</time></trkpt><trkpt lat="37.2513073" lon="13.7160081"><ele>126.19999999999999</ele><time>2026-04-29T14:14:00.111Z</time></trkpt><trkpt lat="37.25122" lon="13.7160854"><ele>125.8</ele><time>2026-04-29T14:14:01.11Z</time></trkpt><trkpt lat="37.2511465" lon="13.7161937"><ele>125.4</ele><time>2026-04-29T14:14:02.11Z</time></trkpt><trkpt lat="37.2510854" lon="13.7163233"><ele>125.0</ele><time>2026-04-29T14:14:03.11Z</time></trkpt><trkpt lat="37.2510245" lon="13.716458"><ele>126.2</ele><time>2026-04-29T14:14:04.111Z</time></trkpt><trkpt lat="37.250972" lon="13.716581"><ele>127.4</ele><time>2026-04-29T14:14:05.111Z</time></trkpt><trkpt lat="37.2509237" lon="13.7166939"><ele>128.6</ele><time>2026-04-29T14:14:06.11Z</time></trkpt><trkpt lat="37.2508783" lon="13.7167901"><ele>129.8</ele><time>2026-04-29T14:14:07.109Z</time></trkpt><trkpt lat="37.2508432" lon="13.716883"><ele>131.0</ele><time>2026-04-29T14:14:08.111Z</time></trkpt><trkpt lat="37.2508055" lon="13.7169574"><ele>131.6</ele><time>2026-04-29T14:14:09.109Z</time></trkpt><trkpt lat="37.2507724" lon="13.7170278"><ele>132.2</ele><time>2026-04-29T14:14:10.11Z</time></trkpt><trkpt lat="37.2507115" lon="13.7171502"><ele>132.8</ele><time>2026-04-29T14:14:12.111Z</time></trkpt><trkpt lat="37.2506553" lon="13.7172683"><ele>133.4</ele><time>2026-04-29T14:14:14.109Z</time></trkpt><trkpt lat="37.2505983" lon="13.7173948"><ele>134.0</ele><time>2026-04-29T14:14:16.11Z</time></trkpt><trkpt lat="37.2505737" lon="13.7174707"><ele>134.0</ele><time>2026-04-29T14:14:17.11Z</time></trkpt><trkpt lat="37.2505525" lon="13.7175586"><ele>134.0</ele><time>2026-04-29T14:14:18.11Z</time></trkpt><trkpt lat="37.250532" lon="13.7176555"><ele>134.0</ele><time>2026-04-29T14:14:19.109Z</time></trkpt><trkpt lat="37.2505182" lon="13.7177603"><ele>134.0</ele><time>2026-04-29T14:14:20.111Z</time></trkpt><trkpt lat="37.2505093" lon="13.717875"><ele>134.0</ele><time>2026-04-29T14:14:21.11Z</time></trkpt><trkpt lat="37.2505078" lon="13.7179936"><ele>134.0</ele><time>2026-04-29T14:14:22.11Z</time></trkpt><trkpt lat="37.2505026" lon="13.7181014"><ele>134.6</ele><time>2026-04-29T14:14:23.11Z</time></trkpt><trkpt lat="37.2504999" lon="13.7182177"><ele>135.2</ele><time>2026-04-29T14:14:24.11Z</time></trkpt><trkpt lat="37.2504971" lon="13.7183267"><ele>135.79999999999998</ele><time>2026-04-29T14:14:25.111Z</time></trkpt><trkpt lat="37.2504884" lon="13.7184429"><ele>136.4</ele><time>2026-04-29T14:14:26.111Z</time></trkpt><trkpt lat="37.2504787" lon="13.7185693"><ele>137.0</ele><time>2026-04-29T14:14:27.109Z</time></trkpt><trkpt lat="37.2504655" lon="13.718689"><ele>137.79999999999998</ele><time>2026-04-29T14:14:28.11Z</time></trkpt><trkpt lat="37.2504533" lon="13.7188158"><ele>138.6</ele><time>2026-04-29T14:14:29.109Z</time></trkpt><trkpt lat="37.2504418" lon="13.7189491"><ele>139.39999999999998</ele><time>2026-04-29T14:14:30.109Z</time></trkpt><trkpt lat="37.2504333" lon="13.7190828"><ele>140.2</ele><time>2026-04-29T14:14:31.11Z</time></trkpt><trkpt lat="37.2504281" lon="13.7192187"><ele>141.0</ele><time>2026-04-29T14:14:32.109Z</time></trkpt><trkpt lat="37.2504247" lon="13.7193586"><ele>141.5</ele><time>2026-04-29T14:14:33.109Z</time></trkpt><trkpt lat="37.2504274" lon="13.7194969"><ele>142.0</ele><time>2026-04-29T14:14:34.11Z</time></trkpt><trkpt lat="37.2504485" lon="13.7196437"><ele>142.5</ele><time>2026-04-29T14:14:35.109Z</time></trkpt><trkpt lat="37.2504676" lon="13.7197818"><ele>143.0</ele><time>2026-04-29T14:14:36.11Z</time></trkpt><trkpt lat="37.2504887" lon="13.719925"><ele>143.0</ele><time>2026-04-29T14:14:37.109Z</time></trkpt><trkpt lat="37.2505059" lon="13.7200693"><ele>143.0</ele><time>2026-04-29T14:14:38.11Z</time></trkpt><trkpt lat="37.2505321" lon="13.7202142"><ele>143.0</ele><time>2026-04-29T14:14:39.11Z</time></trkpt><trkpt lat="37.2505587" lon="13.720367"><ele>143.0</ele><time>2026-04-29T14:14:40.109Z</time></trkpt><trkpt lat="37.2505836" lon="13.7205215"><ele>143.75</ele><time>2026-04-29T14:14:41.109Z</time></trkpt><trkpt lat="37.2506012" lon="13.7206707"><ele>144.5</ele><time>2026-04-29T14:14:42.11Z</time></trkpt><trkpt lat="37.2506245" lon="13.7208268"><ele>145.25</ele><time>2026-04-29T14:14:43.111Z</time></trkpt><trkpt lat="37.2506456" lon="13.720991"><ele>146.0</ele><time>2026-04-29T14:14:44.109Z</time></trkpt><trkpt lat="37.250672" lon="13.7211538"><ele>147.75</ele><time>2026-04-29T14:14:45.109Z</time></trkpt><trkpt lat="37.2506923" lon="13.7213159"><ele>149.5</ele><time>2026-04-29T14:14:46.109Z</time></trkpt><trkpt lat="37.2507065" lon="13.7214789"><ele>151.25</ele><time>2026-04-29T14:14:47.111Z</time></trkpt><trkpt lat="37.2507112" lon="13.721646"><ele>153.0</ele><time>2026-04-29T14:14:48.11Z</time></trkpt><trkpt lat="37.2507085" lon="13.7218215"><ele>153.75</ele><time>2026-04-29T14:14:49.111Z</time></trkpt><trkpt lat="37.2506976" lon="13.7219955"><ele>154.5</ele><time>2026-04-29T14:14:50.109Z</time></trkpt><trkpt lat="37.2506794" lon="13.7221728"><ele>155.25</ele><time>2026-04-29T14:14:51.109Z</time></trkpt><trkpt lat="37.2506716" lon="13.7223321"><ele>156.0</ele><time>2026-04-29T14:14:52.109Z</time></trkpt><trkpt lat="37.2506656" lon="13.7224958"><ele>156.0</ele><time>2026-04-29T14:14:53.11Z</time></trkpt><trkpt lat="37.2506651" lon="13.7226613"><ele>156.0</ele><time>2026-04-29T14:14:54.11Z</time></trkpt><trkpt lat="37.2506666" lon="13.7228307"><ele>156.0</ele><time>2026-04-29T14:14:55.11Z</time></trkpt><trkpt lat="37.2506527" lon="13.7229975"><ele>156.0</ele><time>2026-04-29T14:14:56.11Z</time></trkpt><trkpt lat="37.2506401" lon="13.7231699"><ele>155.5</ele><time>2026-04-29T14:14:57.11Z</time></trkpt><trkpt lat="37.2506323" lon="13.7233401"><ele>155.0</ele><time>2026-04-29T14:14:58.11Z</time></trkpt><trkpt lat="37.2506204" lon="13.7235146"><ele>154.5</ele><time>2026-04-29T14:14:59.11Z</time></trkpt><trkpt lat="37.2506106" lon="13.7236897"><ele>154.0</ele><time>2026-04-29T14:15:00.11Z</time></trkpt><trkpt lat="37.2505961" lon="13.7238568"><ele>155.0</ele><time>2026-04-29T14:15:01.111Z</time></trkpt><trkpt lat="37.2505893" lon="13.7240353"><ele>156.0</ele><time>2026-04-29T14:15:02.109Z</time></trkpt><trkpt lat="37.2505799" lon="13.7242159"><ele>157.0</ele><time>2026-04-29T14:15:03.109Z</time></trkpt><trkpt lat="37.2505752" lon="13.7243985"><ele>158.0</ele><time>2026-04-29T14:15:04.109Z</time></trkpt><trkpt lat="37.2505656" lon="13.7245692"><ele>159.25</ele><time>2026-04-29T14:15:05.111Z</time></trkpt><trkpt lat="37.2505608" lon="13.7247419"><ele>160.5</ele><time>2026-04-29T14:15:06.11Z</time></trkpt><trkpt lat="37.2505586" lon="13.7249116"><ele>161.75</ele><time>2026-04-29T14:15:07.111Z</time></trkpt><trkpt lat="37.250562" lon="13.7250838"><ele>163.0</ele><time>2026-04-29T14:15:08.109Z</time></trkpt><trkpt lat="37.2505676" lon="13.7252555"><ele>163.75</ele><time>2026-04-29T14:15:09.109Z</time></trkpt><trkpt lat="37.2505771" lon="13.7254227"><ele>164.5</ele><time>2026-04-29T14:15:10.111Z</time></trkpt><trkpt lat="37.2505889" lon="13.7255887"><ele>165.25</ele><time>2026-04-29T14:15:11.11Z</time></trkpt><trkpt lat="37.2505831" lon="13.7257498"><ele>166.0</ele><time>2026-04-29T14:15:12.11Z</time></trkpt><trkpt lat="37.2505987" lon="13.725914"><ele>167.5</ele><time>2026-04-29T14:15:13.11Z</time></trkpt><trkpt lat="37.2506105" lon="13.726081"><ele>169.0</ele><time>2026-04-29T14:15:14.109Z</time></trkpt><trkpt lat="37.2506281" lon="13.7262543"><ele>170.5</ele><time>2026-04-29T14:15:15.11Z</time></trkpt><trkpt lat="37.2506572" lon="13.7264342"><ele>172.0</ele><time>2026-04-29T14:15:16.11Z</time></trkpt><trkpt lat="37.2506916" lon="13.7266208"><ele>176.0</ele><time>2026-04-29T14:15:17.11Z</time></trkpt><trkpt lat="37.2507154" lon="13.7268121"><ele>180.0</ele><time>2026-04-29T14:15:18.11Z</time></trkpt><trkpt lat="37.2507391" lon="13.7270014"><ele>184.0</ele><time>2026-04-29T14:15:19.109Z</time></trkpt><trkpt lat="37.2507518" lon="13.7271629"><ele>188.0</ele><time>2026-04-29T14:15:20.109Z</time></trkpt><trkpt lat="37.2507617" lon="13.727327"><ele>189.25</ele><time>2026-04-29T14:15:21.11Z</time></trkpt><trkpt lat="37.2507757" lon="13.7274859"><ele>190.5</ele><time>2026-04-29T14:15:22.109Z</time></trkpt><trkpt lat="37.250784" lon="13.7276331"><ele>191.75</ele><time>2026-04-29T14:15:23.109Z</time></trkpt><trkpt lat="37.250789" lon="13.7277755"><ele>193.0</ele><time>2026-04-29T14:15:24.11Z</time></trkpt><trkpt lat="37.2507946" lon="13.7279078"><ele>194.2</ele><time>2026-04-29T14:15:25.109Z</time></trkpt><trkpt lat="37.250796" lon="13.7280287"><ele>195.4</ele><time>2026-04-29T14:15:26.109Z</time></trkpt><trkpt lat="37.2507891" lon="13.7281529"><ele>196.6</ele><time>2026-04-29T14:15:27.11Z</time></trkpt><trkpt lat="37.2507541" lon="13.7282609"><ele>197.79999999999998</ele><time>2026-04-29T14:15:28.108Z</time></trkpt><trkpt lat="37.2507272" lon="13.7283732"><ele>199.0</ele><time>2026-04-29T14:15:29.109Z</time></trkpt><trkpt lat="37.250701" lon="13.728465"><ele>198.99999999999997</ele><time>2026-04-29T14:15:30.11Z</time></trkpt><trkpt lat="37.2506755" lon="13.7285549"><ele>199.0</ele><time>2026-04-29T14:15:31.109Z</time></trkpt><trkpt lat="37.2506472" lon="13.7286456"><ele>199.0</ele><time>2026-04-29T14:15:32.109Z</time></trkpt><trkpt lat="37.2506009" lon="13.7287742"><ele>199.0</ele><time>2026-04-29T14:15:34.109Z</time></trkpt><trkpt lat="37.2505817" lon="13.7288614"><ele>198.99999999999997</ele><time>2026-04-29T14:15:37.11Z</time></trkpt><trkpt lat="37.2506269" lon="13.7287746"><ele>199.0</ele><time>2026-04-29T14:15:40.11Z</time></trkpt><trkpt lat="37.2506572" lon="13.7286155"><ele>199.0</ele><time>2026-04-29T14:15:42.11Z</time></trkpt><trkpt lat="37.25068" lon="13.7285091"><ele>199.0</ele><time>2026-04-29T14:15:43.109Z</time></trkpt><trkpt lat="37.2507178" lon="13.7283983"><ele>199.0</ele><time>2026-04-29T14:15:44.11Z</time></trkpt><trkpt lat="37.2507502" lon="13.7282763"><ele>199.0</ele><time>2026-04-29T14:15:45.109Z</time></trkpt><trkpt lat="37.2507758" lon="13.7281441"><ele>199.0</ele><time>2026-04-29T14:15:46.109Z</time></trkpt><trkpt lat="37.2507898" lon="13.7279979"><ele>199.0</ele><time>2026-04-29T14:15:47.109Z</time></trkpt><trkpt lat="37.2507982" lon="13.7278541"><ele>199.0</ele><time>2026-04-29T14:15:48.111Z</time></trkpt><trkpt lat="37.2507867" lon="13.7276946"><ele>199.0</ele><time>2026-04-29T14:15:49.109Z</time></trkpt><trkpt lat="37.2507774" lon="13.7275345"><ele>199.0</ele><time>2026-04-29T14:15:50.109Z</time></trkpt><trkpt lat="37.250761" lon="13.727372"><ele>197.5</ele><time>2026-04-29T14:15:51.109Z</time></trkpt><trkpt lat="37.2507506" lon="13.7272094"><ele>196.0</ele><time>2026-04-29T14:15:52.11Z</time></trkpt><trkpt lat="37.2507316" lon="13.727049"><ele>194.5</ele><time>2026-04-29T14:15:53.109Z</time></trkpt><trkpt lat="37.250721" lon="13.7268956"><ele>193.0</ele><time>2026-04-29T14:15:54.11Z</time></trkpt><trkpt lat="37.2507031" lon="13.7267379"><ele>191.75</ele><time>2026-04-29T14:15:55.11Z</time></trkpt><trkpt lat="37.2506858" lon="13.7265849"><ele>190.5</ele><time>2026-04-29T14:15:56.109Z</time></trkpt><trkpt lat="37.2506714" lon="13.7264393"><ele>189.25</ele><time>2026-04-29T14:15:57.109Z</time></trkpt><trkpt lat="37.2506497" lon="13.7262888"><ele>188.0</ele><time>2026-04-29T14:15:58.109Z</time></trkpt><trkpt lat="37.2506304" lon="13.7261409"><ele>182.5</ele><time>2026-04-29T14:15:59.11Z</time></trkpt><trkpt lat="37.250616" lon="13.7259972"><ele>177.0</ele><time>2026-04-29T14:16:00.109Z</time></trkpt><trkpt lat="37.2506014" lon="13.7258476"><ele>171.5</ele><time>2026-04-29T14:16:01.108Z</time></trkpt><trkpt lat="37.2505919" lon="13.7257034"><ele>166.0</ele><time>2026-04-29T14:16:02.11Z</time></trkpt><trkpt lat="37.2505833" lon="13.7255544"><ele>166.0</ele><time>2026-04-29T14:16:03.11Z</time></trkpt><trkpt lat="37.2505807" lon="13.7254115"><ele>166.0</ele><time>2026-04-29T14:16:04.11Z</time></trkpt><trkpt lat="37.2505754" lon="13.7252628"><ele>166.0</ele><time>2026-04-29T14:16:05.11Z</time></trkpt><trkpt lat="37.250572" lon="13.7251192"><ele>166.0</ele><time>2026-04-29T14:16:06.109Z</time></trkpt><trkpt lat="37.2505713" lon="13.724974"><ele>165.25</ele><time>2026-04-29T14:16:07.109Z</time></trkpt><trkpt lat="37.2505733" lon="13.7248256"><ele>164.5</ele><time>2026-04-29T14:16:08.11Z</time></trkpt><trkpt lat="37.2505744" lon="13.7246835"><ele>163.75</ele><time>2026-04-29T14:16:09.11Z</time></trkpt><trkpt lat="37.2505783" lon="13.7245374"><ele>163.0</ele><time>2026-04-29T14:16:10.11Z</time></trkpt><trkpt lat="37.2505822" lon="13.7243926"><ele>162.0</ele><time>2026-04-29T14:16:11.11Z</time></trkpt><trkpt lat="37.2505835" lon="13.7242541"><ele>161.0</ele><time>2026-04-29T14:16:12.109Z</time></trkpt><trkpt lat="37.2505881" lon="13.7241129"><ele>160.0</ele><time>2026-04-29T14:16:13.11Z</time></trkpt><trkpt lat="37.2505976" lon="13.7239752"><ele>159.0</ele><time>2026-04-29T14:16:14.11Z</time></trkpt><trkpt lat="37.2506066" lon="13.7238368"><ele>158.0</ele><time>2026-04-29T14:16:15.11Z</time></trkpt><trkpt lat="37.2506133" lon="13.7236927"><ele>158.25</ele><time>2026-04-29T14:16:16.108Z</time></trkpt><trkpt lat="37.2506221" lon="13.723548"><ele>158.5</ele><time>2026-04-29T14:16:17.109Z</time></trkpt><trkpt lat="37.2506298" lon="13.723396"><ele>158.75</ele><time>2026-04-29T14:16:18.11Z</time></trkpt><trkpt lat="37.2506344" lon="13.7232448"><ele>159.0</ele><time>2026-04-29T14:16:19.109Z</time></trkpt><trkpt lat="37.2506427" lon="13.7230905"><ele>159.0</ele><time>2026-04-29T14:16:20.11Z</time></trkpt><trkpt lat="37.250652" lon="13.7229367"><ele>159.0</ele><time>2026-04-29T14:16:21.11Z</time></trkpt><trkpt lat="37.2506587" lon="13.7227841"><ele>159.0</ele><time>2026-04-29T14:16:22.109Z</time></trkpt><trkpt lat="37.2506671" lon="13.7226293"><ele>159.0</ele><time>2026-04-29T14:16:23.109Z</time></trkpt><trkpt lat="37.2506739" lon="13.72247"><ele>158.25</ele><time>2026-04-29T14:16:24.11Z</time></trkpt><trkpt lat="37.250682" lon="13.7223111"><ele>157.5</ele><time>2026-04-29T14:16:25.109Z</time></trkpt><trkpt lat="37.2506916" lon="13.7221538"><ele>156.75</ele><time>2026-04-29T14:16:26.109Z</time></trkpt><trkpt lat="37.2507018" lon="13.7219855"><ele>156.0</ele><time>2026-04-29T14:16:27.109Z</time></trkpt><trkpt lat="37.2507122" lon="13.721821"><ele>155.25</ele><time>2026-04-29T14:16:28.109Z</time></trkpt><trkpt lat="37.2507202" lon="13.7216684"><ele>154.5</ele><time>2026-04-29T14:16:29.109Z</time></trkpt><trkpt lat="37.2507291" lon="13.7215268"><ele>153.75</ele><time>2026-04-29T14:16:30.11Z</time></trkpt><trkpt lat="37.2507271" lon="13.7213879"><ele>153.0</ele><time>2026-04-29T14:16:31.108Z</time></trkpt><trkpt lat="37.2507087" lon="13.7212521"><ele>153.0</ele><time>2026-04-29T14:16:32.108Z</time></trkpt><trkpt lat="37.2506866" lon="13.7211166"><ele>153.0</ele><time>2026-04-29T14:16:33.108Z</time></trkpt><trkpt lat="37.2506628" lon="13.7209793"><ele>153.0</ele><time>2026-04-29T14:16:34.11Z</time></trkpt><trkpt lat="37.2506379" lon="13.7208479"><ele>153.0</ele><time>2026-04-29T14:16:35.108Z</time></trkpt><trkpt lat="37.2506157" lon="13.7207148"><ele>153.0</ele><time>2026-04-29T14:16:36.109Z</time></trkpt><trkpt lat="37.2505932" lon="13.7205821"><ele>151.6</ele><time>2026-04-29T14:16:37.11Z</time></trkpt><trkpt lat="37.2505736" lon="13.7204519"><ele>150.20000000000002</ele><time>2026-04-29T14:16:38.11Z</time></trkpt><trkpt lat="37.2505529" lon="13.7203237"><ele>148.8</ele><time>2026-04-29T14:16:39.109Z</time></trkpt><trkpt lat="37.2505354" lon="13.7202004"><ele>147.4</ele><time>2026-04-29T14:16:40.109Z</time></trkpt><trkpt lat="37.250511" lon="13.7200725"><ele>146.0</ele><time>2026-04-29T14:16:41.11Z</time></trkpt><trkpt lat="37.2504861" lon="13.7199487"><ele>145.4</ele><time>2026-04-29T14:16:42.111Z</time></trkpt><trkpt lat="37.2504652" lon="13.7198204"><ele>144.8</ele><time>2026-04-29T14:16:43.11Z</time></trkpt><trkpt lat="37.2504422" lon="13.7196952"><ele>144.20000000000002</ele><time>2026-04-29T14:16:44.109Z</time></trkpt><trkpt lat="37.2504242" lon="13.7195651"><ele>143.6</ele><time>2026-04-29T14:16:45.109Z</time></trkpt><trkpt lat="37.2504139" lon="13.7194306"><ele>143.0</ele><time>2026-04-29T14:16:46.109Z</time></trkpt><trkpt lat="37.2504192" lon="13.719296"><ele>142.6</ele><time>2026-04-29T14:16:47.109Z</time></trkpt><trkpt lat="37.250431" lon="13.7191668"><ele>142.20000000000002</ele><time>2026-04-29T14:16:48.109Z</time></trkpt><trkpt lat="37.2504364" lon="13.7190337"><ele>141.8</ele><time>2026-04-29T14:16:49.11Z</time></trkpt><trkpt lat="37.2504432" lon="13.7188989"><ele>141.4</ele><time>2026-04-29T14:16:50.11Z</time></trkpt><trkpt lat="37.2504512" lon="13.7187671"><ele>141.0</ele><time>2026-04-29T14:16:51.11Z</time></trkpt><trkpt lat="37.2504601" lon="13.7186382"><ele>140.2</ele><time>2026-04-29T14:16:52.11Z</time></trkpt><trkpt lat="37.2504672" lon="13.7185103"><ele>139.39999999999998</ele><time>2026-04-29T14:16:53.109Z</time></trkpt><trkpt lat="37.2504791" lon="13.7183917"><ele>138.6</ele><time>2026-04-29T14:16:54.11Z</time></trkpt><trkpt lat="37.2504887" lon="13.7182747"><ele>137.79999999999998</ele><time>2026-04-29T14:16:55.11Z</time></trkpt><trkpt lat="37.2504954" lon="13.7181578"><ele>137.0</ele><time>2026-04-29T14:16:56.11Z</time></trkpt><trkpt lat="37.2505023" lon="13.71805"><ele>137.0</ele><time>2026-04-29T14:16:57.109Z</time></trkpt><trkpt lat="37.250506" lon="13.7179375"><ele>137.0</ele><time>2026-04-29T14:16:58.11Z</time></trkpt><trkpt lat="37.2505099" lon="13.7178301"><ele>137.0</ele><time>2026-04-29T14:16:59.109Z</time></trkpt><trkpt lat="37.2505181" lon="13.7177276"><ele>137.0</ele><time>2026-04-29T14:17:00.109Z</time></trkpt><trkpt lat="37.2505334" lon="13.7176269"><ele>137.0</ele><time>2026-04-29T14:17:01.109Z</time></trkpt><trkpt lat="37.2505606" lon="13.717527"><ele>137.0</ele><time>2026-04-29T14:17:02.11Z</time></trkpt><trkpt lat="37.2505893" lon="13.7174297"><ele>137.0</ele><time>2026-04-29T14:17:03.109Z</time></trkpt><trkpt lat="37.2506232" lon="13.7173407"><ele>137.0</ele><time>2026-04-29T14:17:04.109Z</time></trkpt><trkpt lat="37.2506585" lon="13.7172574"><ele>137.0</ele><time>2026-04-29T14:17:05.109Z</time></trkpt><trkpt lat="37.250698" lon="13.717176"><ele>137.0</ele><time>2026-04-29T14:17:06.11Z</time></trkpt><trkpt lat="37.2507409" lon="13.7170995"><ele>137.0</ele><time>2026-04-29T14:17:07.11Z</time></trkpt><trkpt lat="37.2507752" lon="13.7170155"><ele>137.0</ele><time>2026-04-29T14:17:08.109Z</time></trkpt><trkpt lat="37.2508125" lon="13.7169313"><ele>136.0</ele><time>2026-04-29T14:17:09.11Z</time></trkpt><trkpt lat="37.250846" lon="13.7168465"><ele>135.0</ele><time>2026-04-29T14:17:10.11Z</time></trkpt><trkpt lat="37.2508786" lon="13.7167626"><ele>134.0</ele><time>2026-04-29T14:17:11.11Z</time></trkpt><trkpt lat="37.2509161" lon="13.7166791"><ele>133.0</ele><time>2026-04-29T14:17:12.109Z</time></trkpt><trkpt lat="37.2509573" lon="13.7165978"><ele>132.0</ele><time>2026-04-29T14:17:13.111Z</time></trkpt><trkpt lat="37.2509951" lon="13.7165127"><ele>131.0</ele><time>2026-04-29T14:17:14.109Z</time></trkpt><trkpt lat="37.2510348" lon="13.7164234"><ele>131.0</ele><time>2026-04-29T14:17:15.11Z</time></trkpt><trkpt lat="37.2510765" lon="13.7163309"><ele>131.0</ele><time>2026-04-29T14:17:16.109Z</time></trkpt><trkpt lat="37.2511241" lon="13.7162408"><ele>131.0</ele><time>2026-04-29T14:17:17.109Z</time></trkpt><trkpt lat="37.2511758" lon="13.7161633"><ele>131.0</ele><time>2026-04-29T14:17:18.108Z</time></trkpt><trkpt lat="37.2512324" lon="13.716095"><ele>131.0</ele><time>2026-04-29T14:17:19.11Z</time></trkpt><trkpt lat="37.2512902" lon="13.7160373"><ele>131.0</ele><time>2026-04-29T14:17:20.109Z</time></trkpt><trkpt lat="37.25135" lon="13.7159818"><ele>130.33333333333331</ele><time>2026-04-29T14:17:21.109Z</time></trkpt><trkpt lat="37.2514159" lon="13.7159364"><ele>129.66666666666666</ele><time>2026-04-29T14:17:22.11Z</time></trkpt><trkpt lat="37.2514769" lon="13.7158829"><ele>129.0</ele><time>2026-04-29T14:17:23.11Z</time></trkpt><trkpt lat="37.2515443" lon="13.7158281"><ele>128.33333333333334</ele><time>2026-04-29T14:17:24.109Z</time></trkpt><trkpt lat="37.2516033" lon="13.7157547"><ele>127.66666666666667</ele><time>2026-04-29T14:17:25.11Z</time></trkpt><trkpt lat="37.2516476" lon="13.7156734"><ele>127.0</ele><time>2026-04-29T14:17:26.11Z</time></trkpt><trkpt lat="37.2516792" lon="13.7155701"><ele>127.00000000000001</ele><time>2026-04-29T14:17:27.11Z</time></trkpt><trkpt lat="37.2516899" lon="13.715461"><ele>127.0</ele><time>2026-04-29T14:17:28.109Z</time></trkpt><trkpt lat="37.2516799" lon="13.7153532"><ele>127.0</ele><time>2026-04-29T14:17:29.109Z</time></trkpt><trkpt lat="37.2516559" lon="13.7152569"><ele>127.0</ele><time>2026-04-29T14:17:30.11Z</time></trkpt><trkpt lat="37.2516021" lon="13.715175"><ele>127.00000000000001</ele><time>2026-04-29T14:17:31.108Z</time></trkpt><trkpt lat="37.2515447" lon="13.7150954"><ele>127.0</ele><time>2026-04-29T14:17:32.11Z</time></trkpt><trkpt lat="37.2514934" lon="13.7150136"><ele>126.33333333333334</ele><time>2026-04-29T14:17:33.109Z</time></trkpt><trkpt lat="37.2514476" lon="13.7149332"><ele>125.66666666666667</ele><time>2026-04-29T14:17:34.108Z</time></trkpt><trkpt lat="37.2513982" lon="13.7148566"><ele>125.0</ele><time>2026-04-29T14:17:35.108Z</time></trkpt><trkpt lat="37.2513481" lon="13.7147804"><ele>124.33333333333334</ele><time>2026-04-29T14:17:36.109Z</time></trkpt><trkpt lat="37.2513021" lon="13.7146959"><ele>123.66666666666667</ele><time>2026-04-29T14:17:37.109Z</time></trkpt><trkpt lat="37.2512564" lon="13.7146092"><ele>123.0</ele><time>2026-04-29T14:17:38.109Z</time></trkpt><trkpt lat="37.2512029" lon="13.7145085"><ele>123.4</ele><time>2026-04-29T14:17:39.109Z</time></trkpt><trkpt lat="37.2511538" lon="13.7143948"><ele>123.80000000000001</ele><time>2026-04-29T14:17:40.109Z</time></trkpt><trkpt lat="37.2511038" lon="13.7142817"><ele>124.2</ele><time>2026-04-29T14:17:41.109Z</time></trkpt><trkpt lat="37.251041" lon="13.7141614"><ele>124.6</ele><time>2026-04-29T14:17:42.109Z</time></trkpt><trkpt lat="37.2509846" lon="13.7140385"><ele>125.0</ele><time>2026-04-29T14:17:43.11Z</time></trkpt><trkpt lat="37.2509271" lon="13.7139042"><ele>125.0</ele><time>2026-04-29T14:17:44.11Z</time></trkpt><trkpt lat="37.2508648" lon="13.7137741"><ele>125.0</ele><time>2026-04-29T14:17:45.11Z</time></trkpt><trkpt lat="37.2508099" lon="13.713647"><ele>125.0</ele><time>2026-04-29T14:17:46.11Z</time></trkpt><trkpt lat="37.2507659" lon="13.7135258"><ele>125.0</ele><time>2026-04-29T14:17:47.11Z</time></trkpt><trkpt lat="37.2507471" lon="13.7134043"><ele>125.0</ele><time>2026-04-29T14:17:48.109Z</time></trkpt><trkpt lat="37.2507363" lon="13.7132855"><ele>125.5</ele><time>2026-04-29T14:17:49.11Z</time></trkpt><trkpt lat="37.2507576" lon="13.7131539"><ele>126.0</ele><time>2026-04-29T14:17:50.109Z</time></trkpt><trkpt lat="37.2507886" lon="13.7130189"><ele>126.5</ele><time>2026-04-29T14:17:51.109Z</time></trkpt><trkpt lat="37.250828" lon="13.7128812"><ele>127.0</ele><time>2026-04-29T14:17:52.11Z</time></trkpt><trkpt lat="37.2508691" lon="13.7127325"><ele>127.0</ele><time>2026-04-29T14:17:53.11Z</time></trkpt><trkpt lat="37.2509145" lon="13.7125798"><ele>127.0</ele><time>2026-04-29T14:17:54.11Z</time></trkpt><trkpt lat="37.2509676" lon="13.7124234"><ele>127.0</ele><time>2026-04-29T14:17:55.109Z</time></trkpt><trkpt lat="37.2510282" lon="13.7122569"><ele>127.0</ele><time>2026-04-29T14:17:56.108Z</time></trkpt><trkpt lat="37.2510896" lon="13.7120674"><ele>126.66666666666667</ele><time>2026-04-29T14:17:57.108Z</time></trkpt><trkpt lat="37.2511544" lon="13.7118677"><ele>126.33333333333334</ele><time>2026-04-29T14:17:58.11Z</time></trkpt><trkpt lat="37.2512185" lon="13.7116819"><ele>126.0</ele><time>2026-04-29T14:17:59.11Z</time></trkpt><trkpt lat="37.2512797" lon="13.7115084"><ele>126.0</ele><time>2026-04-29T14:18:00.109Z</time></trkpt><trkpt lat="37.2513426" lon="13.7113427"><ele>126.0</ele><time>2026-04-29T14:18:01.11Z</time></trkpt><trkpt lat="37.2514123" lon="13.7111853"><ele>126.0</ele><time>2026-04-29T14:18:02.109Z</time></trkpt><trkpt lat="37.2514729" lon="13.7110423"><ele>126.0</ele><time>2026-04-29T14:18:03.109Z</time></trkpt><trkpt lat="37.2515311" lon="13.7108963"><ele>127.0</ele><time>2026-04-29T14:18:04.108Z</time></trkpt><trkpt lat="37.2515909" lon="13.7107487"><ele>128.0</ele><time>2026-04-29T14:18:05.11Z</time></trkpt><trkpt lat="37.2516634" lon="13.7106178"><ele>129.0</ele><time>2026-04-29T14:18:06.109Z</time></trkpt><trkpt lat="37.2517396" lon="13.7104882"><ele>130.0</ele><time>2026-04-29T14:18:07.109Z</time></trkpt><trkpt lat="37.2518222" lon="13.7103634"><ele>129.75</ele><time>2026-04-29T14:18:08.109Z</time></trkpt><trkpt lat="37.2518966" lon="13.7102207"><ele>129.5</ele><time>2026-04-29T14:18:09.109Z</time></trkpt><trkpt lat="37.2519538" lon="13.7100635"><ele>129.25</ele><time>2026-04-29T14:18:10.11Z</time></trkpt><trkpt lat="37.2520029" lon="13.7098934"><ele>129.0</ele><time>2026-04-29T14:18:11.109Z</time></trkpt><trkpt lat="37.2520449" lon="13.7097252"><ele>129.0</ele><time>2026-04-29T14:18:12.11Z</time></trkpt><trkpt lat="37.2520808" lon="13.7095723"><ele>129.0</ele><time>2026-04-29T14:18:13.109Z</time></trkpt><trkpt lat="37.2521106" lon="13.7094199"><ele>129.0</ele><time>2026-04-29T14:18:14.11Z</time></trkpt><trkpt lat="37.252141" lon="13.7092809"><ele>129.0</ele><time>2026-04-29T14:18:15.108Z</time></trkpt><trkpt lat="37.2521679" lon="13.7091486"><ele>129.0</ele><time>2026-04-29T14:18:16.11Z</time></trkpt><trkpt lat="37.2521966" lon="13.70902"><ele>129.0</ele><time>2026-04-29T14:18:17.108Z</time></trkpt><trkpt lat="37.2522213" lon="13.7089015"><ele>129.0</ele><time>2026-04-29T14:18:18.11Z</time></trkpt><trkpt lat="37.2522449" lon="13.7087818"><ele>129.0</ele><time>2026-04-29T14:18:19.111Z</time></trkpt><trkpt lat="37.2522618" lon="13.7086609"><ele>129.0</ele><time>2026-04-29T14:18:20.111Z</time></trkpt><trkpt lat="37.2522825" lon="13.7085328"><ele>129.4</ele><time>2026-04-29T14:18:21.109Z</time></trkpt><trkpt lat="37.252296" lon="13.7083984"><ele>129.8</ele><time>2026-04-29T14:18:22.11Z</time></trkpt><trkpt lat="37.2523099" lon="13.7082539"><ele>130.2</ele><time>2026-04-29T14:18:23.11Z</time></trkpt><trkpt lat="37.2523277" lon="13.7081131"><ele>130.6</ele><time>2026-04-29T14:18:24.11Z</time></trkpt><trkpt lat="37.2523464" lon="13.7079772"><ele>131.0</ele><time>2026-04-29T14:18:25.108Z</time></trkpt><trkpt lat="37.2523687" lon="13.707835"><ele>131.0</ele><time>2026-04-29T14:18:26.109Z</time></trkpt><trkpt lat="37.2523877" lon="13.7076893"><ele>131.0</ele><time>2026-04-29T14:18:27.109Z</time></trkpt><trkpt lat="37.2524086" lon="13.7075371"><ele>131.0</ele><time>2026-04-29T14:18:28.109Z</time></trkpt><trkpt lat="37.252434" lon="13.7073742"><ele>131.0</ele><time>2026-04-29T14:18:29.109Z</time></trkpt><trkpt lat="37.2524675" lon="13.7072114"><ele>131.0</ele><time>2026-04-29T14:18:30.11Z</time></trkpt><trkpt lat="37.2525017" lon="13.7070466"><ele>131.0</ele><time>2026-04-29T14:18:31.108Z</time></trkpt><trkpt lat="37.2525332" lon="13.7068624"><ele>131.0</ele><time>2026-04-29T14:18:32.109Z</time></trkpt><trkpt lat="37.2525516" lon="13.706693"><ele>131.0</ele><time>2026-04-29T14:18:33.11Z</time></trkpt><trkpt lat="37.2525658" lon="13.7065377"><ele>131.0</ele><time>2026-04-29T14:18:34.109Z</time></trkpt><trkpt lat="37.2525749" lon="13.7064061"><ele>131.0</ele><time>2026-04-29T14:18:35.11Z</time></trkpt><trkpt lat="37.252585" lon="13.7063012"><ele>131.0</ele><time>2026-04-29T14:18:36.109Z</time></trkpt><trkpt lat="37.2525993" lon="13.7062061"><ele>131.0</ele><time>2026-04-29T14:18:37.11Z</time></trkpt><trkpt lat="37.2526154" lon="13.7061037"><ele>131.0</ele><time>2026-04-29T14:18:38.109Z</time></trkpt><trkpt lat="37.2526383" lon="13.705987"><ele>131.0</ele><time>2026-04-29T14:18:39.11Z</time></trkpt><trkpt lat="37.252661" lon="13.705839"><ele>131.0</ele><time>2026-04-29T14:18:40.11Z</time></trkpt><trkpt lat="37.2526785" lon="13.7056841"><ele>131.0</ele><time>2026-04-29T14:18:41.109Z</time></trkpt><trkpt lat="37.2527" lon="13.7055169"><ele>131.0</ele><time>2026-04-29T14:18:42.109Z</time></trkpt><trkpt lat="37.2527182" lon="13.7053337"><ele>131.0</ele><time>2026-04-29T14:18:43.109Z</time></trkpt><trkpt lat="37.2527436" lon="13.7051451"><ele>130.66666666666666</ele><time>2026-04-29T14:18:44.108Z</time></trkpt><trkpt lat="37.2527776" lon="13.7049472"><ele>130.33333333333334</ele><time>2026-04-29T14:18:45.109Z</time></trkpt><trkpt lat="37.2528176" lon="13.7047409"><ele>130.0</ele><time>2026-04-29T14:18:46.11Z</time></trkpt><trkpt lat="37.2528649" lon="13.7045287"><ele>130.66666666666669</ele><time>2026-04-29T14:18:47.11Z</time></trkpt><trkpt lat="37.2529106" lon="13.7043122"><ele>131.33333333333334</ele><time>2026-04-29T14:18:48.108Z</time></trkpt><trkpt lat="37.2529549" lon="13.7040968"><ele>132.0</ele><time>2026-04-29T14:18:49.108Z</time></trkpt><trkpt lat="37.2529999" lon="13.7038874"><ele>132.0</ele><time>2026-04-29T14:18:50.11Z</time></trkpt><trkpt lat="37.2530472" lon="13.7036771"><ele>132.0</ele><time>2026-04-29T14:18:51.108Z</time></trkpt><trkpt lat="37.2530905" lon="13.7034724"><ele>132.0</ele><time>2026-04-29T14:18:52.109Z</time></trkpt><trkpt lat="37.2531349" lon="13.7032864"><ele>131.0</ele><time>2026-04-29T14:18:53.11Z</time></trkpt><trkpt lat="37.2531707" lon="13.7030828"><ele>130.0</ele><time>2026-04-29T14:18:54.111Z</time></trkpt><trkpt lat="37.2532055" lon="13.7028797"><ele>129.0</ele><time>2026-04-29T14:18:55.109Z</time></trkpt><trkpt lat="37.2532429" lon="13.7026721"><ele>129.0</ele><time>2026-04-29T14:18:56.109Z</time></trkpt><trkpt lat="37.2532786" lon="13.7024475"><ele>129.0</ele><time>2026-04-29T14:18:57.109Z</time></trkpt><trkpt lat="37.2533098" lon="13.7022174"><ele>129.0</ele><time>2026-04-29T14:18:58.11Z</time></trkpt><trkpt lat="37.2533293" lon="13.7019825"><ele>130.0</ele><time>2026-04-29T14:18:59.109Z</time></trkpt><trkpt lat="37.25335" lon="13.7017435"><ele>131.0</ele><time>2026-04-29T14:19:00.109Z</time></trkpt><trkpt lat="37.2533676" lon="13.7014978"><ele>132.0</ele><time>2026-04-29T14:19:01.11Z</time></trkpt><trkpt lat="37.2533906" lon="13.7012626"><ele>132.0</ele><time>2026-04-29T14:19:02.108Z</time></trkpt><trkpt lat="37.2534122" lon="13.7010294"><ele>132.0</ele><time>2026-04-29T14:19:03.11Z</time></trkpt><trkpt lat="37.2534317" lon="13.7008068"><ele>132.0</ele><time>2026-04-29T14:19:04.11Z</time></trkpt><trkpt lat="37.2534484" lon="13.7005904"><ele>132.0</ele><time>2026-04-29T14:19:05.111Z</time></trkpt><trkpt lat="37.2534534" lon="13.7003778"><ele>132.0</ele><time>2026-04-29T14:19:06.109Z</time></trkpt><trkpt lat="37.2534365" lon="13.7001651"><ele>132.0</ele><time>2026-04-29T14:19:07.11Z</time></trkpt><trkpt lat="37.2533984" lon="13.6999632"><ele>132.0</ele><time>2026-04-29T14:19:08.11Z</time></trkpt><trkpt lat="37.2533373" lon="13.6997648"><ele>132.0</ele><time>2026-04-29T14:19:09.109Z</time></trkpt><trkpt lat="37.2532461" lon="13.6995678"><ele>132.0</ele><time>2026-04-29T14:19:10.11Z</time></trkpt><trkpt lat="37.2531366" lon="13.6993745"><ele>130.33333333333334</ele><time>2026-04-29T14:19:11.111Z</time></trkpt><trkpt lat="37.2530076" lon="13.6991874"><ele>128.66666666666669</ele><time>2026-04-29T14:19:12.109Z</time></trkpt><trkpt lat="37.2528637" lon="13.6990007"><ele>127.0</ele><time>2026-04-29T14:19:13.109Z</time></trkpt><trkpt lat="37.2527022" lon="13.6988181"><ele>127.0</ele><time>2026-04-29T14:19:14.11Z</time></trkpt><trkpt lat="37.2525368" lon="13.6986305"><ele>127.0</ele><time>2026-04-29T14:19:15.109Z</time></trkpt><trkpt lat="37.2523877" lon="13.6984515"><ele>127.0</ele><time>2026-04-29T14:19:16.109Z</time></trkpt><trkpt lat="37.252246" lon="13.6982807"><ele>125.66666666666667</ele><time>2026-04-29T14:19:17.109Z</time></trkpt><trkpt lat="37.2521112" lon="13.6981185"><ele>124.33333333333334</ele><time>2026-04-29T14:19:18.109Z</time></trkpt><trkpt lat="37.2519978" lon="13.6979623"><ele>123.0</ele><time>2026-04-29T14:19:19.11Z</time></trkpt><trkpt lat="37.2518988" lon="13.6977903"><ele>126.33333333333334</ele><time>2026-04-29T14:19:20.108Z</time></trkpt><trkpt lat="37.2518139" lon="13.6976126"><ele>129.66666666666669</ele><time>2026-04-29T14:19:21.109Z</time></trkpt><trkpt lat="37.2517384" lon="13.6974166"><ele>133.0</ele><time>2026-04-29T14:19:22.109Z</time></trkpt><trkpt lat="37.2516906" lon="13.6972148"><ele>133.0</ele><time>2026-04-29T14:19:23.109Z</time></trkpt><trkpt lat="37.2516497" lon="13.6970016"><ele>133.0</ele><time>2026-04-29T14:19:24.109Z</time></trkpt><trkpt lat="37.2516221" lon="13.6967702"><ele>133.0</ele><time>2026-04-29T14:19:25.11Z</time></trkpt><trkpt lat="37.2515978" lon="13.6965323"><ele>133.0</ele><time>2026-04-29T14:19:26.108Z</time></trkpt><trkpt lat="37.2515753" lon="13.6963017"><ele>133.0</ele><time>2026-04-29T14:19:27.109Z</time></trkpt><trkpt lat="37.2515499" lon="13.6960802"><ele>133.0</ele><time>2026-04-29T14:19:28.11Z</time></trkpt><trkpt lat="37.2515153" lon="13.6958736"><ele>131.66666666666669</ele><time>2026-04-29T14:19:29.109Z</time></trkpt><trkpt lat="37.2514605" lon="13.6956689"><ele>130.33333333333334</ele><time>2026-04-29T14:19:30.109Z</time></trkpt><trkpt lat="37.2513914" lon="13.6954598"><ele>129.0</ele><time>2026-04-29T14:19:31.109Z</time></trkpt><trkpt lat="37.2512819" lon="13.6952519"><ele>125.33333333333334</ele><time>2026-04-29T14:19:32.11Z</time></trkpt><trkpt lat="37.251165" lon="13.695042"><ele>121.66666666666667</ele><time>2026-04-29T14:19:33.109Z</time></trkpt><trkpt lat="37.2510383" lon="13.6948279"><ele>118.0</ele><time>2026-04-29T14:19:34.109Z</time></trkpt><trkpt lat="37.2509119" lon="13.6946039"><ele>119.66666666666667</ele><time>2026-04-29T14:19:35.109Z</time></trkpt><trkpt lat="37.2507892" lon="13.6943867"><ele>121.33333333333334</ele><time>2026-04-29T14:19:36.109Z</time></trkpt><trkpt lat="37.2506689" lon="13.6941717"><ele>123.0</ele><time>2026-04-29T14:19:37.11Z</time></trkpt><trkpt lat="37.2505501" lon="13.6939671"><ele>118.66666666666666</ele><time>2026-04-29T14:19:38.11Z</time></trkpt><trkpt lat="37.2504401" lon="13.6937689"><ele>114.33333333333333</ele><time>2026-04-29T14:19:39.11Z</time></trkpt><trkpt lat="37.2503379" lon="13.6935768"><ele>110.0</ele><time>2026-04-29T14:19:40.108Z</time></trkpt><trkpt lat="37.2502364" lon="13.693392"><ele>110.0</ele><time>2026-04-29T14:19:41.109Z</time></trkpt><trkpt lat="37.2501441" lon="13.6932146"><ele>110.0</ele><time>2026-04-29T14:19:42.108Z</time></trkpt><trkpt lat="37.2500579" lon="13.6930316"><ele>110.0</ele><time>2026-04-29T14:19:43.108Z</time></trkpt><trkpt lat="37.2499813" lon="13.6928536"><ele>110.66666666666666</ele><time>2026-04-29T14:19:44.109Z</time></trkpt><trkpt lat="37.2499199" lon="13.6926727"><ele>111.33333333333334</ele><time>2026-04-29T14:19:45.109Z</time></trkpt><trkpt lat="37.2498631" lon="13.692487"><ele>112.0</ele><time>2026-04-29T14:19:46.109Z</time></trkpt><trkpt lat="37.2498036" lon="13.6922898"><ele>109.33333333333334</ele><time>2026-04-29T14:19:47.11Z</time></trkpt><trkpt lat="37.2497446" lon="13.692094"><ele>106.66666666666666</ele><time>2026-04-29T14:19:48.109Z</time></trkpt><trkpt lat="37.2496766" lon="13.6918808"><ele>104.0</ele><time>2026-04-29T14:19:49.11Z</time></trkpt><trkpt lat="37.2496045" lon="13.6916601"><ele>104.0</ele><time>2026-04-29T14:19:50.11Z</time></trkpt><trkpt lat="37.2495399" lon="13.6914409"><ele>104.0</ele><time>2026-04-29T14:19:51.109Z</time></trkpt><trkpt lat="37.2494729" lon="13.6912162"><ele>104.0</ele><time>2026-04-29T14:19:52.109Z</time></trkpt><trkpt lat="37.2494059" lon="13.6909979"><ele>104.0</ele><time>2026-04-29T14:19:53.11Z</time></trkpt><trkpt lat="37.2493371" lon="13.690778"><ele>104.0</ele><time>2026-04-29T14:19:54.11Z</time></trkpt><trkpt lat="37.2492693" lon="13.6905632"><ele>104.0</ele><time>2026-04-29T14:19:55.108Z</time></trkpt><trkpt lat="37.2492048" lon="13.6903573"><ele>103.66666666666666</ele><time>2026-04-29T14:19:56.11Z</time></trkpt><trkpt lat="37.2491442" lon="13.6901531"><ele>103.33333333333334</ele><time>2026-04-29T14:19:57.109Z</time></trkpt><trkpt lat="37.249077" lon="13.6899626"><ele>103.0</ele><time>2026-04-29T14:19:58.11Z</time></trkpt><trkpt lat="37.2490156" lon="13.6897741"><ele>103.0</ele><time>2026-04-29T14:19:59.11Z</time></trkpt><trkpt lat="37.2489644" lon="13.6895969"><ele>103.0</ele><time>2026-04-29T14:20:00.109Z</time></trkpt><trkpt lat="37.248914" lon="13.6894328"><ele>103.0</ele><time>2026-04-29T14:20:01.109Z</time></trkpt><trkpt lat="37.2488657" lon="13.6892694"><ele>103.0</ele><time>2026-04-29T14:20:02.108Z</time></trkpt><trkpt lat="37.2488201" lon="13.6891252"><ele>102.83333333333334</ele><time>2026-04-29T14:20:03.109Z</time></trkpt><trkpt lat="37.2487847" lon="13.6890083"><ele>102.66666666666667</ele><time>2026-04-29T14:20:04.109Z</time></trkpt><trkpt lat="37.2487642" lon="13.6889273"><ele>102.5</ele><time>2026-04-29T14:20:05.109Z</time></trkpt><trkpt lat="37.2487583" lon="13.6888477"><ele>102.33333333333334</ele><time>2026-04-29T14:20:07.11Z</time></trkpt><trkpt lat="37.2488444" lon="13.6888199"><ele>102.16666666666667</ele><time>2026-04-29T14:20:10.108Z</time></trkpt><trkpt lat="37.2489053" lon="13.688777"><ele>102.0</ele><time>2026-04-29T14:20:11.108Z</time></trkpt><trkpt lat="37.2489691" lon="13.688711"><ele>102.0</ele><time>2026-04-29T14:20:12.109Z</time></trkpt><trkpt lat="37.2490365" lon="13.6886439"><ele>102.0</ele><time>2026-04-29T14:20:13.11Z</time></trkpt><trkpt lat="37.2491024" lon="13.6885827"><ele>102.0</ele><time>2026-04-29T14:20:14.108Z</time></trkpt><trkpt lat="37.2491657" lon="13.6885192"><ele>102.0</ele><time>2026-04-29T14:20:15.11Z</time></trkpt><trkpt lat="37.2492269" lon="13.6884548"><ele>102.0</ele><time>2026-04-29T14:20:16.109Z</time></trkpt><trkpt lat="37.2492961" lon="13.688388"><ele>102.0</ele><time>2026-04-29T14:20:17.109Z</time></trkpt><trkpt lat="37.2493644" lon="13.6883197"><ele>101.83333333333333</ele><time>2026-04-29T14:20:18.11Z</time></trkpt><trkpt lat="37.2494278" lon="13.688265"><ele>101.66666666666666</ele><time>2026-04-29T14:20:19.111Z</time></trkpt><trkpt lat="37.2494857" lon="13.6882251"><ele>101.5</ele><time>2026-04-29T14:20:20.109Z</time></trkpt><trkpt lat="37.2495601" lon="13.6881796"><ele>101.33333333333333</ele><time>2026-04-29T14:20:21.108Z</time></trkpt><trkpt lat="37.2496355" lon="13.6881192"><ele>101.16666666666666</ele><time>2026-04-29T14:20:22.109Z</time></trkpt><trkpt lat="37.2497227" lon="13.6880367"><ele>101.0</ele><time>2026-04-29T14:20:23.109Z</time></trkpt><trkpt lat="37.2498025" lon="13.687943"><ele>102.0</ele><time>2026-04-29T14:20:24.111Z</time></trkpt><trkpt lat="37.2498864" lon="13.687836"><ele>103.0</ele><time>2026-04-29T14:20:25.11Z</time></trkpt><trkpt lat="37.2499676" lon="13.6877169"><ele>104.0</ele><time>2026-04-29T14:20:26.109Z</time></trkpt><trkpt lat="37.2500523" lon="13.6875942"><ele>105.0</ele><time>2026-04-29T14:20:27.108Z</time></trkpt><trkpt lat="37.2501343" lon="13.6874667"><ele>105.5</ele><time>2026-04-29T14:20:28.109Z</time></trkpt><trkpt lat="37.2502161" lon="13.6873315"><ele>106.0</ele><time>2026-04-29T14:20:29.11Z</time></trkpt><trkpt lat="37.2503004" lon="13.687206"><ele>106.5</ele><time>2026-04-29T14:20:30.108Z</time></trkpt><trkpt lat="37.2503836" lon="13.6870735"><ele>107.0</ele><time>2026-04-29T14:20:31.11Z</time></trkpt><trkpt lat="37.2504672" lon="13.6869478"><ele>108.75</ele><time>2026-04-29T14:20:32.109Z</time></trkpt><trkpt lat="37.2505488" lon="13.6868249"><ele>110.5</ele><time>2026-04-29T14:20:33.11Z</time></trkpt><trkpt lat="37.2506362" lon="13.6867066"><ele>112.25</ele><time>2026-04-29T14:20:34.11Z</time></trkpt><trkpt lat="37.2507261" lon="13.6866038"><ele>114.0</ele><time>2026-04-29T14:20:35.108Z</time></trkpt><trkpt lat="37.2508248" lon="13.6865232"><ele>117.5</ele><time>2026-04-29T14:20:36.11Z</time></trkpt><trkpt lat="37.2509315" lon="13.6864532"><ele>121.0</ele><time>2026-04-29T14:20:37.108Z</time></trkpt><trkpt lat="37.251038" lon="13.6864079"><ele>124.5</ele><time>2026-04-29T14:20:38.108Z</time></trkpt><trkpt lat="37.251148" lon="13.6863638"><ele>128.0</ele><time>2026-04-29T14:20:39.11Z</time></trkpt><trkpt lat="37.2512483" lon="13.6863171"><ele>128.0</ele><time>2026-04-29T14:20:40.11Z</time></trkpt><trkpt lat="37.251339" lon="13.6862667"><ele>128.0</ele><time>2026-04-29T14:20:41.108Z</time></trkpt><trkpt lat="37.2514226" lon="13.6861924"><ele>128.0</ele><time>2026-04-29T14:20:42.108Z</time></trkpt><trkpt lat="37.2515015" lon="13.6861091"><ele>128.0</ele><time>2026-04-29T14:20:43.109Z</time></trkpt><trkpt lat="37.2515743" lon="13.6860146"><ele>128.0</ele><time>2026-04-29T14:20:44.108Z</time></trkpt><trkpt lat="37.2516465" lon="13.6859171"><ele>131.4</ele><time>2026-04-29T14:20:45.109Z</time></trkpt><trkpt lat="37.2517215" lon="13.6858228"><ele>134.8</ele><time>2026-04-29T14:20:46.109Z</time></trkpt><trkpt lat="37.251794" lon="13.685736"><ele>138.2</ele><time>2026-04-29T14:20:47.108Z</time></trkpt><trkpt lat="37.2518857" lon="13.6856759"><ele>141.6</ele><time>2026-04-29T14:20:48.11Z</time></trkpt><trkpt lat="37.2519741" lon="13.685625"><ele>145.0</ele><time>2026-04-29T14:20:49.109Z</time></trkpt><trkpt lat="37.2520782" lon="13.6855914"><ele>145.0</ele><time>2026-04-29T14:20:50.111Z</time></trkpt><trkpt lat="37.2521925" lon="13.6855728"><ele>145.0</ele><time>2026-04-29T14:20:51.109Z</time></trkpt><trkpt lat="37.2523007" lon="13.6855536"><ele>145.0</ele><time>2026-04-29T14:20:52.11Z</time></trkpt><trkpt lat="37.2524127" lon="13.6855247"><ele>145.0</ele><time>2026-04-29T14:20:53.11Z</time></trkpt><trkpt lat="37.2525229" lon="13.6854945"><ele>146.6</ele><time>2026-04-29T14:20:54.109Z</time></trkpt><trkpt lat="37.2526363" lon="13.6854705"><ele>148.2</ele><time>2026-04-29T14:20:55.108Z</time></trkpt><trkpt lat="37.2527508" lon="13.6854485"><ele>149.8</ele><time>2026-04-29T14:20:56.108Z</time></trkpt><trkpt lat="37.2528544" lon="13.685415"><ele>151.4</ele><time>2026-04-29T14:20:57.11Z</time></trkpt><trkpt lat="37.2529537" lon="13.6853846"><ele>153.0</ele><time>2026-04-29T14:20:58.108Z</time></trkpt><trkpt lat="37.2530523" lon="13.6853414"><ele>154.0</ele><time>2026-04-29T14:20:59.11Z</time></trkpt><trkpt lat="37.2531283" lon="13.685249"><ele>155.0</ele><time>2026-04-29T14:21:00.109Z</time></trkpt><trkpt lat="37.2531996" lon="13.68514"><ele>156.0</ele><time>2026-04-29T14:21:01.109Z</time></trkpt><trkpt lat="37.2532765" lon="13.6850132"><ele>157.0</ele><time>2026-04-29T14:21:02.109Z</time></trkpt><trkpt lat="37.2533515" lon="13.6848792"><ele>157.0</ele><time>2026-04-29T14:21:03.11Z</time></trkpt><trkpt lat="37.2534297" lon="13.6847301"><ele>157.0</ele><time>2026-04-29T14:21:04.108Z</time></trkpt><trkpt lat="37.2535137" lon="13.6845665"><ele>157.0</ele><time>2026-04-29T14:21:05.109Z</time></trkpt><trkpt lat="37.2535972" lon="13.6844064"><ele>157.0</ele><time>2026-04-29T14:21:06.109Z</time></trkpt><trkpt lat="37.2536795" lon="13.6842525"><ele>157.75</ele><time>2026-04-29T14:21:07.108Z</time></trkpt><trkpt lat="37.2537507" lon="13.684119"><ele>158.5</ele><time>2026-04-29T14:21:08.11Z</time></trkpt><trkpt lat="37.2538247" lon="13.6839992"><ele>159.25</ele><time>2026-04-29T14:21:09.11Z</time></trkpt><trkpt lat="37.2538987" lon="13.6838998"><ele>160.0</ele><time>2026-04-29T14:21:10.108Z</time></trkpt><trkpt lat="37.2539835" lon="13.6838247"><ele>161.6</ele><time>2026-04-29T14:21:11.109Z</time></trkpt><trkpt lat="37.2540806" lon="13.6837673"><ele>163.2</ele><time>2026-04-29T14:21:12.108Z</time></trkpt><trkpt lat="37.2541797" lon="13.6837212"><ele>164.8</ele><time>2026-04-29T14:21:13.109Z</time></trkpt><trkpt lat="37.2542876" lon="13.6836812"><ele>166.4</ele><time>2026-04-29T14:21:14.108Z</time></trkpt><trkpt lat="37.2543983" lon="13.6836357"><ele>168.0</ele><time>2026-04-29T14:21:15.109Z</time></trkpt><trkpt lat="37.2545197" lon="13.6835834"><ele>168.0</ele><time>2026-04-29T14:21:16.109Z</time></trkpt><trkpt lat="37.2546457" lon="13.6835304"><ele>168.0</ele><time>2026-04-29T14:21:17.108Z</time></trkpt><trkpt lat="37.25478" lon="13.6834763"><ele>168.0</ele><time>2026-04-29T14:21:18.108Z</time></trkpt><trkpt lat="37.2549081" lon="13.6834198"><ele>168.0</ele><time>2026-04-29T14:21:19.11Z</time></trkpt><trkpt lat="37.255028" lon="13.6833622"><ele>170.25</ele><time>2026-04-29T14:21:20.109Z</time></trkpt><trkpt lat="37.2551492" lon="13.6833069"><ele>172.5</ele><time>2026-04-29T14:21:21.109Z</time></trkpt><trkpt lat="37.2552689" lon="13.6832702"><ele>174.75</ele><time>2026-04-29T14:21:22.109Z</time></trkpt><trkpt lat="37.2553911" lon="13.6832604"><ele>177.0</ele><time>2026-04-29T14:21:23.109Z</time></trkpt><trkpt lat="37.2555092" lon="13.6832699"><ele>177.75</ele><time>2026-04-29T14:21:24.111Z</time></trkpt><trkpt lat="37.2556376" lon="13.6833217"><ele>178.5</ele><time>2026-04-29T14:21:25.109Z</time></trkpt><trkpt lat="37.2557526" lon="13.683372"><ele>179.25</ele><time>2026-04-29T14:21:26.11Z</time></trkpt><trkpt lat="37.2558633" lon="13.6834146"><ele>180.0</ele><time>2026-04-29T14:21:27.109Z</time></trkpt><trkpt lat="37.2559631" lon="13.6834537"><ele>180.0</ele><time>2026-04-29T14:21:28.108Z</time></trkpt><trkpt lat="37.2560518" lon="13.6834859"><ele>180.0</ele><time>2026-04-29T14:21:29.111Z</time></trkpt><trkpt lat="37.2561475" lon="13.6835009"><ele>180.0</ele><time>2026-04-29T14:21:30.11Z</time></trkpt><trkpt lat="37.2562452" lon="13.6834928"><ele>180.0</ele><time>2026-04-29T14:21:31.109Z</time></trkpt><trkpt lat="37.25634" lon="13.6834766"><ele>180.0</ele><time>2026-04-29T14:21:32.11Z</time></trkpt><trkpt lat="37.2564333" lon="13.6834744"><ele>180.0</ele><time>2026-04-29T14:21:33.109Z</time></trkpt><trkpt lat="37.2565214" lon="13.6834721"><ele>180.0</ele><time>2026-04-29T14:21:34.108Z</time></trkpt><trkpt lat="37.256606" lon="13.6834744"><ele>180.0</ele><time>2026-04-29T14:21:35.109Z</time></trkpt><trkpt lat="37.2566986" lon="13.6834761"><ele>180.0</ele><time>2026-04-29T14:21:36.108Z</time></trkpt><trkpt lat="37.2567938" lon="13.6834867"><ele>180.0</ele><time>2026-04-29T14:21:37.109Z</time></trkpt><trkpt lat="37.2568935" lon="13.6834906"><ele>180.0</ele><time>2026-04-29T14:21:38.108Z</time></trkpt><trkpt lat="37.25701" lon="13.6834982"><ele>180.0</ele><time>2026-04-29T14:21:39.109Z</time></trkpt><trkpt lat="37.2571203" lon="13.6835149"><ele>180.0</ele><time>2026-04-29T14:21:40.109Z</time></trkpt><trkpt lat="37.2572221" lon="13.6835259"><ele>180.0</ele><time>2026-04-29T14:21:41.109Z</time></trkpt><trkpt lat="37.2573198" lon="13.683536"><ele>180.0</ele><time>2026-04-29T14:21:42.109Z</time></trkpt><trkpt lat="37.2574057" lon="13.683552"><ele>180.6</ele><time>2026-04-29T14:21:43.109Z</time></trkpt><trkpt lat="37.2574922" lon="13.6835515"><ele>181.2</ele><time>2026-04-29T14:21:44.109Z</time></trkpt><trkpt lat="37.2575906" lon="13.6835557"><ele>181.8</ele><time>2026-04-29T14:21:45.109Z</time></trkpt><trkpt lat="37.2577041" lon="13.6835559"><ele>182.4</ele><time>2026-04-29T14:21:46.109Z</time></trkpt><trkpt lat="37.2578077" lon="13.6835456"><ele>183.0</ele><time>2026-04-29T14:21:47.109Z</time></trkpt><trkpt lat="37.2579137" lon="13.6835138"><ele>183.0</ele><time>2026-04-29T14:21:48.109Z</time></trkpt><trkpt lat="37.2580143" lon="13.6834591"><ele>183.0</ele><time>2026-04-29T14:21:49.108Z</time></trkpt><trkpt lat="37.258114" lon="13.6834022"><ele>183.0</ele><time>2026-04-29T14:21:50.108Z</time></trkpt><trkpt lat="37.258215" lon="13.683352"><ele>183.0</ele><time>2026-04-29T14:21:51.11Z</time></trkpt><trkpt lat="37.2583161" lon="13.6833151"><ele>183.0</ele><time>2026-04-29T14:21:52.108Z</time></trkpt><trkpt lat="37.258416" lon="13.683295"><ele>184.60000000000002</ele><time>2026-04-29T14:21:53.109Z</time></trkpt><trkpt lat="37.2585182" lon="13.6832761"><ele>186.20000000000002</ele><time>2026-04-29T14:21:54.108Z</time></trkpt><trkpt lat="37.2586232" lon="13.6832563"><ele>187.8</ele><time>2026-04-29T14:21:55.11Z</time></trkpt><trkpt lat="37.2587278" lon="13.6832445"><ele>189.4</ele><time>2026-04-29T14:21:56.108Z</time></trkpt><trkpt lat="37.2588313" lon="13.6832316"><ele>191.0</ele><time>2026-04-29T14:21:57.108Z</time></trkpt><trkpt lat="37.2589371" lon="13.6832224"><ele>192.0</ele><time>2026-04-29T14:21:58.109Z</time></trkpt><trkpt lat="37.2590487" lon="13.6832182"><ele>193.0</ele><time>2026-04-29T14:21:59.109Z</time></trkpt><trkpt lat="37.259155" lon="13.6832107"><ele>194.0</ele><time>2026-04-29T14:22:00.109Z</time></trkpt><trkpt lat="37.2592558" lon="13.6831995"><ele>195.0</ele><time>2026-04-29T14:22:01.109Z</time></trkpt><trkpt lat="37.2593467" lon="13.6831955"><ele>196.0</ele><time>2026-04-29T14:22:02.108Z</time></trkpt><trkpt lat="37.2594427" lon="13.6831959"><ele>195.99999999999997</ele><time>2026-04-29T14:22:03.11Z</time></trkpt><trkpt lat="37.2595404" lon="13.6832163"><ele>196.0</ele><time>2026-04-29T14:22:04.108Z</time></trkpt><trkpt lat="37.2596317" lon="13.6832218"><ele>196.0</ele><time>2026-04-29T14:22:05.109Z</time></trkpt><trkpt lat="37.2597207" lon="13.6832332"><ele>196.0</ele><time>2026-04-29T14:22:06.108Z</time></trkpt><trkpt lat="37.2598013" lon="13.6832409"><ele>195.99999999999997</ele><time>2026-04-29T14:22:07.109Z</time></trkpt><trkpt lat="37.2598821" lon="13.6832564"><ele>196.0</ele><time>2026-04-29T14:22:08.111Z</time></trkpt><trkpt lat="37.2599606" lon="13.683262"><ele>196.42857142857142</ele><time>2026-04-29T14:22:09.108Z</time></trkpt><trkpt lat="37.2600363" lon="13.6832625"><ele>196.85714285714286</ele><time>2026-04-29T14:22:10.109Z</time></trkpt><trkpt lat="37.2601086" lon="13.6832708"><ele>197.28571428571428</ele><time>2026-04-29T14:22:11.109Z</time></trkpt><trkpt lat="37.2601817" lon="13.6832887"><ele>197.71428571428572</ele><time>2026-04-29T14:22:12.108Z</time></trkpt><trkpt lat="37.260247" lon="13.6832942"><ele>198.14285714285714</ele><time>2026-04-29T14:22:13.108Z</time></trkpt><trkpt lat="37.260313" lon="13.6832901"><ele>198.57142857142856</ele><time>2026-04-29T14:22:14.109Z</time></trkpt><trkpt lat="37.2603762" lon="13.683291"><ele>199.0</ele><time>2026-04-29T14:22:15.109Z</time></trkpt><trkpt lat="37.2604385" lon="13.6833043"><ele>199.0</ele><time>2026-04-29T14:22:16.108Z</time></trkpt><trkpt lat="37.2605607" lon="13.683334"><ele>199.0</ele><time>2026-04-29T14:22:18.108Z</time></trkpt><trkpt lat="37.260682" lon="13.6833654"><ele>199.0</ele><time>2026-04-29T14:22:20.11Z</time></trkpt><trkpt lat="37.2608009" lon="13.683382"><ele>199.0</ele><time>2026-04-29T14:22:22.109Z</time></trkpt><trkpt lat="37.2608655" lon="13.6833936"><ele>199.0</ele><time>2026-04-29T14:22:23.108Z</time></trkpt><trkpt lat="37.2609334" lon="13.6834128"><ele>198.7142857142857</ele><time>2026-04-29T14:22:24.109Z</time></trkpt><trkpt lat="37.2609965" lon="13.6834409"><ele>198.42857142857142</ele><time>2026-04-29T14:22:25.109Z</time></trkpt><trkpt lat="37.2610686" lon="13.683471"><ele>198.14285714285714</ele><time>2026-04-29T14:22:26.108Z</time></trkpt><trkpt lat="37.261142" lon="13.6835039"><ele>197.85714285714283</ele><time>2026-04-29T14:22:27.108Z</time></trkpt><trkpt lat="37.2612183" lon="13.6835307"><ele>197.57142857142858</ele><time>2026-04-29T14:22:28.108Z</time></trkpt><trkpt lat="37.2612818" lon="13.6835574"><ele>197.28571428571428</ele><time>2026-04-29T14:22:29.109Z</time></trkpt><trkpt lat="37.2613433" lon="13.6835804"><ele>197.0</ele><time>2026-04-29T14:22:30.109Z</time></trkpt><trkpt lat="37.2614421" lon="13.6835932"><ele>195.50000000000003</ele><time>2026-04-29T14:22:32.108Z</time></trkpt><trkpt lat="37.2615288" lon="13.6835463"><ele>194.0</ele><time>2026-04-29T14:22:34.109Z</time></trkpt><trkpt lat="37.2616139" lon="13.6835081"><ele>192.5</ele><time>2026-04-29T14:22:36.108Z</time></trkpt><trkpt lat="37.2617007" lon="13.6834733"><ele>191.0</ele><time>2026-04-29T14:22:38.109Z</time></trkpt><trkpt lat="37.2617711" lon="13.683463"><ele>189.5</ele><time>2026-04-29T14:22:40.109Z</time></trkpt><trkpt lat="37.2616887" lon="13.6834794"><ele>188.0</ele><time>2026-04-29T14:22:46.108Z</time></trkpt><trkpt lat="37.2616237" lon="13.6835125"><ele>188.0</ele><time>2026-04-29T14:22:47.108Z</time></trkpt><trkpt lat="37.2615644" lon="13.6835446"><ele>188.0</ele><time>2026-04-29T14:22:48.108Z</time></trkpt><trkpt lat="37.2614926" lon="13.6835772"><ele>188.0</ele><time>2026-04-29T14:22:49.109Z</time></trkpt><trkpt lat="37.2614303" lon="13.6836212"><ele>188.0</ele><time>2026-04-29T14:22:50.109Z</time></trkpt><trkpt lat="37.2613684" lon="13.6836719"><ele>188.0</ele><time>2026-04-29T14:22:51.108Z</time></trkpt><trkpt lat="37.2613098" lon="13.6837154"><ele>188.0</ele><time>2026-04-29T14:22:52.108Z</time></trkpt><trkpt lat="37.2612464" lon="13.6837458"><ele>188.0</ele><time>2026-04-29T14:22:53.108Z</time></trkpt><trkpt lat="37.2611733" lon="13.6837864"><ele>189.66666666666666</ele><time>2026-04-29T14:22:54.109Z</time></trkpt><trkpt lat="37.261096" lon="13.6838141"><ele>191.33333333333331</ele><time>2026-04-29T14:22:55.108Z</time></trkpt><trkpt lat="37.2610184" lon="13.6838557"><ele>193.0</ele><time>2026-04-29T14:22:56.109Z</time></trkpt><trkpt lat="37.2609487" lon="13.6839083"><ele>194.66666666666666</ele><time>2026-04-29T14:22:57.109Z</time></trkpt><trkpt lat="37.2608864" lon="13.6839761"><ele>196.33333333333334</ele><time>2026-04-29T14:22:58.108Z</time></trkpt><trkpt lat="37.2608332" lon="13.6840573"><ele>198.0</ele><time>2026-04-29T14:22:59.109Z</time></trkpt><trkpt lat="37.2607671" lon="13.684128"><ele>198.0</ele><time>2026-04-29T14:23:00.11Z</time></trkpt><trkpt lat="37.2606967" lon="13.6841843"><ele>198.0</ele><time>2026-04-29T14:23:01.109Z</time></trkpt><trkpt lat="37.260626" lon="13.6842261"><ele>198.0</ele><time>2026-04-29T14:23:02.108Z</time></trkpt><trkpt lat="37.2605559" lon="13.6842694"><ele>198.0</ele><time>2026-04-29T14:23:03.108Z</time></trkpt><trkpt lat="37.2604789" lon="13.6843033"><ele>198.0</ele><time>2026-04-29T14:23:04.108Z</time></trkpt><trkpt lat="37.2604025" lon="13.6843471"><ele>198.0</ele><time>2026-04-29T14:23:05.109Z</time></trkpt><trkpt lat="37.2603287" lon="13.6843955"><ele>200.2</ele><time>2026-04-29T14:23:06.109Z</time></trkpt><trkpt lat="37.2602495" lon="13.6844463"><ele>202.4</ele><time>2026-04-29T14:23:07.109Z</time></trkpt><trkpt lat="37.2601676" lon="13.6844948"><ele>204.6</ele><time>2026-04-29T14:23:08.109Z</time></trkpt><trkpt lat="37.2600755" lon="13.6845381"><ele>206.79999999999998</ele><time>2026-04-29T14:23:09.109Z</time></trkpt><trkpt lat="37.2599873" lon="13.684598"><ele>209.0</ele><time>2026-04-29T14:23:10.108Z</time></trkpt><trkpt lat="37.2599035" lon="13.6846793"><ele>209.0</ele><time>2026-04-29T14:23:11.108Z</time></trkpt><trkpt lat="37.2598247" lon="13.6847674"><ele>209.0</ele><time>2026-04-29T14:23:12.108Z</time></trkpt><trkpt lat="37.2597551" lon="13.6848655"><ele>209.0</ele><time>2026-04-29T14:23:13.109Z</time></trkpt><trkpt lat="37.2597049" lon="13.6849637"><ele>209.0</ele><time>2026-04-29T14:23:14.109Z</time></trkpt><trkpt lat="37.2596641" lon="13.685057"><ele>209.0</ele><time>2026-04-29T14:23:15.109Z</time></trkpt><trkpt lat="37.2596116" lon="13.6851321"><ele>209.16666666666669</ele><time>2026-04-29T14:23:16.109Z</time></trkpt><trkpt lat="37.2595454" lon="13.6851837"><ele>209.33333333333334</ele><time>2026-04-29T14:23:17.109Z</time></trkpt><trkpt lat="37.2594704" lon="13.6852179"><ele>209.5</ele><time>2026-04-29T14:23:18.109Z</time></trkpt><trkpt lat="37.2593924" lon="13.6852639"><ele>209.66666666666669</ele><time>2026-04-29T14:23:19.109Z</time></trkpt><trkpt lat="37.2593188" lon="13.6853223"><ele>209.83333333333334</ele><time>2026-04-29T14:23:20.108Z</time></trkpt><trkpt lat="37.2592453" lon="13.6853899"><ele>210.0</ele><time>2026-04-29T14:23:21.107Z</time></trkpt><trkpt lat="37.2591764" lon="13.6854413"><ele>211.5</ele><time>2026-04-29T14:23:22.108Z</time></trkpt><trkpt lat="37.2591122" lon="13.6854922"><ele>213.0</ele><time>2026-04-29T14:23:23.108Z</time></trkpt><trkpt lat="37.2590475" lon="13.6855452"><ele>214.5</ele><time>2026-04-29T14:23:24.109Z</time></trkpt><trkpt lat="37.2589814" lon="13.6855971"><ele>216.0</ele><time>2026-04-29T14:23:25.109Z</time></trkpt><trkpt lat="37.2589051" lon="13.6856632"><ele>217.5</ele><time>2026-04-29T14:23:26.108Z</time></trkpt><trkpt lat="37.25883" lon="13.6857273"><ele>219.0</ele><time>2026-04-29T14:23:27.108Z</time></trkpt><trkpt lat="37.2587519" lon="13.6857957"><ele>219.0</ele><time>2026-04-29T14:23:28.109Z</time></trkpt><trkpt lat="37.2586703" lon="13.6858637"><ele>218.99999999999997</ele><time>2026-04-29T14:23:29.109Z</time></trkpt><trkpt lat="37.2585863" lon="13.6859328"><ele>218.99999999999997</ele><time>2026-04-29T14:23:30.108Z</time></trkpt><trkpt lat="37.2585003" lon="13.6859998"><ele>219.0</ele><time>2026-04-29T14:23:31.108Z</time></trkpt><trkpt lat="37.2584127" lon="13.6860702"><ele>219.0</ele><time>2026-04-29T14:23:32.109Z</time></trkpt><trkpt lat="37.2583374" lon="13.6861413"><ele>219.66666666666666</ele><time>2026-04-29T14:23:33.109Z</time></trkpt><trkpt lat="37.25827" lon="13.6862281"><ele>220.33333333333331</ele><time>2026-04-29T14:23:34.109Z</time></trkpt><trkpt lat="37.2582098" lon="13.686312"><ele>221.0</ele><time>2026-04-29T14:23:35.109Z</time></trkpt><trkpt lat="37.2581589" lon="13.6863938"><ele>221.66666666666666</ele><time>2026-04-29T14:23:36.108Z</time></trkpt><trkpt lat="37.258104" lon="13.6864796"><ele>222.33333333333331</ele><time>2026-04-29T14:23:37.109Z</time></trkpt><trkpt lat="37.2580566" lon="13.6865475"><ele>223.0</ele><time>2026-04-29T14:23:38.109Z</time></trkpt><trkpt lat="37.2580052" lon="13.6865991"><ele>222.99999999999997</ele><time>2026-04-29T14:23:39.109Z</time></trkpt><trkpt lat="37.2579465" lon="13.6866385"><ele>223.0</ele><time>2026-04-29T14:23:40.109Z</time></trkpt><trkpt lat="37.2578884" lon="13.6866712"><ele>223.0</ele><time>2026-04-29T14:23:41.109Z</time></trkpt><trkpt lat="37.2578249" lon="13.6866965"><ele>223.0</ele><time>2026-04-29T14:23:42.108Z</time></trkpt><trkpt lat="37.2577088" lon="13.6867558"><ele>222.99999999999997</ele><time>2026-04-29T14:23:44.109Z</time></trkpt><trkpt lat="37.2576205" lon="13.6868273"><ele>223.0</ele><time>2026-04-29T14:23:46.109Z</time></trkpt><trkpt lat="37.2575328" lon="13.6869113"><ele>223.0</ele><time>2026-04-29T14:23:48.11Z</time></trkpt><trkpt lat="37.2574438" lon="13.6870174"><ele>223.0</ele><time>2026-04-29T14:23:50.109Z</time></trkpt><trkpt lat="37.2573732" lon="13.6871045"><ele>223.0</ele><time>2026-04-29T14:23:52.108Z</time></trkpt><trkpt lat="37.2573029" lon="13.6871942"><ele>223.0</ele><time>2026-04-29T14:23:54.108Z</time></trkpt><trkpt lat="37.2572268" lon="13.6872959"><ele>223.0</ele><time>2026-04-29T14:23:56.109Z</time></trkpt><trkpt lat="37.257176" lon="13.6873519"><ele>223.0</ele><time>2026-04-29T14:23:57.11Z</time></trkpt><trkpt lat="37.2570899" lon="13.6874595"><ele>223.0</ele><time>2026-04-29T14:23:59.11Z</time></trkpt><trkpt lat="37.2570233" lon="13.6875623"><ele>223.0</ele><time>2026-04-29T14:24:01.108Z</time></trkpt><trkpt lat="37.2569592" lon="13.6876718"><ele>223.0</ele><time>2026-04-29T14:24:03.107Z</time></trkpt><trkpt lat="37.2569121" lon="13.6877771"><ele>223.0</ele><time>2026-04-29T14:24:05.108Z</time></trkpt><trkpt lat="37.2568628" lon="13.6878873"><ele>222.66666666666666</ele><time>2026-04-29T14:24:07.108Z</time></trkpt><trkpt lat="37.2568119" lon="13.6879982"><ele>222.33333333333331</ele><time>2026-04-29T14:24:09.11Z</time></trkpt><trkpt lat="37.2567523" lon="13.6881247"><ele>222.0</ele><time>2026-04-29T14:24:11.108Z</time></trkpt><trkpt lat="37.2567107" lon="13.6881931"><ele>221.66666666666669</ele><time>2026-04-29T14:24:12.108Z</time></trkpt><trkpt lat="37.2566672" lon="13.6882627"><ele>221.33333333333334</ele><time>2026-04-29T14:24:13.108Z</time></trkpt><trkpt lat="37.2566219" lon="13.688331"><ele>221.0</ele><time>2026-04-29T14:24:14.109Z</time></trkpt><trkpt lat="37.2565765" lon="13.6884105"><ele>221.00000000000003</ele><time>2026-04-29T14:24:15.109Z</time></trkpt><trkpt lat="37.256522" lon="13.6884764"><ele>221.0</ele><time>2026-04-29T14:24:16.108Z</time></trkpt><trkpt lat="37.2564742" lon="13.6885491"><ele>221.0</ele><time>2026-04-29T14:24:17.109Z</time></trkpt><trkpt lat="37.256423" lon="13.6886293"><ele>221.0</ele><time>2026-04-29T14:24:18.107Z</time></trkpt><trkpt lat="37.2563698" lon="13.6887034"><ele>221.00000000000003</ele><time>2026-04-29T14:24:19.108Z</time></trkpt><trkpt lat="37.2563237" lon="13.6887813"><ele>221.0</ele><time>2026-04-29T14:24:20.108Z</time></trkpt><trkpt lat="37.2562721" lon="13.6888414"><ele>218.33333333333334</ele><time>2026-04-29T14:24:21.108Z</time></trkpt><trkpt lat="37.2562177" lon="13.6889143"><ele>215.66666666666669</ele><time>2026-04-29T14:24:22.109Z</time></trkpt><trkpt lat="37.2561682" lon="13.6889874"><ele>213.0</ele><time>2026-04-29T14:24:23.108Z</time></trkpt><trkpt lat="37.2561278" lon="13.689068"><ele>210.33333333333331</ele><time>2026-04-29T14:24:24.108Z</time></trkpt><trkpt lat="37.2560975" lon="13.6891693"><ele>207.66666666666666</ele><time>2026-04-29T14:24:25.11Z</time></trkpt><trkpt lat="37.2560688" lon="13.6892688"><ele>205.0</ele><time>2026-04-29T14:24:26.108Z</time></trkpt><trkpt lat="37.256039" lon="13.6893661"><ele>204.83333333333331</ele><time>2026-04-29T14:24:27.107Z</time></trkpt><trkpt lat="37.2559967" lon="13.68946"><ele>204.66666666666666</ele><time>2026-04-29T14:24:28.108Z</time></trkpt><trkpt lat="37.2559578" lon="13.6895488"><ele>204.5</ele><time>2026-04-29T14:24:29.108Z</time></trkpt><trkpt lat="37.2559158" lon="13.6896405"><ele>204.33333333333331</ele><time>2026-04-29T14:24:30.108Z</time></trkpt><trkpt lat="37.2558699" lon="13.6897265"><ele>204.16666666666666</ele><time>2026-04-29T14:24:31.109Z</time></trkpt><trkpt lat="37.2558195" lon="13.6898013"><ele>204.0</ele><time>2026-04-29T14:24:32.109Z</time></trkpt><trkpt lat="37.2557561" lon="13.6898651"><ele>204.0</ele><time>2026-04-29T14:24:33.108Z</time></trkpt><trkpt lat="37.2556968" lon="13.6899287"><ele>204.0</ele><time>2026-04-29T14:24:34.11Z</time></trkpt><trkpt lat="37.2556439" lon="13.6899935"><ele>204.0</ele><time>2026-04-29T14:24:35.108Z</time></trkpt><trkpt lat="37.2555925" lon="13.6900504"><ele>204.0</ele><time>2026-04-29T14:24:36.11Z</time></trkpt><trkpt lat="37.2555314" lon="13.6901093"><ele>204.0</ele><time>2026-04-29T14:24:37.108Z</time></trkpt><trkpt lat="37.2554674" lon="13.6901681"><ele>204.0</ele><time>2026-04-29T14:24:38.108Z</time></trkpt><trkpt lat="37.255402" lon="13.6902238"><ele>202.16666666666666</ele><time>2026-04-29T14:24:39.108Z</time></trkpt><trkpt lat="37.2553388" lon="13.690271"><ele>200.33333333333331</ele><time>2026-04-29T14:24:40.108Z</time></trkpt><trkpt lat="37.2552741" lon="13.690321"><ele>198.5</ele><time>2026-04-29T14:24:41.108Z</time></trkpt><trkpt lat="37.2552094" lon="13.6903716"><ele>196.66666666666666</ele><time>2026-04-29T14:24:42.11Z</time></trkpt><trkpt lat="37.2551395" lon="13.6904292"><ele>194.83333333333331</ele><time>2026-04-29T14:24:43.108Z</time></trkpt><trkpt lat="37.2550679" lon="13.6904947"><ele>193.0</ele><time>2026-04-29T14:24:44.107Z</time></trkpt><trkpt lat="37.255004" lon="13.6905716"><ele>192.99999999999997</ele><time>2026-04-29T14:24:45.11Z</time></trkpt><trkpt lat="37.2549432" lon="13.6906481"><ele>193.0</ele><time>2026-04-29T14:24:46.109Z</time></trkpt><trkpt lat="37.2548788" lon="13.6907264"><ele>193.0</ele><time>2026-04-29T14:24:47.107Z</time></trkpt><trkpt lat="37.2548191" lon="13.6908083"><ele>193.0</ele><time>2026-04-29T14:24:48.108Z</time></trkpt><trkpt lat="37.2547686" lon="13.6908951"><ele>192.99999999999997</ele><time>2026-04-29T14:24:49.108Z</time></trkpt><trkpt lat="37.2547286" lon="13.6909914"><ele>193.0</ele><time>2026-04-29T14:24:50.107Z</time></trkpt><trkpt lat="37.2547125" lon="13.6910945"><ele>190.2</ele><time>2026-04-29T14:24:51.108Z</time></trkpt><trkpt lat="37.2547025" lon="13.6911966"><ele>187.4</ele><time>2026-04-29T14:24:52.109Z</time></trkpt><trkpt lat="37.2547021" lon="13.6912871"><ele>184.6</ele><time>2026-04-29T14:24:53.109Z</time></trkpt><trkpt lat="37.2547015" lon="13.6913709"><ele>181.79999999999998</ele><time>2026-04-29T14:24:54.109Z</time></trkpt><trkpt lat="37.254671" lon="13.6915149"><ele>179.0</ele><time>2026-04-29T14:24:56.109Z</time></trkpt><trkpt lat="37.2545917" lon="13.6916248"><ele>179.0</ele><time>2026-04-29T14:24:58.109Z</time></trkpt><trkpt lat="37.2544969" lon="13.6916927"><ele>179.0</ele><time>2026-04-29T14:25:00.108Z</time></trkpt><trkpt lat="37.2544059" lon="13.6917551"><ele>179.0</ele><time>2026-04-29T14:25:02.107Z</time></trkpt><trkpt lat="37.2543146" lon="13.6917955"><ele>179.0</ele><time>2026-04-29T14:25:04.109Z</time></trkpt><trkpt lat="37.2542326" lon="13.6918824"><ele>179.0</ele><time>2026-04-29T14:25:06.109Z</time></trkpt><trkpt lat="37.2541814" lon="13.6919988"><ele>177.6</ele><time>2026-04-29T14:25:08.108Z</time></trkpt><trkpt lat="37.2541321" lon="13.6921412"><ele>176.2</ele><time>2026-04-29T14:25:10.109Z</time></trkpt><trkpt lat="37.2541013" lon="13.6922122"><ele>174.79999999999998</ele><time>2026-04-29T14:25:11.108Z</time></trkpt><trkpt lat="37.2540051" lon="13.6923002"><ele>173.39999999999998</ele><time>2026-04-29T14:25:13.107Z</time></trkpt><trkpt lat="37.2538822" lon="13.6923433"><ele>172.0</ele><time>2026-04-29T14:25:15.108Z</time></trkpt><trkpt lat="37.2538131" lon="13.6923701"><ele>172.0</ele><time>2026-04-29T14:25:16.108Z</time></trkpt><trkpt lat="37.2537447" lon="13.6924175"><ele>172.0</ele><time>2026-04-29T14:25:17.107Z</time></trkpt><trkpt lat="37.2536711" lon="13.6924782"><ele>172.0</ele><time>2026-04-29T14:25:18.109Z</time></trkpt><trkpt lat="37.253587" lon="13.692547"><ele>172.0</ele><time>2026-04-29T14:25:19.107Z</time></trkpt><trkpt lat="37.2535072" lon="13.6926084"><ele>172.0</ele><time>2026-04-29T14:25:20.108Z</time></trkpt><trkpt lat="37.2534368" lon="13.6926734"><ele>172.0</ele><time>2026-04-29T14:25:21.108Z</time></trkpt><trkpt lat="37.2533686" lon="13.6927338"><ele>173.16666666666669</ele><time>2026-04-29T14:25:22.109Z</time></trkpt><trkpt lat="37.2533013" lon="13.692795"><ele>174.33333333333334</ele><time>2026-04-29T14:25:23.109Z</time></trkpt><trkpt lat="37.2532314" lon="13.692853"><ele>175.5</ele><time>2026-04-29T14:25:24.109Z</time></trkpt><trkpt lat="37.2531658" lon="13.6929138"><ele>176.66666666666666</ele><time>2026-04-29T14:25:25.109Z</time></trkpt><trkpt lat="37.2531035" lon="13.6929741"><ele>177.83333333333331</ele><time>2026-04-29T14:25:26.109Z</time></trkpt><trkpt lat="37.2530537" lon="13.6930411"><ele>179.0</ele><time>2026-04-29T14:25:27.109Z</time></trkpt><trkpt lat="37.2530151" lon="13.6931132"><ele>176.5</ele><time>2026-04-29T14:25:28.109Z</time></trkpt><trkpt lat="37.2529829" lon="13.6931895"><ele>174.0</ele><time>2026-04-29T14:25:29.109Z</time></trkpt><trkpt lat="37.2529531" lon="13.6932716"><ele>171.5</ele><time>2026-04-29T14:25:30.108Z</time></trkpt><trkpt lat="37.2529324" lon="13.6933502"><ele>169.0</ele><time>2026-04-29T14:25:31.108Z</time></trkpt><trkpt lat="37.2529259" lon="13.6934344"><ele>166.5</ele><time>2026-04-29T14:25:32.109Z</time></trkpt><trkpt lat="37.2529202" lon="13.6935147"><ele>164.0</ele><time>2026-04-29T14:25:33.108Z</time></trkpt><trkpt lat="37.2529102" lon="13.6936633"><ele>164.0</ele><time>2026-04-29T14:25:35.108Z</time></trkpt><trkpt lat="37.2529092" lon="13.6937892"><ele>164.0</ele><time>2026-04-29T14:25:37.107Z</time></trkpt><trkpt lat="37.2529124" lon="13.6938901"><ele>164.0</ele><time>2026-04-29T14:25:40.108Z</time></trkpt><trkpt lat="37.2529077" lon="13.6937714"><ele>164.0</ele><time>2026-04-29T14:25:47.108Z</time></trkpt><trkpt lat="37.2529039" lon="13.6935962"><ele>164.0</ele><time>2026-04-29T14:25:49.108Z</time></trkpt><trkpt lat="37.2529101" lon="13.6935073"><ele>164.0</ele><time>2026-04-29T14:25:50.107Z</time></trkpt><trkpt lat="37.2529199" lon="13.693406"><ele>164.0</ele><time>2026-04-29T14:25:51.108Z</time></trkpt><trkpt lat="37.2529406" lon="13.6932981"><ele>164.0</ele><time>2026-04-29T14:25:52.11Z</time></trkpt><trkpt lat="37.2529813" lon="13.6931865"><ele>164.0</ele><time>2026-04-29T14:25:53.107Z</time></trkpt><trkpt lat="37.2530467" lon="13.6930853"><ele>164.0</ele><time>2026-04-29T14:25:54.109Z</time></trkpt><trkpt lat="37.2531189" lon="13.6929904"><ele>166.0</ele><time>2026-04-29T14:25:55.107Z</time></trkpt><trkpt lat="37.2532037" lon="13.6929024"><ele>168.0</ele><time>2026-04-29T14:25:56.108Z</time></trkpt><trkpt lat="37.2532962" lon="13.6928138"><ele>170.0</ele><time>2026-04-29T14:25:57.107Z</time></trkpt><trkpt lat="37.2533942" lon="13.692719"><ele>172.0</ele><time>2026-04-29T14:25:58.108Z</time></trkpt><trkpt lat="37.2534846" lon="13.6926331"><ele>172.0</ele><time>2026-04-29T14:25:59.108Z</time></trkpt><trkpt lat="37.2535798" lon="13.6925499"><ele>172.0</ele><time>2026-04-29T14:26:00.109Z</time></trkpt><trkpt lat="37.2536766" lon="13.6924768"><ele>172.0</ele><time>2026-04-29T14:26:01.109Z</time></trkpt><trkpt lat="37.253771" lon="13.6924105"><ele>172.0</ele><time>2026-04-29T14:26:02.11Z</time></trkpt><trkpt lat="37.2538776" lon="13.6923498"><ele>175.0</ele><time>2026-04-29T14:26:03.108Z</time></trkpt><trkpt lat="37.253973" lon="13.6923092"><ele>178.0</ele><time>2026-04-29T14:26:04.108Z</time></trkpt><trkpt lat="37.2540586" lon="13.6922493"><ele>181.0</ele><time>2026-04-29T14:26:05.108Z</time></trkpt><trkpt lat="37.2541178" lon="13.692167"><ele>184.0</ele><time>2026-04-29T14:26:06.11Z</time></trkpt><trkpt lat="37.2541627" lon="13.6920589"><ele>187.0</ele><time>2026-04-29T14:26:07.108Z</time></trkpt><trkpt lat="37.2542014" lon="13.6919425"><ele>185.66666666666669</ele><time>2026-04-29T14:26:08.109Z</time></trkpt><trkpt lat="37.2542543" lon="13.6918554"><ele>184.33333333333334</ele><time>2026-04-29T14:26:09.109Z</time></trkpt><trkpt lat="37.2543214" lon="13.6917968"><ele>183.0</ele><time>2026-04-29T14:26:10.108Z</time></trkpt><trkpt lat="37.2544008" lon="13.6917473"><ele>181.66666666666666</ele><time>2026-04-29T14:26:11.109Z</time></trkpt><trkpt lat="37.2544838" lon="13.6916963"><ele>180.33333333333331</ele><time>2026-04-29T14:26:12.108Z</time></trkpt><trkpt lat="37.2545671" lon="13.6916439"><ele>179.0</ele><time>2026-04-29T14:26:13.108Z</time></trkpt><trkpt lat="37.2546356" lon="13.6915696"><ele>179.0</ele><time>2026-04-29T14:26:14.109Z</time></trkpt><trkpt lat="37.2546853" lon="13.6914799"><ele>179.0</ele><time>2026-04-29T14:26:15.108Z</time></trkpt><trkpt lat="37.2546859" lon="13.6913563"><ele>179.0</ele><time>2026-04-29T14:26:16.108Z</time></trkpt><trkpt lat="37.25469" lon="13.6912278"><ele>179.0</ele><time>2026-04-29T14:26:17.107Z</time></trkpt><trkpt lat="37.254704" lon="13.6911005"><ele>179.0</ele><time>2026-04-29T14:26:18.108Z</time></trkpt><trkpt lat="37.2547435" lon="13.6909711"><ele>182.5</ele><time>2026-04-29T14:26:19.108Z</time></trkpt><trkpt lat="37.2547995" lon="13.6908546"><ele>186.0</ele><time>2026-04-29T14:26:20.109Z</time></trkpt><trkpt lat="37.2548748" lon="13.6907474"><ele>189.5</ele><time>2026-04-29T14:26:21.11Z</time></trkpt><trkpt lat="37.2549599" lon="13.6906438"><ele>193.0</ele><time>2026-04-29T14:26:22.107Z</time></trkpt><trkpt lat="37.2550448" lon="13.6905374"><ele>193.0</ele><time>2026-04-29T14:26:23.107Z</time></trkpt><trkpt lat="37.2551337" lon="13.6904436"><ele>193.0</ele><time>2026-04-29T14:26:24.109Z</time></trkpt><trkpt lat="37.2552316" lon="13.6903581"><ele>193.0</ele><time>2026-04-29T14:26:25.109Z</time></trkpt><trkpt lat="37.2553277" lon="13.6902828"><ele>193.0</ele><time>2026-04-29T14:26:26.107Z</time></trkpt><trkpt lat="37.2554217" lon="13.6902079"><ele>192.25</ele><time>2026-04-29T14:26:27.108Z</time></trkpt><trkpt lat="37.2555143" lon="13.6901257"><ele>191.5</ele><time>2026-04-29T14:26:28.108Z</time></trkpt><trkpt lat="37.2556033" lon="13.6900328"><ele>190.75</ele><time>2026-04-29T14:26:29.107Z</time></trkpt><trkpt lat="37.2556948" lon="13.6899384"><ele>190.0</ele><time>2026-04-29T14:26:30.108Z</time></trkpt><trkpt lat="37.2557825" lon="13.6898392"><ele>193.5</ele><time>2026-04-29T14:26:31.108Z</time></trkpt><trkpt lat="37.255868" lon="13.6897241"><ele>197.0</ele><time>2026-04-29T14:26:32.108Z</time></trkpt><trkpt lat="37.2559491" lon="13.6896058"><ele>200.5</ele><time>2026-04-29T14:26:33.107Z</time></trkpt><trkpt lat="37.2560103" lon="13.6894546"><ele>204.0</ele><time>2026-04-29T14:26:34.109Z</time></trkpt><trkpt lat="37.2560586" lon="13.6892984"><ele>204.25</ele><time>2026-04-29T14:26:35.108Z</time></trkpt><trkpt lat="37.256109" lon="13.6891538"><ele>204.5</ele><time>2026-04-29T14:26:36.108Z</time></trkpt><trkpt lat="37.2561647" lon="13.6890212"><ele>204.75</ele><time>2026-04-29T14:26:37.109Z</time></trkpt><trkpt lat="37.2562274" lon="13.688901"><ele>205.0</ele><time>2026-04-29T14:26:38.108Z</time></trkpt><trkpt lat="37.2563033" lon="13.6887801"><ele>205.0</ele><time>2026-04-29T14:26:39.109Z</time></trkpt><trkpt lat="37.2563842" lon="13.6886654"><ele>205.0</ele><time>2026-04-29T14:26:40.108Z</time></trkpt><trkpt lat="37.25646" lon="13.6885565"><ele>205.0</ele><time>2026-04-29T14:26:41.11Z</time></trkpt><trkpt lat="37.2565369" lon="13.688447"><ele>205.0</ele><time>2026-04-29T14:26:42.108Z</time></trkpt><trkpt lat="37.2566091" lon="13.6883364"><ele>209.0</ele><time>2026-04-29T14:26:43.108Z</time></trkpt><trkpt lat="37.2566768" lon="13.6882216"><ele>213.0</ele><time>2026-04-29T14:26:44.108Z</time></trkpt><trkpt lat="37.2567437" lon="13.6881008"><ele>217.0</ele><time>2026-04-29T14:26:45.107Z</time></trkpt><trkpt lat="37.2568065" lon="13.6879785"><ele>221.0</ele><time>2026-04-29T14:26:46.109Z</time></trkpt><trkpt lat="37.2568661" lon="13.6878603"><ele>221.5</ele><time>2026-04-29T14:26:47.107Z</time></trkpt><trkpt lat="37.256923" lon="13.6877388"><ele>222.0</ele><time>2026-04-29T14:26:48.109Z</time></trkpt><trkpt lat="37.2569886" lon="13.6876227"><ele>222.5</ele><time>2026-04-29T14:26:49.108Z</time></trkpt><trkpt lat="37.2570615" lon="13.6875101"><ele>223.0</ele><time>2026-04-29T14:26:50.108Z</time></trkpt><trkpt lat="37.2571514" lon="13.6873956"><ele>223.0</ele><time>2026-04-29T14:26:51.108Z</time></trkpt><trkpt lat="37.257236" lon="13.6872852"><ele>223.0</ele><time>2026-04-29T14:26:52.107Z</time></trkpt><trkpt lat="37.2573212" lon="13.6871737"><ele>223.0</ele><time>2026-04-29T14:26:53.107Z</time></trkpt><trkpt lat="37.2574082" lon="13.6870761"><ele>223.0</ele><time>2026-04-29T14:26:54.11Z</time></trkpt><trkpt lat="37.2574878" lon="13.6869812"><ele>223.0</ele><time>2026-04-29T14:26:55.108Z</time></trkpt><trkpt lat="37.2575736" lon="13.6868917"><ele>223.0</ele><time>2026-04-29T14:26:56.108Z</time></trkpt><trkpt lat="37.2576472" lon="13.686813"><ele>223.0</ele><time>2026-04-29T14:26:57.108Z</time></trkpt><trkpt lat="37.2577225" lon="13.6867516"><ele>223.0</ele><time>2026-04-29T14:26:58.109Z</time></trkpt><trkpt lat="37.257808" lon="13.6867074"><ele>223.0</ele><time>2026-04-29T14:26:59.109Z</time></trkpt><trkpt lat="37.257893" lon="13.6866609"><ele>222.99999999999997</ele><time>2026-04-29T14:27:00.108Z</time></trkpt><trkpt lat="37.2579814" lon="13.686616"><ele>223.0</ele><time>2026-04-29T14:27:01.107Z</time></trkpt><trkpt lat="37.2580509" lon="13.6865471"><ele>223.0</ele><time>2026-04-29T14:27:02.108Z</time></trkpt><trkpt lat="37.2581074" lon="13.68648"><ele>223.0</ele><time>2026-04-29T14:27:03.108Z</time></trkpt><trkpt lat="37.2581572" lon="13.6864085"><ele>222.99999999999997</ele><time>2026-04-29T14:27:04.108Z</time></trkpt><trkpt lat="37.2582071" lon="13.6863307"><ele>223.0</ele><time>2026-04-29T14:27:05.108Z</time></trkpt><trkpt lat="37.2582616" lon="13.6862421"><ele>222.33333333333331</ele><time>2026-04-29T14:27:06.108Z</time></trkpt><trkpt lat="37.258313" lon="13.6861653"><ele>221.66666666666666</ele><time>2026-04-29T14:27:07.109Z</time></trkpt><trkpt lat="37.2583737" lon="13.6860927"><ele>221.0</ele><time>2026-04-29T14:27:08.109Z</time></trkpt><trkpt lat="37.2584394" lon="13.6860308"><ele>220.33333333333331</ele><time>2026-04-29T14:27:09.107Z</time></trkpt><trkpt lat="37.258503" lon="13.6859871"><ele>219.66666666666666</ele><time>2026-04-29T14:27:10.108Z</time></trkpt><trkpt lat="37.2585692" lon="13.6859411"><ele>219.0</ele><time>2026-04-29T14:27:11.108Z</time></trkpt><trkpt lat="37.2586295" lon="13.6858954"><ele>219.0</ele><time>2026-04-29T14:27:12.108Z</time></trkpt><trkpt lat="37.2586918" lon="13.6858434"><ele>219.0</ele><time>2026-04-29T14:27:13.108Z</time></trkpt><trkpt lat="37.2587519" lon="13.6857954"><ele>219.0</ele><time>2026-04-29T14:27:14.107Z</time></trkpt><trkpt lat="37.25881" lon="13.6857479"><ele>219.0</ele><time>2026-04-29T14:27:15.108Z</time></trkpt><trkpt lat="37.2588636" lon="13.6857057"><ele>219.0</ele><time>2026-04-29T14:27:16.108Z</time></trkpt><trkpt lat="37.2589175" lon="13.6856644"><ele>219.0</ele><time>2026-04-29T14:27:17.109Z</time></trkpt><trkpt lat="37.2590103" lon="13.6855845"><ele>219.25</ele><time>2026-04-29T14:27:19.108Z</time></trkpt><trkpt lat="37.2590969" lon="13.6855125"><ele>219.5</ele><time>2026-04-29T14:27:21.108Z</time></trkpt><trkpt lat="37.2591824" lon="13.6854424"><ele>219.75</ele><time>2026-04-29T14:27:23.109Z</time></trkpt><trkpt lat="37.2592761" lon="13.6853565"><ele>220.0</ele><time>2026-04-29T14:27:25.109Z</time></trkpt><trkpt lat="37.2593856" lon="13.6852728"><ele>218.33333333333331</ele><time>2026-04-29T14:27:27.108Z</time></trkpt><trkpt lat="37.2594442" lon="13.6852353"><ele>216.66666666666666</ele><time>2026-04-29T14:27:28.108Z</time></trkpt><trkpt lat="37.2595084" lon="13.685206"><ele>215.0</ele><time>2026-04-29T14:27:29.108Z</time></trkpt><trkpt lat="37.2595695" lon="13.6851749"><ele>213.33333333333331</ele><time>2026-04-29T14:27:30.107Z</time></trkpt><trkpt lat="37.2596586" lon="13.6850674"><ele>211.66666666666666</ele><time>2026-04-29T14:27:32.109Z</time></trkpt><trkpt lat="37.2596869" lon="13.6849895"><ele>210.0</ele><time>2026-04-29T14:27:33.109Z</time></trkpt><trkpt lat="37.2597203" lon="13.6849147"><ele>210.0</ele><time>2026-04-29T14:27:34.109Z</time></trkpt><trkpt lat="37.2597672" lon="13.6848454"><ele>210.0</ele><time>2026-04-29T14:27:35.108Z</time></trkpt><trkpt lat="37.2598159" lon="13.6847831"><ele>210.0</ele><time>2026-04-29T14:27:36.108Z</time></trkpt><trkpt lat="37.2598635" lon="13.6847257"><ele>210.0</ele><time>2026-04-29T14:27:37.108Z</time></trkpt><trkpt lat="37.2599127" lon="13.6846693"><ele>210.0</ele><time>2026-04-29T14:27:38.108Z</time></trkpt><trkpt lat="37.2600075" lon="13.6845857"><ele>210.0</ele><time>2026-04-29T14:27:40.107Z</time></trkpt><trkpt lat="37.2601165" lon="13.6845255"><ele>209.8</ele><time>2026-04-29T14:27:42.108Z</time></trkpt><trkpt lat="37.2602171" lon="13.6844611"><ele>209.6</ele><time>2026-04-29T14:27:44.108Z</time></trkpt><trkpt lat="37.2603224" lon="13.6843922"><ele>209.39999999999998</ele><time>2026-04-29T14:27:46.108Z</time></trkpt><trkpt lat="37.2604339" lon="13.6843347"><ele>209.2</ele><time>2026-04-29T14:27:48.108Z</time></trkpt><trkpt lat="37.2604968" lon="13.6843"><ele>209.0</ele><time>2026-04-29T14:27:49.107Z</time></trkpt><trkpt lat="37.260554" lon="13.6842623"><ele>207.42857142857142</ele><time>2026-04-29T14:27:50.109Z</time></trkpt><trkpt lat="37.2606171" lon="13.6842201"><ele>205.85714285714283</ele><time>2026-04-29T14:27:51.109Z</time></trkpt><trkpt lat="37.2606797" lon="13.6841819"><ele>204.28571428571428</ele><time>2026-04-29T14:27:52.108Z</time></trkpt><trkpt lat="37.2607401" lon="13.6841425"><ele>202.71428571428572</ele><time>2026-04-29T14:27:53.107Z</time></trkpt><trkpt lat="37.2607939" lon="13.6840914"><ele>201.14285714285714</ele><time>2026-04-29T14:27:54.108Z</time></trkpt><trkpt lat="37.2608412" lon="13.6840311"><ele>199.57142857142858</ele><time>2026-04-29T14:27:55.108Z</time></trkpt><trkpt lat="37.2608882" lon="13.6839663"><ele>198.0</ele><time>2026-04-29T14:27:56.108Z</time></trkpt><trkpt lat="37.2609369" lon="13.683911"><ele>198.0</ele><time>2026-04-29T14:27:57.108Z</time></trkpt><trkpt lat="37.2609947" lon="13.6838761"><ele>198.0</ele><time>2026-04-29T14:27:58.108Z</time></trkpt><trkpt lat="37.2610538" lon="13.6838448"><ele>198.0</ele><time>2026-04-29T14:27:59.108Z</time></trkpt><trkpt lat="37.2611753" lon="13.6837844"><ele>198.0</ele><time>2026-04-29T14:28:01.107Z</time></trkpt><trkpt lat="37.2612316" lon="13.6837439"><ele>198.0</ele><time>2026-04-29T14:28:02.108Z</time></trkpt><trkpt lat="37.261341" lon="13.6836728"><ele>198.0</ele><time>2026-04-29T14:28:04.109Z</time></trkpt><trkpt lat="37.2614014" lon="13.6836286"><ele>196.33333333333334</ele><time>2026-04-29T14:28:05.107Z</time></trkpt><trkpt lat="37.2614618" lon="13.6835878"><ele>194.66666666666666</ele><time>2026-04-29T14:28:06.109Z</time></trkpt><trkpt lat="37.2615287" lon="13.6835442"><ele>193.0</ele><time>2026-04-29T14:28:07.107Z</time></trkpt><trkpt lat="37.2616042" lon="13.683508"><ele>191.33333333333331</ele><time>2026-04-29T14:28:08.109Z</time></trkpt><trkpt lat="37.2616863" lon="13.6834764"><ele>189.66666666666666</ele><time>2026-04-29T14:28:09.107Z</time></trkpt><trkpt lat="37.261763" lon="13.6834411"><ele>188.0</ele><time>2026-04-29T14:28:10.107Z</time></trkpt><trkpt lat="37.2618358" lon="13.6833981"><ele>188.0</ele><time>2026-04-29T14:28:11.109Z</time></trkpt><trkpt lat="37.2619042" lon="13.6833542"><ele>188.0</ele><time>2026-04-29T14:28:12.107Z</time></trkpt><trkpt lat="37.2619663" lon="13.6833173"><ele>188.0</ele><time>2026-04-29T14:28:13.109Z</time></trkpt><trkpt lat="37.2620313" lon="13.6832897"><ele>188.0</ele><time>2026-04-29T14:28:14.108Z</time></trkpt><trkpt lat="37.2621033" lon="13.6832786"><ele>188.0</ele><time>2026-04-29T14:28:15.108Z</time></trkpt><trkpt lat="37.2622217" lon="13.6833489"><ele>188.0</ele><time>2026-04-29T14:28:17.109Z</time></trkpt><trkpt lat="37.2622848" lon="13.6833849"><ele>185.5</ele><time>2026-04-29T14:28:18.108Z</time></trkpt><trkpt lat="37.262353" lon="13.6834009"><ele>183.0</ele><time>2026-04-29T14:28:19.108Z</time></trkpt><trkpt lat="37.2624198" lon="13.6833818"><ele>180.5</ele><time>2026-04-29T14:28:20.109Z</time></trkpt><trkpt lat="37.262472" lon="13.6833356"><ele>178.0</ele><time>2026-04-29T14:28:21.108Z</time></trkpt><trkpt lat="37.2625689" lon="13.6832438"><ele>175.5</ele><time>2026-04-29T14:28:23.109Z</time></trkpt><trkpt lat="37.2626566" lon="13.6832539"><ele>173.0</ele><time>2026-04-29T14:28:24.107Z</time></trkpt><trkpt lat="37.2627208" lon="13.683296"><ele>173.0</ele><time>2026-04-29T14:28:25.108Z</time></trkpt><trkpt lat="37.2627844" lon="13.6833453"><ele>173.0</ele><time>2026-04-29T14:28:26.108Z</time></trkpt><trkpt lat="37.2628438" lon="13.6834046"><ele>173.0</ele><time>2026-04-29T14:28:27.108Z</time></trkpt><trkpt lat="37.2628934" lon="13.6834704"><ele>173.0</ele><time>2026-04-29T14:28:28.109Z</time></trkpt><trkpt lat="37.2629386" lon="13.6835426"><ele>173.0</ele><time>2026-04-29T14:28:29.107Z</time></trkpt><trkpt lat="37.2629856" lon="13.6836071"><ele>173.0</ele><time>2026-04-29T14:28:30.108Z</time></trkpt><trkpt lat="37.2630767" lon="13.6836571"><ele>169.83333333333331</ele><time>2026-04-29T14:28:32.108Z</time></trkpt><trkpt lat="37.2631875" lon="13.68362"><ele>166.66666666666666</ele><time>2026-04-29T14:28:34.109Z</time></trkpt><trkpt lat="37.2632454" lon="13.6835653"><ele>163.5</ele><time>2026-04-29T14:28:35.109Z</time></trkpt><trkpt lat="37.2633086" lon="13.6835155"><ele>160.33333333333334</ele><time>2026-04-29T14:28:36.108Z</time></trkpt><trkpt lat="37.2633768" lon="13.6834615"><ele>157.16666666666669</ele><time>2026-04-29T14:28:37.107Z</time></trkpt><trkpt lat="37.2634541" lon="13.6834175"><ele>154.0</ele><time>2026-04-29T14:28:38.109Z</time></trkpt><trkpt lat="37.2635368" lon="13.6833955"><ele>154.0</ele><time>2026-04-29T14:28:39.107Z</time></trkpt><trkpt lat="37.2636266" lon="13.6833967"><ele>154.0</ele><time>2026-04-29T14:28:40.109Z</time></trkpt><trkpt lat="37.263726" lon="13.6834179"><ele>154.0</ele><time>2026-04-29T14:28:41.108Z</time></trkpt><trkpt lat="37.2638221" lon="13.6834656"><ele>154.0</ele><time>2026-04-29T14:28:42.109Z</time></trkpt><trkpt lat="37.2639197" lon="13.683521"><ele>154.0</ele><time>2026-04-29T14:28:43.11Z</time></trkpt><trkpt lat="37.264022" lon="13.6835714"><ele>150.25</ele><time>2026-04-29T14:28:44.107Z</time></trkpt><trkpt lat="37.2641331" lon="13.68362"><ele>146.5</ele><time>2026-04-29T14:28:45.109Z</time></trkpt><trkpt lat="37.2642399" lon="13.6836797"><ele>142.75</ele><time>2026-04-29T14:28:46.108Z</time></trkpt><trkpt lat="37.2643424" lon="13.6837366"><ele>139.0</ele><time>2026-04-29T14:28:47.107Z</time></trkpt><trkpt lat="37.2644409" lon="13.683783"><ele>139.0</ele><time>2026-04-29T14:28:48.109Z</time></trkpt><trkpt lat="37.2645356" lon="13.68383"><ele>139.0</ele><time>2026-04-29T14:28:49.108Z</time></trkpt><trkpt lat="37.2646275" lon="13.683879"><ele>139.0</ele><time>2026-04-29T14:28:50.108Z</time></trkpt><trkpt lat="37.2647252" lon="13.6839258"><ele>139.0</ele><time>2026-04-29T14:28:51.107Z</time></trkpt><trkpt lat="37.2648251" lon="13.6839698"><ele>139.0</ele><time>2026-04-29T14:28:52.109Z</time></trkpt><trkpt lat="37.2649222" lon="13.6839912"><ele>136.2</ele><time>2026-04-29T14:28:53.109Z</time></trkpt><trkpt lat="37.2650197" lon="13.6839966"><ele>133.4</ele><time>2026-04-29T14:28:54.107Z</time></trkpt><trkpt lat="37.2651093" lon="13.6839971"><ele>130.6</ele><time>2026-04-29T14:28:55.107Z</time></trkpt><trkpt lat="37.2651979" lon="13.6840032"><ele>127.8</ele><time>2026-04-29T14:28:56.109Z</time></trkpt><trkpt lat="37.265285" lon="13.6840199"><ele>125.0</ele><time>2026-04-29T14:28:57.109Z</time></trkpt><trkpt lat="37.2653728" lon="13.6840458"><ele>124.99999999999999</ele><time>2026-04-29T14:28:58.108Z</time></trkpt><trkpt lat="37.2654627" lon="13.6840738"><ele>125.0</ele><time>2026-04-29T14:28:59.108Z</time></trkpt><trkpt lat="37.2655476" lon="13.6841021"><ele>125.0</ele><time>2026-04-29T14:29:00.108Z</time></trkpt><trkpt lat="37.2656334" lon="13.6841327"><ele>125.0</ele><time>2026-04-29T14:29:01.108Z</time></trkpt><trkpt lat="37.2657169" lon="13.6841647"><ele>124.99999999999999</ele><time>2026-04-29T14:29:02.107Z</time></trkpt><trkpt lat="37.2658013" lon="13.6842031"><ele>125.0</ele><time>2026-04-29T14:29:03.108Z</time></trkpt><trkpt lat="37.2658854" lon="13.6842366"><ele>123.0</ele><time>2026-04-29T14:29:04.107Z</time></trkpt><trkpt lat="37.2659631" lon="13.6842651"><ele>121.0</ele><time>2026-04-29T14:29:05.108Z</time></trkpt><trkpt lat="37.2660821" lon="13.6843034"><ele>119.0</ele><time>2026-04-29T14:29:07.107Z</time></trkpt><trkpt lat="37.2661934" lon="13.6843025"><ele>117.0</ele><time>2026-04-29T14:29:09.108Z</time></trkpt><trkpt lat="37.2663034" lon="13.6842701"><ele>115.0</ele><time>2026-04-29T14:29:11.108Z</time></trkpt><trkpt lat="37.266402" lon="13.6842028"><ele>113.0</ele><time>2026-04-29T14:29:13.109Z</time></trkpt><trkpt lat="37.266494" lon="13.6841201"><ele>111.0</ele><time>2026-04-29T14:29:15.109Z</time></trkpt><trkpt lat="37.2665865" lon="13.6840309"><ele>109.0</ele><time>2026-04-29T14:29:17.108Z</time></trkpt><trkpt lat="37.2666899" lon="13.6839425"><ele>107.0</ele><time>2026-04-29T14:29:19.107Z</time></trkpt><trkpt lat="37.2667947" lon="13.6838721"><ele>106.99999999999999</ele><time>2026-04-29T14:29:21.108Z</time></trkpt><trkpt lat="37.2668504" lon="13.6838311"><ele>107.0</ele><time>2026-04-29T14:29:22.109Z</time></trkpt><trkpt lat="37.2669087" lon="13.6837969"><ele>107.0</ele><time>2026-04-29T14:29:23.109Z</time></trkpt><trkpt lat="37.2669691" lon="13.6837611"><ele>107.0</ele><time>2026-04-29T14:29:24.108Z</time></trkpt><trkpt lat="37.267025" lon="13.6837238"><ele>106.99999999999999</ele><time>2026-04-29T14:29:25.108Z</time></trkpt><trkpt lat="37.2671328" lon="13.6836701"><ele>107.0</ele><time>2026-04-29T14:29:27.108Z</time></trkpt><trkpt lat="37.2672376" lon="13.6836241"><ele>105.39999999999999</ele><time>2026-04-29T14:29:29.109Z</time></trkpt><trkpt lat="37.2673528" lon="13.6835723"><ele>103.79999999999998</ele><time>2026-04-29T14:29:31.109Z</time></trkpt><trkpt lat="37.267465" lon="13.6835143"><ele>102.2</ele><time>2026-04-29T14:29:33.108Z</time></trkpt><trkpt lat="37.2675748" lon="13.683471"><ele>100.6</ele><time>2026-04-29T14:29:35.107Z</time></trkpt><trkpt lat="37.2676589" lon="13.683444"><ele>99.0</ele><time>2026-04-29T14:29:37.109Z</time></trkpt><trkpt lat="37.267736" lon="13.6833988"><ele>99.0</ele><time>2026-04-29T14:36:06.108Z</time></trkpt><trkpt lat="37.2678496" lon="13.6833223"><ele>99.0</ele><time>2026-04-29T14:36:08.107Z</time></trkpt><trkpt lat="37.2679314" lon="13.6832834"><ele>99.0</ele><time>2026-04-29T14:36:09.107Z</time></trkpt><trkpt lat="37.2680266" lon="13.6832629"><ele>99.0</ele><time>2026-04-29T14:36:10.107Z</time></trkpt><trkpt lat="37.2681111" lon="13.6832671"><ele>99.0</ele><time>2026-04-29T14:36:11.108Z</time></trkpt><trkpt lat="37.2681898" lon="13.6833096"><ele>98.4</ele><time>2026-04-29T14:36:12.108Z</time></trkpt><trkpt lat="37.2682547" lon="13.6833815"><ele>97.80000000000001</ele><time>2026-04-29T14:36:13.107Z</time></trkpt><trkpt lat="37.2683148" lon="13.6834561"><ele>97.19999999999999</ele><time>2026-04-29T14:36:14.107Z</time></trkpt><trkpt lat="37.268386" lon="13.683527"><ele>96.6</ele><time>2026-04-29T14:36:15.107Z</time></trkpt><trkpt lat="37.2684718" lon="13.6835748"><ele>96.0</ele><time>2026-04-29T14:36:16.107Z</time></trkpt><trkpt lat="37.2685656" lon="13.6835902"><ele>96.0</ele><time>2026-04-29T14:36:17.107Z</time></trkpt><trkpt lat="37.2686707" lon="13.68357"><ele>96.0</ele><time>2026-04-29T14:36:18.107Z</time></trkpt><trkpt lat="37.2687963" lon="13.6835219"><ele>96.0</ele><time>2026-04-29T14:36:19.106Z</time></trkpt><trkpt lat="37.268929" lon="13.6834687"><ele>96.0</ele><time>2026-04-29T14:36:20.107Z</time></trkpt><trkpt lat="37.2690712" lon="13.6834253"><ele>98.66666666666666</ele><time>2026-04-29T14:36:21.107Z</time></trkpt><trkpt lat="37.2692251" lon="13.6833906"><ele>101.33333333333333</ele><time>2026-04-29T14:36:22.107Z</time></trkpt><trkpt lat="37.2693902" lon="13.6833603"><ele>104.0</ele><time>2026-04-29T14:36:23.106Z</time></trkpt><trkpt lat="37.2695635" lon="13.6833331"><ele>104.0</ele><time>2026-04-29T14:36:24.108Z</time></trkpt><trkpt lat="37.2697355" lon="13.6833015"><ele>104.0</ele><time>2026-04-29T14:36:25.107Z</time></trkpt><trkpt lat="37.2698888" lon="13.6832739"><ele>104.0</ele><time>2026-04-29T14:36:26.109Z</time></trkpt><trkpt lat="37.270033" lon="13.6832527"><ele>107.0</ele><time>2026-04-29T14:36:27.108Z</time></trkpt><trkpt lat="37.270176" lon="13.6832376"><ele>110.0</ele><time>2026-04-29T14:36:28.108Z</time></trkpt><trkpt lat="37.2702929" lon="13.6832392"><ele>113.0</ele><time>2026-04-29T14:36:29.107Z</time></trkpt><trkpt lat="37.2704099" lon="13.6832572"><ele>116.0</ele><time>2026-04-29T14:36:30.107Z</time></trkpt><trkpt lat="37.2705255" lon="13.683278"><ele>118.0</ele><time>2026-04-29T14:36:31.108Z</time></trkpt><trkpt lat="37.2706429" lon="13.6832765"><ele>120.0</ele><time>2026-04-29T14:36:32.107Z</time></trkpt><trkpt lat="37.2707699" lon="13.6832482"><ele>122.0</ele><time>2026-04-29T14:36:33.108Z</time></trkpt><trkpt lat="37.270911" lon="13.6832192"><ele>124.0</ele><time>2026-04-29T14:36:34.108Z</time></trkpt><trkpt lat="37.2710547" lon="13.6831861"><ele>124.0</ele><time>2026-04-29T14:36:35.108Z</time></trkpt><trkpt lat="37.2711812" lon="13.6831685"><ele>124.0</ele><time>2026-04-29T14:36:36.107Z</time></trkpt><trkpt lat="37.2713103" lon="13.6831659"><ele>124.0</ele><time>2026-04-29T14:36:37.108Z</time></trkpt><trkpt lat="37.2714468" lon="13.6831774"><ele>124.0</ele><time>2026-04-29T14:36:38.107Z</time></trkpt><trkpt lat="37.2715892" lon="13.6832008"><ele>125.25</ele><time>2026-04-29T14:36:39.107Z</time></trkpt><trkpt lat="37.2717319" lon="13.68323"><ele>126.5</ele><time>2026-04-29T14:36:40.108Z</time></trkpt><trkpt lat="37.2718783" lon="13.6832653"><ele>127.75</ele><time>2026-04-29T14:36:41.107Z</time></trkpt><trkpt lat="37.2720271" lon="13.6833188"><ele>129.0</ele><time>2026-04-29T14:36:42.107Z</time></trkpt><trkpt lat="37.2721754" lon="13.6833707"><ele>132.33333333333334</ele><time>2026-04-29T14:36:43.107Z</time></trkpt><trkpt lat="37.2723306" lon="13.6834153"><ele>135.66666666666669</ele><time>2026-04-29T14:36:44.107Z</time></trkpt><trkpt lat="37.2724945" lon="13.6834467"><ele>139.0</ele><time>2026-04-29T14:36:45.107Z</time></trkpt><trkpt lat="37.2726694" lon="13.6834433"><ele>139.0</ele><time>2026-04-29T14:36:46.107Z</time></trkpt><trkpt lat="37.2728505" lon="13.6834299"><ele>139.0</ele><time>2026-04-29T14:36:47.107Z</time></trkpt><trkpt lat="37.2730322" lon="13.6834109"><ele>139.0</ele><time>2026-04-29T14:36:48.106Z</time></trkpt><trkpt lat="37.2731904" lon="13.6834048"><ele>142.66666666666669</ele><time>2026-04-29T14:36:49.107Z</time></trkpt><trkpt lat="37.2733484" lon="13.6834065"><ele>146.33333333333334</ele><time>2026-04-29T14:36:50.109Z</time></trkpt><trkpt lat="37.2735111" lon="13.6834252"><ele>150.0</ele><time>2026-04-29T14:36:51.107Z</time></trkpt><trkpt lat="37.2736763" lon="13.683451"><ele>150.0</ele><time>2026-04-29T14:36:52.108Z</time></trkpt><trkpt lat="37.2738414" lon="13.6834848"><ele>150.0</ele><time>2026-04-29T14:36:53.107Z</time></trkpt><trkpt lat="37.2740056" lon="13.6835138"><ele>150.0</ele><time>2026-04-29T14:36:54.107Z</time></trkpt><trkpt lat="37.2741543" lon="13.6835396"><ele>152.66666666666666</ele><time>2026-04-29T14:36:55.107Z</time></trkpt><trkpt lat="37.2742921" lon="13.6835904"><ele>155.33333333333331</ele><time>2026-04-29T14:36:56.108Z</time></trkpt><trkpt lat="37.2744293" lon="13.6836711"><ele>158.0</ele><time>2026-04-29T14:36:57.107Z</time></trkpt><trkpt lat="37.2745681" lon="13.6837638"><ele>158.0</ele><time>2026-04-29T14:36:58.107Z</time></trkpt><trkpt lat="37.2747087" lon="13.6838673"><ele>158.0</ele><time>2026-04-29T14:36:59.107Z</time></trkpt><trkpt lat="37.2748531" lon="13.6839743"><ele>158.0</ele><time>2026-04-29T14:37:00.107Z</time></trkpt><trkpt lat="37.2750051" lon="13.6840822"><ele>160.66666666666666</ele><time>2026-04-29T14:37:01.108Z</time></trkpt><trkpt lat="37.27516" lon="13.6842023"><ele>163.33333333333334</ele><time>2026-04-29T14:37:02.107Z</time></trkpt><trkpt lat="37.2753186" lon="13.6843204"><ele>166.0</ele><time>2026-04-29T14:37:03.108Z</time></trkpt><trkpt lat="37.2754858" lon="13.6844382"><ele>170.33333333333334</ele><time>2026-04-29T14:37:04.106Z</time></trkpt><trkpt lat="37.2756595" lon="13.6845471"><ele>174.66666666666666</ele><time>2026-04-29T14:37:05.107Z</time></trkpt><trkpt lat="37.2758186" lon="13.6846327"><ele>179.0</ele><time>2026-04-29T14:37:06.106Z</time></trkpt><trkpt lat="37.2759671" lon="13.6847131"><ele>179.0</ele><time>2026-04-29T14:37:07.107Z</time></trkpt><trkpt lat="37.2760899" lon="13.684777"><ele>179.0</ele><time>2026-04-29T14:37:08.108Z</time></trkpt><trkpt lat="37.2762082" lon="13.6848398"><ele>179.0</ele><time>2026-04-29T14:37:09.107Z</time></trkpt><trkpt lat="37.276324" lon="13.6849179"><ele>179.0</ele><time>2026-04-29T14:37:10.107Z</time></trkpt><trkpt lat="37.2764347" lon="13.6849713"><ele>180.79999999999998</ele><time>2026-04-29T14:37:11.109Z</time></trkpt><trkpt lat="37.2765244" lon="13.6850215"><ele>182.6</ele><time>2026-04-29T14:37:12.108Z</time></trkpt><trkpt lat="37.2766124" lon="13.6850735"><ele>184.4</ele><time>2026-04-29T14:37:13.107Z</time></trkpt><trkpt lat="37.2767013" lon="13.6851136"><ele>186.2</ele><time>2026-04-29T14:37:14.107Z</time></trkpt><trkpt lat="37.2767858" lon="13.6851488"><ele>188.0</ele><time>2026-04-29T14:37:15.107Z</time></trkpt><trkpt lat="37.2769406" lon="13.6852175"><ele>188.2</ele><time>2026-04-29T14:37:17.107Z</time></trkpt><trkpt lat="37.2770252" lon="13.6852625"><ele>188.4</ele><time>2026-04-29T14:37:18.107Z</time></trkpt><trkpt lat="37.2771214" lon="13.6853034"><ele>188.6</ele><time>2026-04-29T14:37:19.106Z</time></trkpt><trkpt lat="37.2772313" lon="13.6853512"><ele>188.79999999999998</ele><time>2026-04-29T14:37:20.108Z</time></trkpt><trkpt lat="37.2773596" lon="13.6853893"><ele>189.0</ele><time>2026-04-29T14:37:21.108Z</time></trkpt><trkpt lat="37.2774921" lon="13.6854332"><ele>189.0</ele><time>2026-04-29T14:37:22.106Z</time></trkpt><trkpt lat="37.2776271" lon="13.6854743"><ele>189.0</ele><time>2026-04-29T14:37:23.107Z</time></trkpt><trkpt lat="37.2777585" lon="13.6855141"><ele>189.0</ele><time>2026-04-29T14:37:24.107Z</time></trkpt><trkpt lat="37.2779019" lon="13.6855359"><ele>189.0</ele><time>2026-04-29T14:37:25.106Z</time></trkpt><trkpt lat="37.2780552" lon="13.6855305"><ele>190.33333333333331</ele><time>2026-04-29T14:37:26.107Z</time></trkpt><trkpt lat="37.2782172" lon="13.6855227"><ele>191.66666666666666</ele><time>2026-04-29T14:37:27.108Z</time></trkpt><trkpt lat="37.2783898" lon="13.6854997"><ele>193.0</ele><time>2026-04-29T14:37:28.108Z</time></trkpt><trkpt lat="37.2785675" lon="13.6854682"><ele>193.0</ele><time>2026-04-29T14:37:29.106Z</time></trkpt><trkpt lat="37.2787403" lon="13.6854248"><ele>193.0</ele><time>2026-04-29T14:37:30.106Z</time></trkpt><trkpt lat="37.278897" lon="13.6853783"><ele>193.0</ele><time>2026-04-29T14:37:31.107Z</time></trkpt><trkpt lat="37.2790541" lon="13.6853492"><ele>193.66666666666666</ele><time>2026-04-29T14:37:32.107Z</time></trkpt><trkpt lat="37.2792183" lon="13.6853096"><ele>194.33333333333331</ele><time>2026-04-29T14:37:33.107Z</time></trkpt><trkpt lat="37.2793894" lon="13.685259"><ele>195.0</ele><time>2026-04-29T14:37:34.106Z</time></trkpt><trkpt lat="37.2795518" lon="13.6852031"><ele>199.0</ele><time>2026-04-29T14:37:35.108Z</time></trkpt><trkpt lat="37.2797104" lon="13.6851377"><ele>203.0</ele><time>2026-04-29T14:37:36.108Z</time></trkpt><trkpt lat="37.2798624" lon="13.6850757"><ele>207.0</ele><time>2026-04-29T14:37:37.108Z</time></trkpt><trkpt lat="37.2800056" lon="13.6850226"><ele>207.0</ele><time>2026-04-29T14:37:38.107Z</time></trkpt><trkpt lat="37.2801515" lon="13.6849659"><ele>207.0</ele><time>2026-04-29T14:37:39.107Z</time></trkpt><trkpt lat="37.2803003" lon="13.6849114"><ele>207.0</ele><time>2026-04-29T14:37:40.107Z</time></trkpt><trkpt lat="37.2804548" lon="13.6848534"><ele>206.33333333333331</ele><time>2026-04-29T14:37:41.107Z</time></trkpt><trkpt lat="37.280611" lon="13.6847958"><ele>205.66666666666666</ele><time>2026-04-29T14:37:42.106Z</time></trkpt><trkpt lat="37.2807711" lon="13.6847398"><ele>205.0</ele><time>2026-04-29T14:37:43.108Z</time></trkpt><trkpt lat="37.2809351" lon="13.6846877"><ele>205.0</ele><time>2026-04-29T14:37:44.108Z</time></trkpt><trkpt lat="37.281101" lon="13.6846274"><ele>205.0</ele><time>2026-04-29T14:37:45.108Z</time></trkpt><trkpt lat="37.2812701" lon="13.6845664"><ele>205.0</ele><time>2026-04-29T14:37:46.107Z</time></trkpt><trkpt lat="37.281446" lon="13.6845046"><ele>207.0</ele><time>2026-04-29T14:37:47.106Z</time></trkpt><trkpt lat="37.2816259" lon="13.68443"><ele>209.0</ele><time>2026-04-29T14:37:48.107Z</time></trkpt><trkpt lat="37.281815" lon="13.684358"><ele>211.0</ele><time>2026-04-29T14:37:49.107Z</time></trkpt><trkpt lat="37.2820009" lon="13.6842828"><ele>212.33333333333331</ele><time>2026-04-29T14:37:50.107Z</time></trkpt><trkpt lat="37.2821672" lon="13.6842155"><ele>213.66666666666669</ele><time>2026-04-29T14:37:51.107Z</time></trkpt><trkpt lat="37.2823226" lon="13.6841589"><ele>215.0</ele><time>2026-04-29T14:37:52.107Z</time></trkpt><trkpt lat="37.2824799" lon="13.6841055"><ele>215.66666666666669</ele><time>2026-04-29T14:37:53.106Z</time></trkpt><trkpt lat="37.2826357" lon="13.6840534"><ele>216.33333333333331</ele><time>2026-04-29T14:37:54.107Z</time></trkpt><trkpt lat="37.2828054" lon="13.684008"><ele>217.0</ele><time>2026-04-29T14:37:55.108Z</time></trkpt><trkpt lat="37.2829742" lon="13.6839679"><ele>217.66666666666666</ele><time>2026-04-29T14:37:56.107Z</time></trkpt><trkpt lat="37.2831508" lon="13.6839296"><ele>218.33333333333331</ele><time>2026-04-29T14:37:57.108Z</time></trkpt><trkpt lat="37.2833359" lon="13.6838916"><ele>219.0</ele><time>2026-04-29T14:37:58.107Z</time></trkpt><trkpt lat="37.2835327" lon="13.6838527"><ele>219.0</ele><time>2026-04-29T14:37:59.107Z</time></trkpt><trkpt lat="37.2837224" lon="13.6838068"><ele>219.0</ele><time>2026-04-29T14:38:00.107Z</time></trkpt><trkpt lat="37.2838999" lon="13.6837534"><ele>219.0</ele><time>2026-04-29T14:38:01.107Z</time></trkpt><trkpt lat="37.2840718" lon="13.6836955"><ele>219.0</ele><time>2026-04-29T14:38:02.108Z</time></trkpt><trkpt lat="37.2842361" lon="13.683639"><ele>219.0</ele><time>2026-04-29T14:38:03.107Z</time></trkpt><trkpt lat="37.2843935" lon="13.6835837"><ele>219.0</ele><time>2026-04-29T14:38:04.107Z</time></trkpt><trkpt lat="37.2845556" lon="13.6835098"><ele>219.66666666666669</ele><time>2026-04-29T14:38:05.108Z</time></trkpt><trkpt lat="37.2847223" lon="13.6834449"><ele>220.33333333333334</ele><time>2026-04-29T14:38:06.107Z</time></trkpt><trkpt lat="37.2848864" lon="13.6833775"><ele>221.0</ele><time>2026-04-29T14:38:07.108Z</time></trkpt><trkpt lat="37.2850579" lon="13.683303"><ele>221.33333333333334</ele><time>2026-04-29T14:38:08.106Z</time></trkpt><trkpt lat="37.2852325" lon="13.6832315"><ele>221.66666666666669</ele><time>2026-04-29T14:38:09.107Z</time></trkpt><trkpt lat="37.285417" lon="13.6831602"><ele>222.0</ele><time>2026-04-29T14:38:10.106Z</time></trkpt><trkpt lat="37.2856017" lon="13.6830903"><ele>223.0</ele><time>2026-04-29T14:38:11.107Z</time></trkpt><trkpt lat="37.2857812" lon="13.6830262"><ele>224.0</ele><time>2026-04-29T14:38:12.107Z</time></trkpt><trkpt lat="37.2859361" lon="13.6829705"><ele>225.0</ele><time>2026-04-29T14:38:13.106Z</time></trkpt><trkpt lat="37.2860856" lon="13.6829187"><ele>225.0</ele><time>2026-04-29T14:38:14.108Z</time></trkpt><trkpt lat="37.2862186" lon="13.6828673"><ele>225.0</ele><time>2026-04-29T14:38:15.108Z</time></trkpt><trkpt lat="37.2863558" lon="13.6828168"><ele>225.0</ele><time>2026-04-29T14:38:16.107Z</time></trkpt><trkpt lat="37.2864914" lon="13.6827709"><ele>225.0</ele><time>2026-04-29T14:38:17.107Z</time></trkpt><trkpt lat="37.2866315" lon="13.6827197"><ele>225.33333333333331</ele><time>2026-04-29T14:38:18.107Z</time></trkpt><trkpt lat="37.2867812" lon="13.6826621"><ele>225.66666666666666</ele><time>2026-04-29T14:38:19.107Z</time></trkpt><trkpt lat="37.2869331" lon="13.6825925"><ele>226.0</ele><time>2026-04-29T14:38:20.107Z</time></trkpt><trkpt lat="37.2870881" lon="13.6825181"><ele>226.0</ele><time>2026-04-29T14:38:21.107Z</time></trkpt><trkpt lat="37.2872467" lon="13.6824264"><ele>226.0</ele><time>2026-04-29T14:38:22.107Z</time></trkpt><trkpt lat="37.2874031" lon="13.6823351"><ele>226.0</ele><time>2026-04-29T14:38:23.107Z</time></trkpt><trkpt lat="37.2875575" lon="13.6822454"><ele>226.66666666666666</ele><time>2026-04-29T14:38:24.108Z</time></trkpt><trkpt lat="37.2876977" lon="13.6821662"><ele>227.33333333333331</ele><time>2026-04-29T14:38:25.106Z</time></trkpt><trkpt lat="37.2878391" lon="13.6820849"><ele>228.0</ele><time>2026-04-29T14:38:26.108Z</time></trkpt><trkpt lat="37.287982" lon="13.6819957"><ele>229.33333333333331</ele><time>2026-04-29T14:38:27.106Z</time></trkpt><trkpt lat="37.2881274" lon="13.6819041"><ele>230.66666666666666</ele><time>2026-04-29T14:38:28.106Z</time></trkpt><trkpt lat="37.2882761" lon="13.6818112"><ele>232.0</ele><time>2026-04-29T14:38:29.107Z</time></trkpt><trkpt lat="37.2884257" lon="13.6817183"><ele>232.0</ele><time>2026-04-29T14:38:30.107Z</time></trkpt><trkpt lat="37.2885762" lon="13.6816261"><ele>232.0</ele><time>2026-04-29T14:38:31.107Z</time></trkpt><trkpt lat="37.2887321" lon="13.6815329"><ele>232.0</ele><time>2026-04-29T14:38:32.107Z</time></trkpt><trkpt lat="37.2888746" lon="13.6814464"><ele>234.0</ele><time>2026-04-29T14:38:33.108Z</time></trkpt><trkpt lat="37.2890195" lon="13.6813593"><ele>236.0</ele><time>2026-04-29T14:38:34.107Z</time></trkpt><trkpt lat="37.289165" lon="13.6812647"><ele>238.0</ele><time>2026-04-29T14:38:35.106Z</time></trkpt><trkpt lat="37.2893133" lon="13.6811761"><ele>239.0</ele><time>2026-04-29T14:38:36.107Z</time></trkpt><trkpt lat="37.2894628" lon="13.681081"><ele>240.0</ele><time>2026-04-29T14:38:37.107Z</time></trkpt><trkpt lat="37.2896145" lon="13.6809932"><ele>241.0</ele><time>2026-04-29T14:38:38.107Z</time></trkpt><trkpt lat="37.2897764" lon="13.6809054"><ele>241.66666666666666</ele><time>2026-04-29T14:38:39.107Z</time></trkpt><trkpt lat="37.2899447" lon="13.6808194"><ele>242.33333333333331</ele><time>2026-04-29T14:38:40.108Z</time></trkpt><trkpt lat="37.2901124" lon="13.6807353"><ele>243.0</ele><time>2026-04-29T14:38:41.107Z</time></trkpt><trkpt lat="37.2902832" lon="13.6806495"><ele>243.0</ele><time>2026-04-29T14:38:42.107Z</time></trkpt><trkpt lat="37.2904299" lon="13.6805853"><ele>243.0</ele><time>2026-04-29T14:38:43.106Z</time></trkpt><trkpt lat="37.2905753" lon="13.6805148"><ele>243.0</ele><time>2026-04-29T14:38:44.106Z</time></trkpt><trkpt lat="37.2907035" lon="13.6804595"><ele>243.0</ele><time>2026-04-29T14:38:45.107Z</time></trkpt><trkpt lat="37.290816" lon="13.6803936"><ele>243.75</ele><time>2026-04-29T14:38:46.106Z</time></trkpt><trkpt lat="37.2909436" lon="13.6803247"><ele>244.5</ele><time>2026-04-29T14:38:47.107Z</time></trkpt><trkpt lat="37.2910709" lon="13.6802541"><ele>245.25</ele><time>2026-04-29T14:38:48.108Z</time></trkpt><trkpt lat="37.2912021" lon="13.6801563"><ele>246.0</ele><time>2026-04-29T14:38:49.107Z</time></trkpt><trkpt lat="37.2913453" lon="13.6800652"><ele>247.0</ele><time>2026-04-29T14:38:50.107Z</time></trkpt><trkpt lat="37.2914886" lon="13.6799685"><ele>248.0</ele><time>2026-04-29T14:38:51.106Z</time></trkpt><trkpt lat="37.291636" lon="13.6798654"><ele>249.0</ele><time>2026-04-29T14:38:52.107Z</time></trkpt><trkpt lat="37.2917754" lon="13.6797614"><ele>249.0</ele><time>2026-04-29T14:38:53.107Z</time></trkpt><trkpt lat="37.2919149" lon="13.6796572"><ele>249.0</ele><time>2026-04-29T14:38:54.108Z</time></trkpt><trkpt lat="37.2920666" lon="13.6795474"><ele>249.0</ele><time>2026-04-29T14:38:55.106Z</time></trkpt><trkpt lat="37.2922273" lon="13.6794405"><ele>250.0</ele><time>2026-04-29T14:38:56.107Z</time></trkpt><trkpt lat="37.2924024" lon="13.679316"><ele>251.0</ele><time>2026-04-29T14:38:57.107Z</time></trkpt><trkpt lat="37.2925606" lon="13.6792064"><ele>252.0</ele><time>2026-04-29T14:38:58.106Z</time></trkpt><trkpt lat="37.2927106" lon="13.6791052"><ele>252.0</ele><time>2026-04-29T14:38:59.107Z</time></trkpt><trkpt lat="37.2928444" lon="13.6790122"><ele>252.0</ele><time>2026-04-29T14:39:00.107Z</time></trkpt><trkpt lat="37.2929613" lon="13.6789333"><ele>252.0</ele><time>2026-04-29T14:39:01.108Z</time></trkpt><trkpt lat="37.2930602" lon="13.6788805"><ele>252.0</ele><time>2026-04-29T14:39:02.107Z</time></trkpt><trkpt lat="37.2931477" lon="13.678827"><ele>252.0</ele><time>2026-04-29T14:39:03.107Z</time></trkpt><trkpt lat="37.2932276" lon="13.6787558"><ele>252.0</ele><time>2026-04-29T14:39:04.107Z</time></trkpt><trkpt lat="37.2933116" lon="13.6786614"><ele>252.0</ele><time>2026-04-29T14:39:05.108Z</time></trkpt><trkpt lat="37.2933999" lon="13.6785708"><ele>252.0</ele><time>2026-04-29T14:39:06.107Z</time></trkpt><trkpt lat="37.2934742" lon="13.6784875"><ele>252.0</ele><time>2026-04-29T14:39:07.106Z</time></trkpt><trkpt lat="37.2935436" lon="13.6784083"><ele>252.0</ele><time>2026-04-29T14:39:08.107Z</time></trkpt><trkpt lat="37.2936003" lon="13.678341"><ele>252.0</ele><time>2026-04-29T14:39:09.106Z</time></trkpt><trkpt lat="37.2936452" lon="13.6782846"><ele>252.0</ele><time>2026-04-29T14:39:10.108Z</time></trkpt><trkpt lat="37.2936962" lon="13.6782182"><ele>252.0</ele><time>2026-04-29T14:39:11.106Z</time></trkpt><trkpt lat="37.2937475" lon="13.6781464"><ele>252.0</ele><time>2026-04-29T14:39:12.107Z</time></trkpt><trkpt lat="37.2938004" lon="13.6780827"><ele>252.0</ele><time>2026-04-29T14:39:13.107Z</time></trkpt><trkpt lat="37.2938586" lon="13.6780099"><ele>252.0</ele><time>2026-04-29T14:39:14.107Z</time></trkpt><trkpt lat="37.2939247" lon="13.6779365"><ele>252.5</ele><time>2026-04-29T14:39:15.106Z</time></trkpt><trkpt lat="37.2939954" lon="13.6778476"><ele>253.0</ele><time>2026-04-29T14:39:16.107Z</time></trkpt><trkpt lat="37.2940766" lon="13.6777461"><ele>253.5</ele><time>2026-04-29T14:39:17.106Z</time></trkpt><trkpt lat="37.2941782" lon="13.6776293"><ele>254.0</ele><time>2026-04-29T14:39:18.106Z</time></trkpt><trkpt lat="37.2942785" lon="13.6775147"><ele>254.0</ele><time>2026-04-29T14:39:19.107Z</time></trkpt><trkpt lat="37.2943924" lon="13.6773846"><ele>254.0</ele><time>2026-04-29T14:39:20.107Z</time></trkpt><trkpt lat="37.2945095" lon="13.6772536"><ele>254.0</ele><time>2026-04-29T14:39:21.107Z</time></trkpt><trkpt lat="37.2946408" lon="13.6771144"><ele>254.33333333333334</ele><time>2026-04-29T14:39:22.108Z</time></trkpt><trkpt lat="37.2947732" lon="13.6769701"><ele>254.66666666666669</ele><time>2026-04-29T14:39:23.106Z</time></trkpt><trkpt lat="37.2949132" lon="13.6768297"><ele>255.0</ele><time>2026-04-29T14:39:24.107Z</time></trkpt><trkpt lat="37.2950539" lon="13.6766839"><ele>255.0</ele><time>2026-04-29T14:39:25.107Z</time></trkpt><trkpt lat="37.2951999" lon="13.6765329"><ele>255.0</ele><time>2026-04-29T14:39:26.108Z</time></trkpt><trkpt lat="37.295351" lon="13.6763876"><ele>255.0</ele><time>2026-04-29T14:39:27.107Z</time></trkpt><trkpt lat="37.2955027" lon="13.676237"><ele>257.3333333333333</ele><time>2026-04-29T14:39:28.107Z</time></trkpt><trkpt lat="37.2956396" lon="13.6760977"><ele>259.66666666666663</ele><time>2026-04-29T14:39:29.107Z</time></trkpt><trkpt lat="37.2957699" lon="13.6759718"><ele>262.0</ele><time>2026-04-29T14:39:30.107Z</time></trkpt><trkpt lat="37.2958928" lon="13.6758585"><ele>262.0</ele><time>2026-04-29T14:39:31.107Z</time></trkpt><trkpt lat="37.2959947" lon="13.675756"><ele>262.0</ele><time>2026-04-29T14:39:32.107Z</time></trkpt><trkpt lat="37.2960859" lon="13.6756522"><ele>262.0</ele><time>2026-04-29T14:39:33.107Z</time></trkpt><trkpt lat="37.2961641" lon="13.6755642"><ele>262.0</ele><time>2026-04-29T14:39:34.107Z</time></trkpt><trkpt lat="37.2962358" lon="13.6754931"><ele>262.0</ele><time>2026-04-29T14:39:35.107Z</time></trkpt><trkpt lat="37.2962888" lon="13.6754436"><ele>262.0</ele><time>2026-04-29T14:39:36.107Z</time></trkpt><trkpt lat="37.2963605" lon="13.6754464"><ele>262.0</ele><time>2026-04-29T14:39:38.107Z</time></trkpt><trkpt lat="37.296427" lon="13.6755506"><ele>262.0</ele><time>2026-04-29T14:39:40.107Z</time></trkpt><trkpt lat="37.296475" lon="13.6756371"><ele>262.0</ele><time>2026-04-29T14:39:41.107Z</time></trkpt><trkpt lat="37.2965355" lon="13.6757337"><ele>262.0</ele><time>2026-04-29T14:39:42.108Z</time></trkpt><trkpt lat="37.2965922" lon="13.6758309"><ele>262.0</ele><time>2026-04-29T14:39:43.107Z</time></trkpt><trkpt lat="37.2966453" lon="13.6759184"><ele>262.0</ele><time>2026-04-29T14:39:44.107Z</time></trkpt><trkpt lat="37.2966976" lon="13.6760042"><ele>262.0</ele><time>2026-04-29T14:39:45.107Z</time></trkpt><trkpt lat="37.2967433" lon="13.6760851"><ele>262.0</ele><time>2026-04-29T14:39:46.108Z</time></trkpt><trkpt lat="37.2967879" lon="13.6761623"><ele>262.0</ele><time>2026-04-29T14:39:47.106Z</time></trkpt><trkpt lat="37.2968332" lon="13.6762293"><ele>262.0</ele><time>2026-04-29T14:39:48.107Z</time></trkpt><trkpt lat="37.2968825" lon="13.676297"><ele>261.0</ele><time>2026-04-29T14:39:49.107Z</time></trkpt><trkpt lat="37.2969337" lon="13.6763709"><ele>260.0</ele><time>2026-04-29T14:39:50.107Z</time></trkpt><trkpt lat="37.2969928" lon="13.6764513"><ele>259.0</ele><time>2026-04-29T14:39:51.107Z</time></trkpt><trkpt lat="37.2970474" lon="13.6765286"><ele>258.0</ele><time>2026-04-29T14:39:52.106Z</time></trkpt><trkpt lat="37.2971013" lon="13.6766035"><ele>257.0</ele><time>2026-04-29T14:39:53.107Z</time></trkpt><trkpt lat="37.2971504" lon="13.676684"><ele>256.0</ele><time>2026-04-29T14:39:54.107Z</time></trkpt><trkpt lat="37.2971981" lon="13.676756"><ele>255.99999999999997</ele><time>2026-04-29T14:39:55.106Z</time></trkpt><trkpt lat="37.297238" lon="13.6768313"><ele>256.0</ele><time>2026-04-29T14:39:56.107Z</time></trkpt><trkpt lat="37.2972882" lon="13.6768928"><ele>256.0</ele><time>2026-04-29T14:39:58.107Z</time></trkpt><trkpt lat="37.2972296" lon="13.6768209"><ele>256.0</ele><time>2026-04-29T14:40:18.106Z</time></trkpt><trkpt lat="37.2971438" lon="13.6767059"><ele>255.99999999999997</ele><time>2026-04-29T14:40:20.108Z</time></trkpt><trkpt lat="37.2970947" lon="13.6766329"><ele>256.0</ele><time>2026-04-29T14:40:21.106Z</time></trkpt><trkpt lat="37.297036" lon="13.6765471"><ele>256.0</ele><time>2026-04-29T14:40:22.106Z</time></trkpt><trkpt lat="37.2969716" lon="13.6764553"><ele>256.0</ele><time>2026-04-29T14:40:23.107Z</time></trkpt><trkpt lat="37.2968997" lon="13.6763454"><ele>256.0</ele><time>2026-04-29T14:40:24.107Z</time></trkpt><trkpt lat="37.2968189" lon="13.6762366"><ele>256.0</ele><time>2026-04-29T14:40:25.106Z</time></trkpt><trkpt lat="37.2967378" lon="13.6761075"><ele>257.2</ele><time>2026-04-29T14:40:26.107Z</time></trkpt><trkpt lat="37.2966659" lon="13.6759889"><ele>258.40000000000003</ele><time>2026-04-29T14:40:27.106Z</time></trkpt><trkpt lat="37.2965946" lon="13.6758687"><ele>259.6</ele><time>2026-04-29T14:40:28.106Z</time></trkpt><trkpt lat="37.2965366" lon="13.6757587"><ele>260.8</ele><time>2026-04-29T14:40:29.107Z</time></trkpt><trkpt lat="37.2964804" lon="13.6756675"><ele>262.0</ele><time>2026-04-29T14:40:30.106Z</time></trkpt><trkpt lat="37.2964379" lon="13.6755876"><ele>262.0</ele><time>2026-04-29T14:40:31.107Z</time></trkpt><trkpt lat="37.2964007" lon="13.6755207"><ele>262.0</ele><time>2026-04-29T14:40:32.106Z</time></trkpt><trkpt lat="37.2963556" lon="13.6754263"><ele>262.0</ele><time>2026-04-29T14:40:34.107Z</time></trkpt><trkpt lat="37.2963984" lon="13.6753208"><ele>262.0</ele><time>2026-04-29T14:40:38.106Z</time></trkpt><trkpt lat="37.296452" lon="13.6752532"><ele>262.0</ele><time>2026-04-29T14:40:39.107Z</time></trkpt><trkpt lat="37.2965117" lon="13.675176"><ele>262.0</ele><time>2026-04-29T14:40:40.107Z</time></trkpt><trkpt lat="37.2965799" lon="13.6750949"><ele>263.0</ele><time>2026-04-29T14:40:41.106Z</time></trkpt><trkpt lat="37.2966551" lon="13.6749978"><ele>264.0</ele><time>2026-04-29T14:40:42.107Z</time></trkpt><trkpt lat="37.2967232" lon="13.6748927"><ele>265.0</ele><time>2026-04-29T14:40:43.107Z</time></trkpt><trkpt lat="37.2967707" lon="13.6747856"><ele>266.0</ele><time>2026-04-29T14:40:44.106Z</time></trkpt><trkpt lat="37.2968196" lon="13.6746899"><ele>267.0</ele><time>2026-04-29T14:40:45.106Z</time></trkpt><trkpt lat="37.2968648" lon="13.674604"><ele>267.0</ele><time>2026-04-29T14:40:46.106Z</time></trkpt><trkpt lat="37.2969024" lon="13.6745192"><ele>267.0</ele><time>2026-04-29T14:40:47.107Z</time></trkpt><trkpt lat="37.2969403" lon="13.6744262"><ele>267.0</ele><time>2026-04-29T14:40:48.107Z</time></trkpt><trkpt lat="37.2969844" lon="13.674325"><ele>267.0</ele><time>2026-04-29T14:40:49.106Z</time></trkpt><trkpt lat="37.2970338" lon="13.6742197"><ele>267.0</ele><time>2026-04-29T14:40:50.106Z</time></trkpt><trkpt lat="37.2970932" lon="13.6741132"><ele>267.0</ele><time>2026-04-29T14:40:51.106Z</time></trkpt><trkpt lat="37.2971656" lon="13.6740092"><ele>267.0</ele><time>2026-04-29T14:40:52.106Z</time></trkpt><trkpt lat="37.2972517" lon="13.6739139"><ele>267.0</ele><time>2026-04-29T14:40:53.107Z</time></trkpt><trkpt lat="37.2973468" lon="13.6738264"><ele>267.0</ele><time>2026-04-29T14:40:54.107Z</time></trkpt><trkpt lat="37.2974629" lon="13.6737522"><ele>267.0</ele><time>2026-04-29T14:40:55.107Z</time></trkpt><trkpt lat="37.2975802" lon="13.6736735"><ele>267.0</ele><time>2026-04-29T14:40:56.106Z</time></trkpt><trkpt lat="37.2976924" lon="13.6735945"><ele>267.0</ele><time>2026-04-29T14:40:57.106Z</time></trkpt><trkpt lat="37.2977964" lon="13.6735209"><ele>267.0</ele><time>2026-04-29T14:40:58.107Z</time></trkpt><trkpt lat="37.2979" lon="13.6734456"><ele>268.8</ele><time>2026-04-29T14:40:59.107Z</time></trkpt><trkpt lat="37.2980006" lon="13.6733643"><ele>270.6</ele><time>2026-04-29T14:41:00.106Z</time></trkpt><trkpt lat="37.2980916" lon="13.6732929"><ele>272.40000000000003</ele><time>2026-04-29T14:41:01.107Z</time></trkpt><trkpt lat="37.2981707" lon="13.6732295"><ele>274.2</ele><time>2026-04-29T14:41:02.105Z</time></trkpt><trkpt lat="37.2982456" lon="13.6731645"><ele>276.0</ele><time>2026-04-29T14:41:03.106Z</time></trkpt><trkpt lat="37.2983135" lon="13.6731037"><ele>276.0</ele><time>2026-04-29T14:41:04.106Z</time></trkpt><trkpt lat="37.2983805" lon="13.6730409"><ele>276.0</ele><time>2026-04-29T14:41:05.108Z</time></trkpt><trkpt lat="37.2984507" lon="13.6729869"><ele>276.0</ele><time>2026-04-29T14:41:06.106Z</time></trkpt><trkpt lat="37.298525" lon="13.6729099"><ele>276.0</ele><time>2026-04-29T14:41:07.106Z</time></trkpt><trkpt lat="37.2986077" lon="13.6728179"><ele>276.0</ele><time>2026-04-29T14:41:08.107Z</time></trkpt><trkpt lat="37.2987044" lon="13.6727121"><ele>276.6</ele><time>2026-04-29T14:41:09.106Z</time></trkpt><trkpt lat="37.2987925" lon="13.6726226"><ele>277.20000000000005</ele><time>2026-04-29T14:41:10.107Z</time></trkpt><trkpt lat="37.2988656" lon="13.6725496"><ele>277.79999999999995</ele><time>2026-04-29T14:41:11.107Z</time></trkpt><trkpt lat="37.2989378" lon="13.6724614"><ele>278.4</ele><time>2026-04-29T14:41:12.106Z</time></trkpt><trkpt lat="37.2990095" lon="13.6723742"><ele>279.0</ele><time>2026-04-29T14:41:13.105Z</time></trkpt><trkpt lat="37.2990786" lon="13.6722736"><ele>279.0</ele><time>2026-04-29T14:41:14.105Z</time></trkpt><trkpt lat="37.2991436" lon="13.6721893"><ele>279.0</ele><time>2026-04-29T14:41:15.106Z</time></trkpt><trkpt lat="37.2991974" lon="13.6721111"><ele>279.0</ele><time>2026-04-29T14:41:16.106Z</time></trkpt><trkpt lat="37.2992465" lon="13.6720308"><ele>279.0</ele><time>2026-04-29T14:41:17.106Z</time></trkpt><trkpt lat="37.299296" lon="13.6719545"><ele>279.0</ele><time>2026-04-29T14:41:18.107Z</time></trkpt><trkpt lat="37.2993554" lon="13.6718686"><ele>279.0</ele><time>2026-04-29T14:41:19.107Z</time></trkpt><trkpt lat="37.299418" lon="13.671758"><ele>279.75</ele><time>2026-04-29T14:41:20.105Z</time></trkpt><trkpt lat="37.2994892" lon="13.6716311"><ele>280.5</ele><time>2026-04-29T14:41:21.106Z</time></trkpt><trkpt lat="37.2995674" lon="13.6714809"><ele>281.25</ele><time>2026-04-29T14:41:22.106Z</time></trkpt><trkpt lat="37.299641" lon="13.671344"><ele>282.0</ele><time>2026-04-29T14:41:23.106Z</time></trkpt><trkpt lat="37.299707" lon="13.6712155"><ele>281.4</ele><time>2026-04-29T14:41:24.107Z</time></trkpt><trkpt lat="37.2997713" lon="13.6710892"><ele>280.79999999999995</ele><time>2026-04-29T14:41:25.106Z</time></trkpt><trkpt lat="37.2998255" lon="13.6709687"><ele>280.2</ele><time>2026-04-29T14:41:26.107Z</time></trkpt><trkpt lat="37.2998718" lon="13.6708599"><ele>279.59999999999997</ele><time>2026-04-29T14:41:27.107Z</time></trkpt><trkpt lat="37.2999176" lon="13.6707565"><ele>279.0</ele><time>2026-04-29T14:41:28.106Z</time></trkpt><trkpt lat="37.2999663" lon="13.6706585"><ele>279.0</ele><time>2026-04-29T14:41:29.107Z</time></trkpt><trkpt lat="37.3000172" lon="13.6705775"><ele>279.0</ele><time>2026-04-29T14:41:30.107Z</time></trkpt><trkpt lat="37.3000783" lon="13.6705139"><ele>279.0</ele><time>2026-04-29T14:41:31.105Z</time></trkpt><trkpt lat="37.3001469" lon="13.6704478"><ele>279.0</ele><time>2026-04-29T14:41:32.107Z</time></trkpt><trkpt lat="37.3002225" lon="13.6703849"><ele>279.0</ele><time>2026-04-29T14:41:33.106Z</time></trkpt><trkpt lat="37.3003015" lon="13.6703229"><ele>279.0</ele><time>2026-04-29T14:41:34.108Z</time></trkpt><trkpt lat="37.3003862" lon="13.6702662"><ele>279.2</ele><time>2026-04-29T14:41:35.106Z</time></trkpt><trkpt lat="37.3004788" lon="13.670224"><ele>279.4</ele><time>2026-04-29T14:41:36.108Z</time></trkpt><trkpt lat="37.300578" lon="13.6701854"><ele>279.6</ele><time>2026-04-29T14:41:37.106Z</time></trkpt><trkpt lat="37.300678" lon="13.6701594"><ele>279.8</ele><time>2026-04-29T14:41:38.106Z</time></trkpt><trkpt lat="37.3007756" lon="13.6701258"><ele>280.0</ele><time>2026-04-29T14:41:39.106Z</time></trkpt><trkpt lat="37.3008691" lon="13.6700974"><ele>280.0</ele><time>2026-04-29T14:41:40.106Z</time></trkpt><trkpt lat="37.3009615" lon="13.670066"><ele>280.0</ele><time>2026-04-29T14:41:41.107Z</time></trkpt><trkpt lat="37.3010587" lon="13.6700365"><ele>280.0</ele><time>2026-04-29T14:41:42.107Z</time></trkpt><trkpt lat="37.3011606" lon="13.6700056"><ele>280.0</ele><time>2026-04-29T14:41:43.106Z</time></trkpt><trkpt lat="37.3012599" lon="13.6699722"><ele>280.0</ele><time>2026-04-29T14:41:44.107Z</time></trkpt><trkpt lat="37.3013561" lon="13.6699467"><ele>280.0</ele><time>2026-04-29T14:41:45.108Z</time></trkpt><trkpt lat="37.3014496" lon="13.6699259"><ele>280.0</ele><time>2026-04-29T14:41:46.107Z</time></trkpt><trkpt lat="37.3015464" lon="13.6698996"><ele>280.0</ele><time>2026-04-29T14:41:47.107Z</time></trkpt><trkpt lat="37.3016356" lon="13.6698729"><ele>280.0</ele><time>2026-04-29T14:41:48.107Z</time></trkpt><trkpt lat="37.3017329" lon="13.6698459"><ele>280.0</ele><time>2026-04-29T14:41:49.106Z</time></trkpt><trkpt lat="37.301842" lon="13.669816"><ele>280.0</ele><time>2026-04-29T14:41:50.107Z</time></trkpt><trkpt lat="37.3019484" lon="13.669787"><ele>280.0</ele><time>2026-04-29T14:41:51.107Z</time></trkpt><trkpt lat="37.3020497" lon="13.6697559"><ele>280.0</ele><time>2026-04-29T14:41:52.106Z</time></trkpt><trkpt lat="37.302134" lon="13.6697343"><ele>280.0</ele><time>2026-04-29T14:41:53.106Z</time></trkpt><trkpt lat="37.3022158" lon="13.6697027"><ele>280.0</ele><time>2026-04-29T14:41:54.107Z</time></trkpt><trkpt lat="37.3022772" lon="13.6696844"><ele>280.0</ele><time>2026-04-29T14:41:55.106Z</time></trkpt><trkpt lat="37.3023501" lon="13.6696833"><ele>280.0</ele><time>2026-04-29T14:41:56.107Z</time></trkpt><trkpt lat="37.3024175" lon="13.669656"><ele>280.0</ele><time>2026-04-29T14:41:59.106Z</time></trkpt><trkpt lat="37.302326" lon="13.6696352"><ele>280.0</ele><time>2026-04-29T14:42:02.105Z</time></trkpt><trkpt lat="37.3022621" lon="13.6696623"><ele>280.0</ele><time>2026-04-29T14:42:03.106Z</time></trkpt><trkpt lat="37.3021739" lon="13.6696812"><ele>280.0</ele><time>2026-04-29T14:42:04.107Z</time></trkpt><trkpt lat="37.3020897" lon="13.6697115"><ele>280.0</ele><time>2026-04-29T14:42:05.108Z</time></trkpt><trkpt lat="37.3019824" lon="13.6697484"><ele>280.0</ele><time>2026-04-29T14:42:06.105Z</time></trkpt><trkpt lat="37.3018665" lon="13.669785"><ele>280.0</ele><time>2026-04-29T14:42:07.106Z</time></trkpt><trkpt lat="37.3017305" lon="13.6698256"><ele>280.0</ele><time>2026-04-29T14:42:08.106Z</time></trkpt><trkpt lat="37.3015833" lon="13.6698688"><ele>280.0</ele><time>2026-04-29T14:42:09.107Z</time></trkpt><trkpt lat="37.3014358" lon="13.6699118"><ele>280.0</ele><time>2026-04-29T14:42:10.108Z</time></trkpt><trkpt lat="37.3012899" lon="13.6699535"><ele>280.0</ele><time>2026-04-29T14:42:11.107Z</time></trkpt><trkpt lat="37.3011561" lon="13.6699981"><ele>280.0</ele><time>2026-04-29T14:42:12.107Z</time></trkpt><trkpt lat="37.3010199" lon="13.6700381"><ele>280.0</ele><time>2026-04-29T14:42:13.107Z</time></trkpt><trkpt lat="37.3008926" lon="13.6700743"><ele>280.0</ele><time>2026-04-29T14:42:14.107Z</time></trkpt><trkpt lat="37.3007591" lon="13.6701203"><ele>280.0</ele><time>2026-04-29T14:42:15.107Z</time></trkpt><trkpt lat="37.3006365" lon="13.6701535"><ele>280.0</ele><time>2026-04-29T14:42:16.107Z</time></trkpt><trkpt lat="37.3005213" lon="13.6701905"><ele>280.0</ele><time>2026-04-29T14:42:17.107Z</time></trkpt><trkpt lat="37.3004129" lon="13.6702339"><ele>279.8</ele><time>2026-04-29T14:42:18.107Z</time></trkpt><trkpt lat="37.3003074" lon="13.6702973"><ele>279.6</ele><time>2026-04-29T14:42:19.107Z</time></trkpt><trkpt lat="37.3002141" lon="13.6703593"><ele>279.4</ele><time>2026-04-29T14:42:20.107Z</time></trkpt><trkpt lat="37.3001274" lon="13.670418"><ele>279.2</ele><time>2026-04-29T14:42:21.107Z</time></trkpt><trkpt lat="37.3000457" lon="13.6704763"><ele>279.0</ele><time>2026-04-29T14:42:22.107Z</time></trkpt><trkpt lat="37.2999718" lon="13.6705253"><ele>279.0</ele><time>2026-04-29T14:42:23.107Z</time></trkpt><trkpt lat="37.2998996" lon="13.6705678"><ele>279.0</ele><time>2026-04-29T14:42:24.107Z</time></trkpt><trkpt lat="37.2998192" lon="13.6705951"><ele>279.0</ele><time>2026-04-29T14:42:25.106Z</time></trkpt><trkpt lat="37.2997298" lon="13.6706254"><ele>279.0</ele><time>2026-04-29T14:42:26.107Z</time></trkpt><trkpt lat="37.299624" lon="13.6706624"><ele>279.0</ele><time>2026-04-29T14:42:27.106Z</time></trkpt><trkpt lat="37.299504" lon="13.6707098"><ele>281.0</ele><time>2026-04-29T14:42:28.107Z</time></trkpt><trkpt lat="37.2993838" lon="13.67076"><ele>283.0</ele><time>2026-04-29T14:42:29.107Z</time></trkpt><trkpt lat="37.299256" lon="13.670811"><ele>285.0</ele><time>2026-04-29T14:42:30.106Z</time></trkpt><trkpt lat="37.2991193" lon="13.6708757"><ele>287.0</ele><time>2026-04-29T14:42:31.106Z</time></trkpt><trkpt lat="37.2989773" lon="13.670919"><ele>287.6666666666667</ele><time>2026-04-29T14:42:32.106Z</time></trkpt><trkpt lat="37.298818" lon="13.6709904"><ele>288.3333333333333</ele><time>2026-04-29T14:42:33.106Z</time></trkpt><trkpt lat="37.2986587" lon="13.6710527"><ele>289.0</ele><time>2026-04-29T14:42:34.107Z</time></trkpt><trkpt lat="37.2985074" lon="13.6711099"><ele>289.0</ele><time>2026-04-29T14:42:35.107Z</time></trkpt><trkpt lat="37.2983696" lon="13.6711723"><ele>289.0</ele><time>2026-04-29T14:42:36.106Z</time></trkpt><trkpt lat="37.2982398" lon="13.6712285"><ele>289.0</ele><time>2026-04-29T14:42:37.106Z</time></trkpt><trkpt lat="37.2981145" lon="13.6712822"><ele>289.0</ele><time>2026-04-29T14:42:38.107Z</time></trkpt><trkpt lat="37.2980025" lon="13.6713294"><ele>291.0</ele><time>2026-04-29T14:42:39.106Z</time></trkpt><trkpt lat="37.2979058" lon="13.6713584"><ele>293.0</ele><time>2026-04-29T14:42:40.106Z</time></trkpt><trkpt lat="37.297819" lon="13.6713445"><ele>295.0</ele><time>2026-04-29T14:42:41.108Z</time></trkpt><trkpt lat="37.2977218" lon="13.6713177"><ele>297.0</ele><time>2026-04-29T14:42:42.108Z</time></trkpt><trkpt lat="37.2976202" lon="13.671274"><ele>299.0</ele><time>2026-04-29T14:42:43.107Z</time></trkpt><trkpt lat="37.297526" lon="13.6712078"><ele>299.0</ele><time>2026-04-29T14:42:44.106Z</time></trkpt><trkpt lat="37.297423" lon="13.6711205"><ele>299.0</ele><time>2026-04-29T14:42:45.107Z</time></trkpt><trkpt lat="37.2973276" lon="13.671027"><ele>299.0</ele><time>2026-04-29T14:42:46.106Z</time></trkpt><trkpt lat="37.2972399" lon="13.6709532"><ele>299.0</ele><time>2026-04-29T14:42:47.107Z</time></trkpt><trkpt lat="37.2971431" lon="13.6709087"><ele>302.0</ele><time>2026-04-29T14:42:48.107Z</time></trkpt><trkpt lat="37.2970389" lon="13.6708756"><ele>305.0</ele><time>2026-04-29T14:42:49.107Z</time></trkpt><trkpt lat="37.2969292" lon="13.6708537"><ele>308.0</ele><time>2026-04-29T14:42:50.106Z</time></trkpt><trkpt lat="37.2968122" lon="13.6708453"><ele>311.0</ele><time>2026-04-29T14:42:51.106Z</time></trkpt><trkpt lat="37.2966866" lon="13.6708484"><ele>311.0</ele><time>2026-04-29T14:42:52.106Z</time></trkpt><trkpt lat="37.2965705" lon="13.6708712"><ele>311.0</ele><time>2026-04-29T14:42:53.106Z</time></trkpt><trkpt lat="37.2964657" lon="13.6708908"><ele>311.0</ele><time>2026-04-29T14:42:54.108Z</time></trkpt><trkpt lat="37.2963803" lon="13.6709033"><ele>311.0</ele><time>2026-04-29T14:42:55.108Z</time></trkpt><trkpt lat="37.2963128" lon="13.6709166"><ele>311.0</ele><time>2026-04-29T14:42:56.107Z</time></trkpt><trkpt lat="37.2962434" lon="13.6709433"><ele>311.0</ele><time>2026-04-29T14:42:58.106Z</time></trkpt><trkpt lat="37.2963189" lon="13.6709506"><ele>311.0</ele><time>2026-04-29T14:43:01.107Z</time></trkpt><trkpt lat="37.2963842" lon="13.6709286"><ele>311.0</ele><time>2026-04-29T14:43:02.107Z</time></trkpt><trkpt lat="37.2964872" lon="13.6709061"><ele>311.0</ele><time>2026-04-29T14:43:03.106Z</time></trkpt><trkpt lat="37.2965996" lon="13.6708777"><ele>311.0</ele><time>2026-04-29T14:43:04.108Z</time></trkpt><trkpt lat="37.296731" lon="13.6708537"><ele>311.0</ele><time>2026-04-29T14:43:05.105Z</time></trkpt><trkpt lat="37.2968652" lon="13.6708559"><ele>311.0</ele><time>2026-04-29T14:43:06.107Z</time></trkpt><trkpt lat="37.2969964" lon="13.670892"><ele>311.0</ele><time>2026-04-29T14:43:07.107Z</time></trkpt><trkpt lat="37.2971238" lon="13.6709215"><ele>311.0</ele><time>2026-04-29T14:43:08.106Z</time></trkpt><trkpt lat="37.2972323" lon="13.670975"><ele>310.2</ele><time>2026-04-29T14:43:09.107Z</time></trkpt><trkpt lat="37.297321" lon="13.6710575"><ele>309.40000000000003</ele><time>2026-04-29T14:43:10.105Z</time></trkpt><trkpt lat="37.2974092" lon="13.6711461"><ele>308.6</ele><time>2026-04-29T14:43:11.106Z</time></trkpt><trkpt lat="37.2974996" lon="13.6712286"><ele>307.8</ele><time>2026-04-29T14:43:12.106Z</time></trkpt><trkpt lat="37.2976012" lon="13.6712918"><ele>307.0</ele><time>2026-04-29T14:43:13.106Z</time></trkpt><trkpt lat="37.2976966" lon="13.6713378"><ele>305.66666666666663</ele><time>2026-04-29T14:43:14.105Z</time></trkpt><trkpt lat="37.2977897" lon="13.6713708"><ele>304.3333333333333</ele><time>2026-04-29T14:43:15.106Z</time></trkpt><trkpt lat="37.2978717" lon="13.6713862"><ele>303.0</ele><time>2026-04-29T14:43:16.107Z</time></trkpt><trkpt lat="37.297955" lon="13.6713798"><ele>301.6666666666667</ele><time>2026-04-29T14:43:17.106Z</time></trkpt><trkpt lat="37.2980346" lon="13.6713443"><ele>300.33333333333337</ele><time>2026-04-29T14:43:18.107Z</time></trkpt><trkpt lat="37.298116" lon="13.6713153"><ele>299.0</ele><time>2026-04-29T14:43:19.106Z</time></trkpt><trkpt lat="37.2981975" lon="13.6712817"><ele>299.5</ele><time>2026-04-29T14:43:20.106Z</time></trkpt><trkpt lat="37.2982793" lon="13.6712452"><ele>300.0</ele><time>2026-04-29T14:43:21.106Z</time></trkpt><trkpt lat="37.2983592" lon="13.6712195"><ele>300.5</ele><time>2026-04-29T14:43:22.108Z</time></trkpt><trkpt lat="37.2984363" lon="13.6711872"><ele>301.0</ele><time>2026-04-29T14:43:23.107Z</time></trkpt><trkpt lat="37.298508" lon="13.671146"><ele>301.5</ele><time>2026-04-29T14:43:24.106Z</time></trkpt><trkpt lat="37.2985881" lon="13.6711158"><ele>302.0</ele><time>2026-04-29T14:43:25.107Z</time></trkpt><trkpt lat="37.2986599" lon="13.6710814"><ele>302.0</ele><time>2026-04-29T14:43:26.106Z</time></trkpt><trkpt lat="37.2987557" lon="13.6710408"><ele>302.0</ele><time>2026-04-29T14:43:27.105Z</time></trkpt><trkpt lat="37.2988521" lon="13.670993"><ele>302.0</ele><time>2026-04-29T14:43:28.106Z</time></trkpt><trkpt lat="37.2989635" lon="13.6709449"><ele>302.0</ele><time>2026-04-29T14:43:29.107Z</time></trkpt><trkpt lat="37.2990848" lon="13.6708941"><ele>298.25</ele><time>2026-04-29T14:43:30.105Z</time></trkpt><trkpt lat="37.2992238" lon="13.670837"><ele>294.5</ele><time>2026-04-29T14:43:31.106Z</time></trkpt><trkpt lat="37.2993521" lon="13.6707823"><ele>290.75</ele><time>2026-04-29T14:43:32.106Z</time></trkpt><trkpt lat="37.2994682" lon="13.6707301"><ele>287.0</ele><time>2026-04-29T14:43:33.106Z</time></trkpt><trkpt lat="37.2995869" lon="13.6706855"><ele>287.0</ele><time>2026-04-29T14:43:34.106Z</time></trkpt><trkpt lat="37.2996884" lon="13.6706402"><ele>287.0</ele><time>2026-04-29T14:43:35.106Z</time></trkpt><trkpt lat="37.2997722" lon="13.6706041"><ele>287.0</ele><time>2026-04-29T14:43:36.107Z</time></trkpt><trkpt lat="37.299847" lon="13.6705767"><ele>287.0</ele><time>2026-04-29T14:43:37.107Z</time></trkpt><trkpt lat="37.2999145" lon="13.6705476"><ele>287.0</ele><time>2026-04-29T14:43:38.107Z</time></trkpt><trkpt lat="37.2999844" lon="13.6705091"><ele>287.0</ele><time>2026-04-29T14:43:39.107Z</time></trkpt><trkpt lat="37.3000592" lon="13.6704635"><ele>286.4</ele><time>2026-04-29T14:43:40.105Z</time></trkpt><trkpt lat="37.3001545" lon="13.6704084"><ele>285.79999999999995</ele><time>2026-04-29T14:43:41.108Z</time></trkpt><trkpt lat="37.3002524" lon="13.6703495"><ele>285.2</ele><time>2026-04-29T14:43:42.106Z</time></trkpt><trkpt lat="37.30034" lon="13.6702911"><ele>284.59999999999997</ele><time>2026-04-29T14:43:43.106Z</time></trkpt><trkpt lat="37.300426" lon="13.6702385"><ele>284.0</ele><time>2026-04-29T14:43:44.107Z</time></trkpt><trkpt lat="37.3005234" lon="13.6701997"><ele>283.33333333333337</ele><time>2026-04-29T14:43:45.105Z</time></trkpt><trkpt lat="37.3006145" lon="13.6701743"><ele>282.6666666666667</ele><time>2026-04-29T14:43:46.107Z</time></trkpt><trkpt lat="37.3007023" lon="13.670147"><ele>282.0</ele><time>2026-04-29T14:43:47.107Z</time></trkpt><trkpt lat="37.3007886" lon="13.6701201"><ele>281.3333333333333</ele><time>2026-04-29T14:43:48.106Z</time></trkpt><trkpt lat="37.3008741" lon="13.6701034"><ele>280.66666666666663</ele><time>2026-04-29T14:43:49.107Z</time></trkpt><trkpt lat="37.3009534" lon="13.6700776"><ele>280.0</ele><time>2026-04-29T14:43:50.106Z</time></trkpt><trkpt lat="37.3010403" lon="13.6700474"><ele>280.0</ele><time>2026-04-29T14:43:51.107Z</time></trkpt><trkpt lat="37.3011283" lon="13.6700255"><ele>280.0</ele><time>2026-04-29T14:43:52.108Z</time></trkpt><trkpt lat="37.3012181" lon="13.6699964"><ele>280.0</ele><time>2026-04-29T14:43:53.107Z</time></trkpt><trkpt lat="37.3013098" lon="13.6699682"><ele>280.0</ele><time>2026-04-29T14:43:54.107Z</time></trkpt><trkpt lat="37.3013958" lon="13.6699361"><ele>280.0</ele><time>2026-04-29T14:43:55.106Z</time></trkpt><trkpt lat="37.3014781" lon="13.6699161"><ele>280.0</ele><time>2026-04-29T14:43:56.106Z</time></trkpt><trkpt lat="37.3015537" lon="13.6699029"><ele>280.0</ele><time>2026-04-29T14:43:57.108Z</time></trkpt><trkpt lat="37.3016498" lon="13.6698699"><ele>280.0</ele><time>2026-04-29T14:43:59.106Z</time></trkpt><trkpt lat="37.3015547" lon="13.6698635"><ele>280.0</ele><time>2026-04-29T14:44:07.106Z</time></trkpt><trkpt lat="37.3014684" lon="13.6698998"><ele>280.0</ele><time>2026-04-29T14:44:08.105Z</time></trkpt><trkpt lat="37.3013591" lon="13.6699345"><ele>280.0</ele><time>2026-04-29T14:44:09.106Z</time></trkpt><trkpt lat="37.3012394" lon="13.6699754"><ele>280.0</ele><time>2026-04-29T14:44:10.107Z</time></trkpt><trkpt lat="37.3011224" lon="13.6700064"><ele>280.0</ele><time>2026-04-29T14:44:11.107Z</time></trkpt><trkpt lat="37.3009891" lon="13.6700505"><ele>280.0</ele><time>2026-04-29T14:44:12.106Z</time></trkpt><trkpt lat="37.3008546" lon="13.6700812"><ele>280.0</ele><time>2026-04-29T14:44:13.106Z</time></trkpt><trkpt lat="37.3007157" lon="13.6701164"><ele>280.0</ele><time>2026-04-29T14:44:14.107Z</time></trkpt><trkpt lat="37.3005786" lon="13.6701571"><ele>280.0</ele><time>2026-04-29T14:44:15.106Z</time></trkpt><trkpt lat="37.3004469" lon="13.670206"><ele>280.0</ele><time>2026-04-29T14:44:16.105Z</time></trkpt><trkpt lat="37.3003264" lon="13.670271"><ele>279.75</ele><time>2026-04-29T14:44:17.106Z</time></trkpt><trkpt lat="37.3002096" lon="13.6703495"><ele>279.5</ele><time>2026-04-29T14:44:18.108Z</time></trkpt><trkpt lat="37.3001016" lon="13.6704351"><ele>279.25</ele><time>2026-04-29T14:44:19.106Z</time></trkpt><trkpt lat="37.3000267" lon="13.6705449"><ele>279.0</ele><time>2026-04-29T14:44:20.107Z</time></trkpt><trkpt lat="37.2999531" lon="13.6706636"><ele>279.0</ele><time>2026-04-29T14:44:21.107Z</time></trkpt><trkpt lat="37.2998874" lon="13.6708034"><ele>279.0</ele><time>2026-04-29T14:44:22.106Z</time></trkpt><trkpt lat="37.2998132" lon="13.6709619"><ele>279.0</ele><time>2026-04-29T14:44:23.106Z</time></trkpt><trkpt lat="37.2997433" lon="13.67112"><ele>279.0</ele><time>2026-04-29T14:44:24.106Z</time></trkpt><trkpt lat="37.2996743" lon="13.6712663"><ele>279.75</ele><time>2026-04-29T14:44:25.107Z</time></trkpt><trkpt lat="37.2996093" lon="13.6714007"><ele>280.5</ele><time>2026-04-29T14:44:26.105Z</time></trkpt><trkpt lat="37.299544" lon="13.6715306"><ele>281.25</ele><time>2026-04-29T14:44:27.105Z</time></trkpt><trkpt lat="37.2994882" lon="13.6716396"><ele>282.0</ele><time>2026-04-29T14:44:28.106Z</time></trkpt><trkpt lat="37.2994286" lon="13.6717464"><ele>282.0</ele><time>2026-04-29T14:44:29.106Z</time></trkpt><trkpt lat="37.2993634" lon="13.671848"><ele>282.0</ele><time>2026-04-29T14:44:30.106Z</time></trkpt><trkpt lat="37.2993009" lon="13.6719439"><ele>282.0</ele><time>2026-04-29T14:44:31.106Z</time></trkpt><trkpt lat="37.2992386" lon="13.6720307"><ele>282.0</ele><time>2026-04-29T14:44:32.108Z</time></trkpt><trkpt lat="37.2991871" lon="13.6721024"><ele>282.0</ele><time>2026-04-29T14:44:33.106Z</time></trkpt><trkpt lat="37.2991377" lon="13.672166"><ele>282.0</ele><time>2026-04-29T14:44:34.107Z</time></trkpt><trkpt lat="37.2990926" lon="13.6722319"><ele>282.0</ele><time>2026-04-29T14:44:35.106Z</time></trkpt><trkpt lat="37.2990481" lon="13.6722935"><ele>282.0</ele><time>2026-04-29T14:44:36.108Z</time></trkpt><trkpt lat="37.2989971" lon="13.6723494"><ele>282.0</ele><time>2026-04-29T14:44:37.107Z</time></trkpt><trkpt lat="37.2989462" lon="13.6724118"><ele>282.0</ele><time>2026-04-29T14:44:38.106Z</time></trkpt><trkpt lat="37.2988997" lon="13.672475"><ele>282.0</ele><time>2026-04-29T14:44:39.105Z</time></trkpt><trkpt lat="37.2988048" lon="13.6725893"><ele>282.0</ele><time>2026-04-29T14:44:41.107Z</time></trkpt><trkpt lat="37.298755" lon="13.6726425"><ele>282.0</ele><time>2026-04-29T14:44:42.106Z</time></trkpt><trkpt lat="37.298653" lon="13.6727419"><ele>282.0</ele><time>2026-04-29T14:44:44.107Z</time></trkpt><trkpt lat="37.2986022" lon="13.6727963"><ele>282.0</ele><time>2026-04-29T14:44:45.106Z</time></trkpt><trkpt lat="37.2985543" lon="13.6728489"><ele>282.0</ele><time>2026-04-29T14:44:46.107Z</time></trkpt><trkpt lat="37.2985068" lon="13.6729009"><ele>282.0</ele><time>2026-04-29T14:44:47.106Z</time></trkpt><trkpt lat="37.2984513" lon="13.6729605"><ele>282.0</ele><time>2026-04-29T14:44:48.107Z</time></trkpt><trkpt lat="37.2983838" lon="13.6730224"><ele>281.1666666666667</ele><time>2026-04-29T14:44:49.105Z</time></trkpt><trkpt lat="37.2983147" lon="13.6730905"><ele>280.3333333333333</ele><time>2026-04-29T14:44:50.106Z</time></trkpt><trkpt lat="37.2982408" lon="13.6731619"><ele>279.5</ele><time>2026-04-29T14:44:51.107Z</time></trkpt><trkpt lat="37.2981644" lon="13.6732249"><ele>278.66666666666663</ele><time>2026-04-29T14:44:52.105Z</time></trkpt><trkpt lat="37.2980901" lon="13.673281"><ele>277.8333333333333</ele><time>2026-04-29T14:44:53.105Z</time></trkpt><trkpt lat="37.2980216" lon="13.6733311"><ele>277.0</ele><time>2026-04-29T14:44:54.106Z</time></trkpt><trkpt lat="37.2979515" lon="13.6733785"><ele>277.0</ele><time>2026-04-29T14:44:55.107Z</time></trkpt><trkpt lat="37.2978782" lon="13.6734394"><ele>277.0</ele><time>2026-04-29T14:44:56.105Z</time></trkpt><trkpt lat="37.2978024" lon="13.6735068"><ele>277.0</ele><time>2026-04-29T14:44:57.108Z</time></trkpt><trkpt lat="37.2976995" lon="13.6735792"><ele>277.0</ele><time>2026-04-29T14:44:58.106Z</time></trkpt><trkpt lat="37.2975932" lon="13.6736491"><ele>277.0</ele><time>2026-04-29T14:44:59.106Z</time></trkpt><trkpt lat="37.2974945" lon="13.6737132"><ele>275.8333333333333</ele><time>2026-04-29T14:45:00.106Z</time></trkpt><trkpt lat="37.2973974" lon="13.6737691"><ele>274.66666666666663</ele><time>2026-04-29T14:45:01.107Z</time></trkpt><trkpt lat="37.2973132" lon="13.6738215"><ele>273.5</ele><time>2026-04-29T14:45:02.105Z</time></trkpt><trkpt lat="37.2972415" lon="13.6738732"><ele>272.3333333333333</ele><time>2026-04-29T14:45:03.105Z</time></trkpt><trkpt lat="37.2971841" lon="13.6739178"><ele>271.1666666666667</ele><time>2026-04-29T14:45:04.106Z</time></trkpt><trkpt lat="37.2971334" lon="13.6739749"><ele>270.0</ele><time>2026-04-29T14:45:07.106Z</time></trkpt><trkpt lat="37.2972091" lon="13.6739478"><ele>269.4</ele><time>2026-04-29T14:45:24.106Z</time></trkpt><trkpt lat="37.2973105" lon="13.6738475"><ele>268.8</ele><time>2026-04-29T14:45:26.105Z</time></trkpt><trkpt lat="37.2973917" lon="13.6737959"><ele>268.2</ele><time>2026-04-29T14:45:27.108Z</time></trkpt><trkpt lat="37.297481" lon="13.6737313"><ele>267.6</ele><time>2026-04-29T14:45:28.106Z</time></trkpt><trkpt lat="37.2975727" lon="13.6736728"><ele>267.0</ele><time>2026-04-29T14:45:29.105Z</time></trkpt><trkpt lat="37.2976687" lon="13.6736095"><ele>268.8</ele><time>2026-04-29T14:45:30.106Z</time></trkpt><trkpt lat="37.2977562" lon="13.6735591"><ele>270.6</ele><time>2026-04-29T14:45:31.106Z</time></trkpt><trkpt lat="37.2978527" lon="13.6734992"><ele>272.40000000000003</ele><time>2026-04-29T14:45:32.105Z</time></trkpt><trkpt lat="37.2979506" lon="13.6734211"><ele>274.2</ele><time>2026-04-29T14:45:33.107Z</time></trkpt><trkpt lat="37.2980492" lon="13.6733436"><ele>276.0</ele><time>2026-04-29T14:45:34.107Z</time></trkpt><trkpt lat="37.2981336" lon="13.6732787"><ele>276.0</ele><time>2026-04-29T14:45:35.107Z</time></trkpt><trkpt lat="37.2982082" lon="13.6732317"><ele>276.0</ele><time>2026-04-29T14:45:36.107Z</time></trkpt><trkpt lat="37.2982707" lon="13.6731873"><ele>276.0</ele><time>2026-04-29T14:45:38.106Z</time></trkpt><trkpt lat="37.2983169" lon="13.6732478"><ele>276.0</ele><time>2026-04-29T14:45:40.105Z</time></trkpt><trkpt lat="37.298369" lon="13.673365"><ele>276.0</ele><time>2026-04-29T14:45:42.106Z</time></trkpt><trkpt lat="37.2984192" lon="13.6734697"><ele>276.0</ele><time>2026-04-29T14:45:44.106Z</time></trkpt><trkpt lat="37.2984574" lon="13.673568"><ele>274.0</ele><time>2026-04-29T14:45:46.106Z</time></trkpt><trkpt lat="37.2985013" lon="13.6736637"><ele>272.0</ele><time>2026-04-29T14:45:49.105Z</time></trkpt><trkpt lat="37.2985506" lon="13.6737513"><ele>270.0</ele><time>2026-04-29T14:45:52.107Z</time></trkpt><trkpt lat="37.2985991" lon="13.6738423"><ele>268.0</ele><time>2026-04-29T14:45:54.106Z</time></trkpt><trkpt lat="37.2986495" lon="13.673958"><ele>266.0</ele><time>2026-04-29T14:45:56.106Z</time></trkpt><trkpt lat="37.298709" lon="13.6741005"><ele>266.0</ele><time>2026-04-29T14:45:58.107Z</time></trkpt><trkpt lat="37.2987435" lon="13.6741808"><ele>266.0</ele><time>2026-04-29T14:45:59.105Z</time></trkpt><trkpt lat="37.2987817" lon="13.6742594"><ele>266.0</ele><time>2026-04-29T14:46:00.107Z</time></trkpt><trkpt lat="37.2988143" lon="13.6743344"><ele>266.0</ele><time>2026-04-29T14:46:01.105Z</time></trkpt><trkpt lat="37.2988493" lon="13.6744195"><ele>266.0</ele><time>2026-04-29T14:46:02.106Z</time></trkpt><trkpt lat="37.2988814" lon="13.6744886"><ele>266.0</ele><time>2026-04-29T14:46:03.107Z</time></trkpt><trkpt lat="37.2989093" lon="13.6745609"><ele>266.0</ele><time>2026-04-29T14:46:04.105Z</time></trkpt><trkpt lat="37.2989405" lon="13.6746367"><ele>264.33333333333337</ele><time>2026-04-29T14:46:05.105Z</time></trkpt><trkpt lat="37.2990002" lon="13.6747834"><ele>262.6666666666667</ele><time>2026-04-29T14:46:07.106Z</time></trkpt><trkpt lat="37.2990341" lon="13.6748639"><ele>261.0</ele><time>2026-04-29T14:46:08.106Z</time></trkpt><trkpt lat="37.2990658" lon="13.6749479"><ele>259.3333333333333</ele><time>2026-04-29T14:46:09.105Z</time></trkpt><trkpt lat="37.2990997" lon="13.6750316"><ele>257.66666666666663</ele><time>2026-04-29T14:46:10.107Z</time></trkpt><trkpt lat="37.2991349" lon="13.6751121"><ele>256.0</ele><time>2026-04-29T14:46:11.105Z</time></trkpt><trkpt lat="37.2991665" lon="13.6751915"><ele>255.0</ele><time>2026-04-29T14:46:12.106Z</time></trkpt><trkpt lat="37.299195" lon="13.6752755"><ele>253.99999999999997</ele><time>2026-04-29T14:46:13.106Z</time></trkpt><trkpt lat="37.299225" lon="13.6753649"><ele>253.0</ele><time>2026-04-29T14:46:14.108Z</time></trkpt><trkpt lat="37.299258" lon="13.6754347"><ele>252.0</ele><time>2026-04-29T14:46:15.107Z</time></trkpt><trkpt lat="37.2992901" lon="13.6755144"><ele>250.99999999999997</ele><time>2026-04-29T14:46:16.106Z</time></trkpt><trkpt lat="37.2993175" lon="13.6755982"><ele>250.0</ele><time>2026-04-29T14:46:17.106Z</time></trkpt><trkpt lat="37.2993458" lon="13.6756729"><ele>249.0</ele><time>2026-04-29T14:46:18.106Z</time></trkpt><trkpt lat="37.2993762" lon="13.6757448"><ele>249.0</ele><time>2026-04-29T14:46:19.107Z</time></trkpt><trkpt lat="37.2994248" lon="13.6758761"><ele>248.99999999999997</ele><time>2026-04-29T14:46:21.106Z</time></trkpt><trkpt lat="37.2994671" lon="13.6760004"><ele>248.99999999999997</ele><time>2026-04-29T14:46:23.106Z</time></trkpt><trkpt lat="37.2995031" lon="13.6761099"><ele>249.0</ele><time>2026-04-29T14:46:25.106Z</time></trkpt><trkpt lat="37.2995512" lon="13.6762034"><ele>249.0</ele><time>2026-04-29T14:46:27.106Z</time></trkpt><trkpt lat="37.2996014" lon="13.6762816"><ele>248.33333333333334</ele><time>2026-04-29T14:46:29.106Z</time></trkpt><trkpt lat="37.2996493" lon="13.6763434"><ele>247.66666666666669</ele><time>2026-04-29T14:46:31.105Z</time></trkpt><trkpt lat="37.2997107" lon="13.6763732"><ele>247.0</ele><time>2026-04-29T14:46:33.106Z</time></trkpt><trkpt lat="37.2997985" lon="13.6763091"><ele>246.33333333333334</ele><time>2026-04-29T14:46:35.105Z</time></trkpt><trkpt lat="37.29987" lon="13.6762395"><ele>245.66666666666669</ele><time>2026-04-29T14:46:37.106Z</time></trkpt><trkpt lat="37.2999314" lon="13.6761839"><ele>245.0</ele><time>2026-04-29T14:46:39.105Z</time></trkpt><trkpt lat="37.3000182" lon="13.6761498"><ele>245.0</ele><time>2026-04-29T14:46:42.106Z</time></trkpt><trkpt lat="37.3000822" lon="13.6761679"><ele>245.0</ele><time>2026-04-29T14:46:44.107Z</time></trkpt><trkpt lat="37.3001309" lon="13.6762298"><ele>245.0</ele><time>2026-04-29T14:46:46.108Z</time></trkpt><trkpt lat="37.3001715" lon="13.6763118"><ele>245.0</ele><time>2026-04-29T14:46:48.107Z</time></trkpt><trkpt lat="37.3002103" lon="13.6764049"><ele>245.0</ele><time>2026-04-29T14:46:50.106Z</time></trkpt><trkpt lat="37.3002434" lon="13.6764948"><ele>245.0</ele><time>2026-04-29T14:46:52.106Z</time></trkpt><trkpt lat="37.3002762" lon="13.6765784"><ele>245.0</ele><time>2026-04-29T14:46:54.105Z</time></trkpt><trkpt lat="37.3003066" lon="13.6766669"><ele>245.00000000000003</ele><time>2026-04-29T14:46:56.106Z</time></trkpt><trkpt lat="37.3003362" lon="13.6767649"><ele>245.0</ele><time>2026-04-29T14:46:58.106Z</time></trkpt><trkpt lat="37.3003631" lon="13.6768512"><ele>245.0</ele><time>2026-04-29T14:47:00.105Z</time></trkpt><trkpt lat="37.3003884" lon="13.6769253"><ele>245.0</ele><time>2026-04-29T14:47:02.107Z</time></trkpt><trkpt lat="37.3004218" lon="13.6770424"><ele>245.00000000000003</ele><time>2026-04-29T14:47:05.105Z</time></trkpt><trkpt lat="37.3004424" lon="13.6771364"><ele>245.0</ele><time>2026-04-29T14:47:07.105Z</time></trkpt><trkpt lat="37.3004622" lon="13.6772522"><ele>244.00000000000003</ele><time>2026-04-29T14:47:09.105Z</time></trkpt><trkpt lat="37.3004792" lon="13.677362"><ele>243.0</ele><time>2026-04-29T14:47:11.106Z</time></trkpt><trkpt lat="37.3005029" lon="13.6774819"><ele>242.0</ele><time>2026-04-29T14:47:13.106Z</time></trkpt><trkpt lat="37.3005282" lon="13.6775673"><ele>241.0</ele><time>2026-04-29T14:47:15.106Z</time></trkpt><trkpt lat="37.3005683" lon="13.6776742"><ele>240.00000000000003</ele><time>2026-04-29T14:47:18.106Z</time></trkpt><trkpt lat="37.3006148" lon="13.6777614"><ele>239.0</ele><time>2026-04-29T14:47:20.107Z</time></trkpt><trkpt lat="37.3006798" lon="13.6778672"><ele>239.0</ele><time>2026-04-29T14:47:22.106Z</time></trkpt><trkpt lat="37.300745" lon="13.6779697"><ele>238.99999999999997</ele><time>2026-04-29T14:47:24.107Z</time></trkpt><trkpt lat="37.3008107" lon="13.6780761"><ele>238.99999999999997</ele><time>2026-04-29T14:47:26.105Z</time></trkpt><trkpt lat="37.3008708" lon="13.6781906"><ele>239.0</ele><time>2026-04-29T14:47:28.106Z</time></trkpt><trkpt lat="37.3009336" lon="13.6782807"><ele>239.0</ele><time>2026-04-29T14:47:30.106Z</time></trkpt><trkpt lat="37.3010107" lon="13.6782913"><ele>239.0</ele><time>2026-04-29T14:47:32.106Z</time></trkpt><trkpt lat="37.3011045" lon="13.6782264"><ele>238.99999999999997</ele><time>2026-04-29T14:47:34.106Z</time></trkpt><trkpt lat="37.3011747" lon="13.6781557"><ele>238.99999999999997</ele><time>2026-04-29T14:47:35.106Z</time></trkpt><trkpt lat="37.3012594" lon="13.6780739"><ele>239.0</ele><time>2026-04-29T14:47:36.105Z</time></trkpt><trkpt lat="37.3013484" lon="13.6779941"><ele>239.0</ele><time>2026-04-29T14:47:37.105Z</time></trkpt><trkpt lat="37.3014428" lon="13.6779136"><ele>239.79999999999998</ele><time>2026-04-29T14:47:38.106Z</time></trkpt><trkpt lat="37.3015248" lon="13.6778466"><ele>240.59999999999997</ele><time>2026-04-29T14:47:39.107Z</time></trkpt><trkpt lat="37.3016107" lon="13.6777647"><ele>241.4</ele><time>2026-04-29T14:47:40.105Z</time></trkpt><trkpt lat="37.3017044" lon="13.677672"><ele>242.2</ele><time>2026-04-29T14:47:41.105Z</time></trkpt><trkpt lat="37.3017973" lon="13.6775894"><ele>243.0</ele><time>2026-04-29T14:47:42.106Z</time></trkpt><trkpt lat="37.3018744" lon="13.6775296"><ele>243.8</ele><time>2026-04-29T14:47:43.106Z</time></trkpt><trkpt lat="37.3019475" lon="13.6774799"><ele>244.60000000000002</ele><time>2026-04-29T14:47:44.105Z</time></trkpt><trkpt lat="37.3020626" lon="13.6774404"><ele>245.39999999999998</ele><time>2026-04-29T14:47:46.105Z</time></trkpt><trkpt lat="37.3021642" lon="13.6774402"><ele>246.2</ele><time>2026-04-29T14:47:48.106Z</time></trkpt><trkpt lat="37.3022589" lon="13.6774618"><ele>247.0</ele><time>2026-04-29T14:47:50.106Z</time></trkpt><trkpt lat="37.3023544" lon="13.6775044"><ele>247.0</ele><time>2026-04-29T14:47:52.106Z</time></trkpt><trkpt lat="37.3024563" lon="13.6775505"><ele>247.0</ele><time>2026-04-29T14:47:54.105Z</time></trkpt><trkpt lat="37.3025464" lon="13.6775904"><ele>247.0</ele><time>2026-04-29T14:47:56.107Z</time></trkpt><trkpt lat="37.3026264" lon="13.6776212"><ele>247.0</ele><time>2026-04-29T14:47:58.106Z</time></trkpt><trkpt lat="37.3027129" lon="13.6776325"><ele>247.0</ele><time>2026-04-29T14:48:00.107Z</time></trkpt><trkpt lat="37.3028007" lon="13.6776316"><ele>247.0</ele><time>2026-04-29T14:48:02.105Z</time></trkpt><trkpt lat="37.3028936" lon="13.6776068"><ele>247.0</ele><time>2026-04-29T14:48:04.106Z</time></trkpt><trkpt lat="37.3029849" lon="13.6775326"><ele>247.0</ele><time>2026-04-29T14:48:06.105Z</time></trkpt><trkpt lat="37.3030677" lon="13.677432"><ele>247.0</ele><time>2026-04-29T14:48:08.107Z</time></trkpt><trkpt lat="37.3031034" lon="13.6773328"><ele>247.0</ele><time>2026-04-29T14:48:09.106Z</time></trkpt><trkpt lat="37.3031446" lon="13.6772227"><ele>247.2</ele><time>2026-04-29T14:48:10.106Z</time></trkpt><trkpt lat="37.3031893" lon="13.6770925"><ele>247.39999999999998</ele><time>2026-04-29T14:48:11.107Z</time></trkpt><trkpt lat="37.3032364" lon="13.6769553"><ele>247.60000000000002</ele><time>2026-04-29T14:48:12.105Z</time></trkpt><trkpt lat="37.3032788" lon="13.6768358"><ele>247.8</ele><time>2026-04-29T14:48:13.106Z</time></trkpt><trkpt lat="37.3033316" lon="13.6767206"><ele>248.0</ele><time>2026-04-29T14:48:14.105Z</time></trkpt><trkpt lat="37.3033913" lon="13.6766067"><ele>248.0</ele><time>2026-04-29T14:48:15.106Z</time></trkpt><trkpt lat="37.3034488" lon="13.6765008"><ele>248.0</ele><time>2026-04-29T14:48:16.106Z</time></trkpt><trkpt lat="37.3035034" lon="13.6764161"><ele>248.0</ele><time>2026-04-29T14:48:17.106Z</time></trkpt><trkpt lat="37.3035544" lon="13.6763224"><ele>248.0</ele><time>2026-04-29T14:48:18.105Z</time></trkpt><trkpt lat="37.3036008" lon="13.6762464"><ele>248.0</ele><time>2026-04-29T14:48:19.106Z</time></trkpt><trkpt lat="37.3036909" lon="13.6761312"><ele>248.00000000000003</ele><time>2026-04-29T14:48:21.105Z</time></trkpt><trkpt lat="37.3037424" lon="13.6760843"><ele>248.0</ele><time>2026-04-29T14:48:22.105Z</time></trkpt><trkpt lat="37.3037971" lon="13.676009"><ele>248.0</ele><time>2026-04-29T14:48:24.105Z</time></trkpt><trkpt lat="37.3037961" lon="13.6759193"><ele>248.0</ele><time>2026-04-29T14:48:28.106Z</time></trkpt><trkpt lat="37.3038114" lon="13.6758274"><ele>248.00000000000003</ele><time>2026-04-29T14:48:30.107Z</time></trkpt><trkpt lat="37.3038598" lon="13.6757353"><ele>248.0</ele><time>2026-04-29T14:48:32.105Z</time></trkpt><trkpt lat="37.303933" lon="13.6756574"><ele>250.2</ele><time>2026-04-29T14:48:34.106Z</time></trkpt><trkpt lat="37.304014" lon="13.6756032"><ele>252.4</ele><time>2026-04-29T14:48:36.106Z</time></trkpt><trkpt lat="37.3041063" lon="13.6755731"><ele>254.59999999999997</ele><time>2026-04-29T14:48:38.106Z</time></trkpt><trkpt lat="37.3041962" lon="13.6754767"><ele>256.8</ele><time>2026-04-29T14:48:40.106Z</time></trkpt><trkpt lat="37.3042514" lon="13.6753807"><ele>259.0</ele><time>2026-04-29T14:48:41.105Z</time></trkpt><trkpt lat="37.304309" lon="13.6752632"><ele>259.0</ele><time>2026-04-29T14:48:42.106Z</time></trkpt><trkpt lat="37.3043839" lon="13.6751339"><ele>259.0</ele><time>2026-04-29T14:48:43.106Z</time></trkpt><trkpt lat="37.3044705" lon="13.6750347"><ele>259.0</ele><time>2026-04-29T14:48:44.106Z</time></trkpt><trkpt lat="37.304549" lon="13.6749272"><ele>259.0</ele><time>2026-04-29T14:48:45.106Z</time></trkpt><trkpt lat="37.3046028" lon="13.67482"><ele>259.0</ele><time>2026-04-29T14:48:46.107Z</time></trkpt><trkpt lat="37.3046481" lon="13.6746917"><ele>259.0</ele><time>2026-04-29T14:48:47.106Z</time></trkpt><trkpt lat="37.3046832" lon="13.6745552"><ele>259.0</ele><time>2026-04-29T14:48:48.106Z</time></trkpt><trkpt lat="37.3047269" lon="13.6744191"><ele>259.0</ele><time>2026-04-29T14:48:49.106Z</time></trkpt><trkpt lat="37.3047857" lon="13.6742882"><ele>263.25</ele><time>2026-04-29T14:48:50.106Z</time></trkpt><trkpt lat="37.3048636" lon="13.6741558"><ele>267.5</ele><time>2026-04-29T14:48:51.106Z</time></trkpt><trkpt lat="37.304966" lon="13.6740268"><ele>271.75</ele><time>2026-04-29T14:48:52.106Z</time></trkpt><trkpt lat="37.3050682" lon="13.6739026"><ele>276.0</ele><time>2026-04-29T14:48:53.106Z</time></trkpt><trkpt lat="37.3051559" lon="13.6737961"><ele>276.0</ele><time>2026-04-29T14:48:54.107Z</time></trkpt><trkpt lat="37.3052363" lon="13.6736963"><ele>276.0</ele><time>2026-04-29T14:48:55.105Z</time></trkpt><trkpt lat="37.3053229" lon="13.6736183"><ele>276.0</ele><time>2026-04-29T14:48:56.105Z</time></trkpt><trkpt lat="37.305422" lon="13.6735571"><ele>276.0</ele><time>2026-04-29T14:48:57.106Z</time></trkpt><trkpt lat="37.3055363" lon="13.6735381"><ele>276.0</ele><time>2026-04-29T14:48:58.106Z</time></trkpt><trkpt lat="37.3056421" lon="13.6735081"><ele>278.75</ele><time>2026-04-29T14:48:59.106Z</time></trkpt><trkpt lat="37.3057505" lon="13.6734487"><ele>281.5</ele><time>2026-04-29T14:49:00.106Z</time></trkpt><trkpt lat="37.3058642" lon="13.6733727"><ele>284.25</ele><time>2026-04-29T14:49:01.106Z</time></trkpt><trkpt lat="37.3059546" lon="13.6732994"><ele>287.0</ele><time>2026-04-29T14:49:02.107Z</time></trkpt><trkpt lat="37.30604" lon="13.673215"><ele>287.0</ele><time>2026-04-29T14:49:03.105Z</time></trkpt><trkpt lat="37.3061213" lon="13.6731387"><ele>287.0</ele><time>2026-04-29T14:49:04.106Z</time></trkpt><trkpt lat="37.3062055" lon="13.6730838"><ele>287.0</ele><time>2026-04-29T14:49:05.105Z</time></trkpt><trkpt lat="37.3063084" lon="13.673057"><ele>287.0</ele><time>2026-04-29T14:49:06.106Z</time></trkpt><trkpt lat="37.3064167" lon="13.6730235"><ele>287.0</ele><time>2026-04-29T14:49:07.107Z</time></trkpt><trkpt lat="37.3065521" lon="13.6729873"><ele>286.75</ele><time>2026-04-29T14:49:08.106Z</time></trkpt><trkpt lat="37.306679" lon="13.6729516"><ele>286.5</ele><time>2026-04-29T14:49:09.106Z</time></trkpt><trkpt lat="37.3068008" lon="13.6729202"><ele>286.25</ele><time>2026-04-29T14:49:10.105Z</time></trkpt><trkpt lat="37.3069323" lon="13.6728956"><ele>286.0</ele><time>2026-04-29T14:49:11.106Z</time></trkpt><trkpt lat="37.3070608" lon="13.6728875"><ele>286.0</ele><time>2026-04-29T14:49:12.106Z</time></trkpt><trkpt lat="37.3071819" lon="13.6728728"><ele>286.0</ele><time>2026-04-29T14:49:13.106Z</time></trkpt><trkpt lat="37.3073019" lon="13.6728624"><ele>286.0</ele><time>2026-04-29T14:49:14.106Z</time></trkpt><trkpt lat="37.3074127" lon="13.6728387"><ele>286.0</ele><time>2026-04-29T14:49:15.106Z</time></trkpt><trkpt lat="37.3075222" lon="13.6728213"><ele>286.40000000000003</ele><time>2026-04-29T14:49:16.107Z</time></trkpt><trkpt lat="37.3076248" lon="13.67281"><ele>286.8</ele><time>2026-04-29T14:49:17.105Z</time></trkpt><trkpt lat="37.3077244" lon="13.6727841"><ele>287.20000000000005</ele><time>2026-04-29T14:49:18.106Z</time></trkpt><trkpt lat="37.3078048" lon="13.6727348"><ele>287.6</ele><time>2026-04-29T14:49:19.107Z</time></trkpt><trkpt lat="37.3078794" lon="13.6726855"><ele>288.0</ele><time>2026-04-29T14:49:20.107Z</time></trkpt><trkpt lat="37.3079529" lon="13.6726368"><ele>288.00000000000006</ele><time>2026-04-29T14:49:21.106Z</time></trkpt><trkpt lat="37.3080202" lon="13.6726079"><ele>288.0</ele><time>2026-04-29T14:49:22.105Z</time></trkpt><trkpt lat="37.3080898" lon="13.6725762"><ele>288.0</ele><time>2026-04-29T14:49:23.105Z</time></trkpt><trkpt lat="37.3081567" lon="13.6725462"><ele>288.0</ele><time>2026-04-29T14:49:24.106Z</time></trkpt><trkpt lat="37.3082133" lon="13.6725079"><ele>288.0</ele><time>2026-04-29T14:49:25.107Z</time></trkpt><trkpt lat="37.3082709" lon="13.6724747"><ele>288.00000000000006</ele><time>2026-04-29T14:49:26.106Z</time></trkpt><trkpt lat="37.3083291" lon="13.6724437"><ele>288.0</ele><time>2026-04-29T14:49:27.106Z</time></trkpt><trkpt lat="37.3084435" lon="13.6724181"><ele>287.6</ele><time>2026-04-29T14:49:29.106Z</time></trkpt><trkpt lat="37.3085387" lon="13.6723442"><ele>287.20000000000005</ele><time>2026-04-29T14:49:31.106Z</time></trkpt><trkpt lat="37.3085865" lon="13.6722717"><ele>286.8</ele><time>2026-04-29T14:49:32.105Z</time></trkpt><trkpt lat="37.3086413" lon="13.6721977"><ele>286.40000000000003</ele><time>2026-04-29T14:49:33.106Z</time></trkpt><trkpt lat="37.3087145" lon="13.6721207"><ele>286.0</ele><time>2026-04-29T14:49:34.105Z</time></trkpt><trkpt lat="37.3087981" lon="13.672044"><ele>286.0</ele><time>2026-04-29T14:49:35.106Z</time></trkpt><trkpt lat="37.3088883" lon="13.6719656"><ele>286.0</ele><time>2026-04-29T14:49:36.105Z</time></trkpt><trkpt lat="37.3089905" lon="13.6718765"><ele>286.0</ele><time>2026-04-29T14:49:37.105Z</time></trkpt><trkpt lat="37.309094" lon="13.6717848"><ele>286.0</ele><time>2026-04-29T14:49:38.105Z</time></trkpt><trkpt lat="37.3092076" lon="13.6717195"><ele>287.75</ele><time>2026-04-29T14:49:39.105Z</time></trkpt><trkpt lat="37.3093173" lon="13.6716543"><ele>289.5</ele><time>2026-04-29T14:49:40.106Z</time></trkpt><trkpt lat="37.3094276" lon="13.6715727"><ele>291.25</ele><time>2026-04-29T14:49:41.105Z</time></trkpt><trkpt lat="37.3095366" lon="13.6714949"><ele>293.0</ele><time>2026-04-29T14:49:42.105Z</time></trkpt><trkpt lat="37.3096466" lon="13.6714199"><ele>292.75</ele><time>2026-04-29T14:49:43.105Z</time></trkpt><trkpt lat="37.309748" lon="13.671347"><ele>292.5</ele><time>2026-04-29T14:49:44.106Z</time></trkpt><trkpt lat="37.309841" lon="13.6712472"><ele>292.25</ele><time>2026-04-29T14:49:45.106Z</time></trkpt><trkpt lat="37.3099286" lon="13.6711438"><ele>292.0</ele><time>2026-04-29T14:49:46.105Z</time></trkpt><trkpt lat="37.3100167" lon="13.6710395"><ele>292.75</ele><time>2026-04-29T14:49:47.106Z</time></trkpt><trkpt lat="37.3101126" lon="13.6709264"><ele>293.5</ele><time>2026-04-29T14:49:48.106Z</time></trkpt><trkpt lat="37.3101969" lon="13.670821"><ele>294.25</ele><time>2026-04-29T14:49:49.106Z</time></trkpt><trkpt lat="37.3102662" lon="13.6707128"><ele>295.0</ele><time>2026-04-29T14:49:50.105Z</time></trkpt><trkpt lat="37.310328" lon="13.6706005"><ele>295.0</ele><time>2026-04-29T14:49:51.106Z</time></trkpt><trkpt lat="37.3103827" lon="13.670469"><ele>295.0</ele><time>2026-04-29T14:49:52.106Z</time></trkpt><trkpt lat="37.3104456" lon="13.6703462"><ele>295.0</ele><time>2026-04-29T14:49:53.105Z</time></trkpt><trkpt lat="37.310512" lon="13.6702276"><ele>295.0</ele><time>2026-04-29T14:49:54.106Z</time></trkpt><trkpt lat="37.3105767" lon="13.6701114"><ele>295.25</ele><time>2026-04-29T14:49:55.106Z</time></trkpt><trkpt lat="37.3106394" lon="13.6699883"><ele>295.5</ele><time>2026-04-29T14:49:56.105Z</time></trkpt><trkpt lat="37.3107074" lon="13.669862"><ele>295.75</ele><time>2026-04-29T14:49:57.105Z</time></trkpt><trkpt lat="37.3107753" lon="13.6697257"><ele>296.0</ele><time>2026-04-29T14:49:58.106Z</time></trkpt><trkpt lat="37.3108392" lon="13.6695918"><ele>296.0</ele><time>2026-04-29T14:49:59.106Z</time></trkpt><trkpt lat="37.3109087" lon="13.6694567"><ele>296.0</ele><time>2026-04-29T14:50:00.106Z</time></trkpt><trkpt lat="37.3109817" lon="13.6693156"><ele>296.0</ele><time>2026-04-29T14:50:01.106Z</time></trkpt><trkpt lat="37.3110426" lon="13.6691822"><ele>296.0</ele><time>2026-04-29T14:50:02.106Z</time></trkpt><trkpt lat="37.3111047" lon="13.6690577"><ele>296.75</ele><time>2026-04-29T14:50:03.106Z</time></trkpt><trkpt lat="37.3111778" lon="13.6689347"><ele>297.5</ele><time>2026-04-29T14:50:04.106Z</time></trkpt><trkpt lat="37.3112527" lon="13.6688044"><ele>298.25</ele><time>2026-04-29T14:50:05.106Z</time></trkpt><trkpt lat="37.3113346" lon="13.668672"><ele>299.0</ele><time>2026-04-29T14:50:06.106Z</time></trkpt><trkpt lat="37.3114201" lon="13.6685376"><ele>300.0</ele><time>2026-04-29T14:50:07.106Z</time></trkpt><trkpt lat="37.311511" lon="13.6684017"><ele>301.0</ele><time>2026-04-29T14:50:08.105Z</time></trkpt><trkpt lat="37.3116193" lon="13.668298"><ele>302.0</ele><time>2026-04-29T14:50:09.105Z</time></trkpt><trkpt lat="37.3117302" lon="13.6681951"><ele>303.0</ele><time>2026-04-29T14:50:10.106Z</time></trkpt><trkpt lat="37.3118377" lon="13.6681056"><ele>303.0</ele><time>2026-04-29T14:50:11.105Z</time></trkpt><trkpt lat="37.3119461" lon="13.6680122"><ele>303.0</ele><time>2026-04-29T14:50:12.106Z</time></trkpt><trkpt lat="37.31203" lon="13.6679137"><ele>303.0</ele><time>2026-04-29T14:50:13.106Z</time></trkpt><trkpt lat="37.3121055" lon="13.667801"><ele>303.0</ele><time>2026-04-29T14:50:14.106Z</time></trkpt><trkpt lat="37.3121741" lon="13.6676656"><ele>304.5</ele><time>2026-04-29T14:50:15.105Z</time></trkpt><trkpt lat="37.3122485" lon="13.6675382"><ele>306.0</ele><time>2026-04-29T14:50:16.105Z</time></trkpt><trkpt lat="37.3123213" lon="13.6674034"><ele>307.5</ele><time>2026-04-29T14:50:17.106Z</time></trkpt><trkpt lat="37.3124008" lon="13.667257"><ele>309.0</ele><time>2026-04-29T14:50:18.108Z</time></trkpt><trkpt lat="37.3124773" lon="13.6671142"><ele>309.0</ele><time>2026-04-29T14:50:19.105Z</time></trkpt><trkpt lat="37.3125481" lon="13.6669911"><ele>309.0</ele><time>2026-04-29T14:50:20.105Z</time></trkpt><trkpt lat="37.3126052" lon="13.6668918"><ele>309.0</ele><time>2026-04-29T14:50:21.105Z</time></trkpt><trkpt lat="37.312654" lon="13.6668053"><ele>309.0</ele><time>2026-04-29T14:50:22.105Z</time></trkpt><trkpt lat="37.3127051" lon="13.6667534"><ele>309.0</ele><time>2026-04-29T14:50:23.106Z</time></trkpt><trkpt lat="37.312843" lon="13.6667002"><ele>309.59999999999997</ele><time>2026-04-29T14:50:25.105Z</time></trkpt><trkpt lat="37.312943" lon="13.6666857"><ele>310.2</ele><time>2026-04-29T14:50:26.107Z</time></trkpt><trkpt lat="37.3130456" lon="13.6666669"><ele>310.79999999999995</ele><time>2026-04-29T14:50:27.105Z</time></trkpt><trkpt lat="37.3131593" lon="13.6666479"><ele>311.4</ele><time>2026-04-29T14:50:28.106Z</time></trkpt><trkpt lat="37.3132806" lon="13.6666337"><ele>312.0</ele><time>2026-04-29T14:50:29.106Z</time></trkpt><trkpt lat="37.3133873" lon="13.6666192"><ele>312.2</ele><time>2026-04-29T14:50:30.106Z</time></trkpt><trkpt lat="37.31349" lon="13.6665909"><ele>312.4</ele><time>2026-04-29T14:50:31.105Z</time></trkpt><trkpt lat="37.3135971" lon="13.6665614"><ele>312.6</ele><time>2026-04-29T14:50:32.106Z</time></trkpt><trkpt lat="37.313692" lon="13.6665467"><ele>312.8</ele><time>2026-04-29T14:50:33.105Z</time></trkpt><trkpt lat="37.3137871" lon="13.6665315"><ele>313.0</ele><time>2026-04-29T14:50:34.105Z</time></trkpt><trkpt lat="37.3138686" lon="13.6665164"><ele>313.3333333333333</ele><time>2026-04-29T14:50:35.106Z</time></trkpt><trkpt lat="37.3139435" lon="13.6665066"><ele>313.66666666666663</ele><time>2026-04-29T14:50:36.104Z</time></trkpt><trkpt lat="37.3140332" lon="13.6664957"><ele>314.0</ele><time>2026-04-29T14:50:38.105Z</time></trkpt><trkpt lat="37.3140783" lon="13.6666364"><ele>314.3333333333333</ele><time>2026-04-29T14:50:43.106Z</time></trkpt><trkpt lat="37.3140853" lon="13.6667405"><ele>314.6666666666667</ele><time>2026-04-29T14:50:44.105Z</time></trkpt><trkpt lat="37.3140897" lon="13.6668343"><ele>315.0</ele><time>2026-04-29T14:50:45.106Z</time></trkpt><trkpt lat="37.3140981" lon="13.6669206"><ele>315.0</ele><time>2026-04-29T14:50:46.106Z</time></trkpt><trkpt lat="37.3141134" lon="13.6670364"><ele>312.0</ele><time>2026-04-29T14:50:48.105Z</time></trkpt><trkpt lat="37.3141092" lon="13.6671423"><ele>312.0</ele><time>2026-04-29T15:04:55.105Z</time></trkpt></trkseg></trk></gpx>